[[{"header":{"parameterUnit":"m.s-1","parameterCategory":1,"la1":31.0,"la2":29.5877,"lo1":-88.7671,"lo2":-86.6584,"dy":0.0162,"dx":0.0185,"nx":115,"ny":88,"refTime":"2023-07-05T00:00:00:Z","depth":0,"parameterNumber":2,"parameterNumberName":"U-component_of_WINDS"},"data":[0.0,0.0,0.0,0.0,0.0,0.0,0.0,0.0,0.0,0.0,0.0,0.0,0.0,0.0,0.0,0.0,0.0,0.0,0.0,0.0,0.0,0.0,0.0,0.0,0.0,0.0,0.0,0.0,0.0,0.0,0.0,0.0,0.0,0.0,0.0,0.0,0.0,0.0,0.0,0.0,0.0,0.0,0.0,0.0,0.0,0.0,0.0,0.0,0.0,0.0,0.0,0.0,0.0,0.0,0.0,0.0,0.0,0.0,0.0,0.0,0.0,0.0,0.0,0.0,0.0,0.0,0.0,0.0,0.0,0.0,0.0,0.0,0.0,0.0,0.0,0.0,0.0,0.0,0.0,0.0,0.0,0.0,0.0,0.0,0.0,0.0,0.0,0.0,0.0,0.0,0.0,0.0,0.0,0.0,0.0,0.0,0.0,0.0,0.0,0.0,0.0,0.0,0.0,0.0,0.0,0.0,0.0,0.0,0.0,0.0,0.0,0.0,0.0,0.0,0.0,0.0,0.0,0.0,0.0,0.0,0.0,0.0,0.0,0.0,0.0,0.0,0.0,0.0,0.0,0.0,0.0,0.0,0.0,0.0,0.0,0.0,0.0,0.0,0.0,0.0,0.0,0.0,0.0,0.0,0.0,0.0,0.0,0.0,0.0,0.0,0.0,0.0,0.0,0.0,0.0,0.0,0.0,0.0,0.0,0.0,0.0,0.0,0.0,0.0,0.0,0.0,0.0,0.0,0.0,0.0,0.0,0.0,0.0,0.0,0.0,0.0,0.0,0.0,0.0,0.0,0.0,0.0,0.0,0.0,0.0,0.0,0.0,0.0,0.0,0.0,0.0,0.0,0.0,0.0,0.0,0.0,0.0,0.0,0.0,0.0,0.0,0.0,0.0,0.0,0.0,0.0,0.0,0.0,0.0,0.0,0.0,0.0,0.0,0.0,0.0,0.0,0.0,0.0,0.0,0.0,0.0,0.0,0.0,0.0,0.0,0.0,0.0,0.0,0.0,0.0,0.0,0.0,0.0,0.0,0.0,0.0,0.0,0.0,0.0,0.0,0.0,0.0,0.0,0.0,0.0,0.0,0.0,0.0,0.0,0.0,0.0,0.0,0.0,0.0,0.0,0.0,0.0,0.0,0.0,0.0,0.0,0.0,0.0,0.0,0.0,0.0,0.0,0.0,0.0,0.0,0.0,0.0,0.0,0.0,0.0,0.0,0.0,0.0,0.0,0.0,0.0,0.0,0.0,0.0,0.0,0.0,0.0,0.0,0.0,0.0,0.0,0.0,0.0,0.0,0.0,0.0,0.0,0.0,0.0,0.0,0.0,0.0,0.0,0.0,0.0,0.0,0.0,0.0,0.0,0.0,0.0,0.0,0.0,0.0,0.0,0.0,0.0,0.0,0.0,0.0,0.0,0.0,0.0,0.0,0.0,0.0,0.0,0.0,0.0,0.0,0.0,0.0,0.0,0.0,0.0,0.0,0.0,0.0,0.0,0.0,0.0,0.0,0.0,0.0,0.0,0.0,0.0,0.0,0.0,0.0,0.0,0.0,0.0,0.0,0.0,0.0,0.0,0.0,0.0,0.0,0.0,0.0,0.0,0.0,0.0,0.0,0.0,0.0,0.0,0.0,0.0,0.0,0.0,0.0,0.0,0.0,0.0,0.0,0.0,0.0,0.0,0.0,0.0,0.0,0.0,0.0,0.0,0.0,0.0,0.0,0.0,0.0,0.0,0.0,0.0,0.0,0.0,0.0,0.0,0.0,0.0,0.0,0.0,0.0,0.0,0.0,0.0,0.0,0.0,0.0,0.0,0.0,0.0,0.0,0.0,0.0,0.0,0.0,0.0,0.0,0.0,0.0,0.0,0.0,0.0,0.0,0.0,0.0,0.0,0.0,0.0,0.0,0.0,0.0,0.0,0.0,0.0,0.0,0.0,0.0,0.0,0.0,0.0,0.0,0.0,0.0,0.0,0.0,0.0,0.0,0.0,0.0,0.0,0.0,0.0,0.0,0.0,0.0,0.0,0.0,0.0,0.0,0.0,0.0,0.0,0.0,0.0,0.0,0.0,0.0,0.0,0.0,0.0,0.0,0.0,0.0,0.0,0.0,0.0,0.0,0.0,0.0,0.0,0.0,0.0,0.0,0.0,0.0,0.0,0.0,0.0,0.0,0.0,0.0,0.0,0.0,0.0,0.0,0.0,0.0,0.0,0.0,0.0,0.0,0.0,0.0,0.0,0.0,0.0,0.0,0.0,0.0,0.0,0.0,0.0,0.0,0.0,0.0,0.0,0.0,0.0,0.0,0.0,0.0,0.0,0.0,0.0,0.0,0.0,0.0,0.0,0.0,0.0,0.0,0.0,0.0,0.0,0.0,0.0,0.0,0.0,0.0,0.0,0.0,0.0,0.0,0.0,0.0,0.0,0.0,0.0,0.0,0.0,0.0,0.0,0.0,0.0,0.0,0.0,0.0,0.0,0.0,0.0,0.0,0.0,0.0,0.0,0.0,0.0,0.0,0.0,0.0,0.0,0.0,0.0,0.0,0.0,0.0,0.0,0.0,0.0,0.0,0.0,0.0,0.0,0.0,0.0,0.0,0.0,0.0,0.0,0.0,0.0,0.0,0.0,0.0,0.0,0.0,0.0,0.0,0.0,0.0,0.0,0.0,0.0,0.0,0.0,0.0,0.0,0.0,0.0,0.0,0.0,0.0,0.0,0.0,0.0,0.0,0.0,0.0,0.0,0.0,0.0,0.0,0.0,0.0,0.0,0.0,0.0,0.0,0.0,0.0,0.0,0.0,0.0,0.0,0.0,0.0,0.0,0.0,0.0,0.0,0.0,0.0,0.0,0.0,0.0,0.0,0.0,0.0,0.0,0.0,0.0,0.0,0.0,0.0,0.0,0.0,0.0,0.0,0.0,0.0,0.0,0.0,0.0,0.0,0.0,0.0,0.0,0.0,0.0,0.0,0.0,0.0,0.0,0.0,0.0,0.0,0.0,0.0,0.0,0.0,0.0,0.0,0.0,0.0,0.0,0.0,0.0,0.0,0.0,0.0,0.0,0.0,0.0,0.0,0.0,0.0,0.0,0.0,0.0,0.0,0.0,0.0,0.0,0.0,0.0,0.0,0.0,0.0,0.0,0.0,0.0,0.0,0.0,0.0,0.0,0.0,0.0,0.0,0.0,0.0,0.0,0.0,0.0,0.0,0.0,0.0,0.0,0.0,0.0,0.0,0.0,0.0,0.0,0.0,0.0,0.0,0.0,0.0,0.0,0.0,0.0,0.0,0.0,0.0,0.0,0.0,0.0,0.0,0.0,0.0,0.0,0.0,0.0,0.0,0.0,0.0,0.0,0.0,0.0,0.0,0.0,0.0,0.0,0.0,0.0,0.0,0.0,0.0,0.0,0.0,0.0,0.0,0.0,0.0,0.0,0.0,0.0,0.0,0.0,0.0,0.0,0.0,0.0,0.0,0.0,0.0,0.0,0.0,0.0,0.0,0.0,0.0,0.0,0.0,0.0,0.0,0.0,0.0,0.0,0.0,0.0,0.0,0.0,0.0,0.0,0.0,0.0,0.0,0.0,0.0,0.0,0.0,0.0,0.0,0.0,0.0,0.0,0.0,0.0,0.0,0.0,0.0,0.0,0.0,0.0,0.0,0.0,0.0,0.0,0.0,0.0,0.0,0.0,0.0,0.0,0.0,0.0,0.0,0.0,0.0,0.0,0.0,0.0,0.0,0.0,0.0,0.0,0.0,0.0,0.0,0.0,0.0,0.0,0.0,0.0,0.0,0.0,0.0,0.0,0.0,0.0,0.0,0.0,0.0,0.0,0.0,0.0,0.0,0.0,0.0,0.0,0.0,0.0,0.0,0.0,0.0,0.0,0.0,0.0,0.0,0.0,0.0,0.0,0.0,0.0,0.0,0.0,0.0,0.0,0.0,0.0,0.0,0.0,0.0,0.0,0.0,0.0,0.0,0.0,0.0,0.0,0.0,0.0,0.0,0.0,0.0,0.0,0.0,0.0,0.0,0.0,0.0,0.0,0.0,0.0,0.0,0.0,0.0,0.0,0.0,0.0,0.0,0.0,0.0,0.0,0.0,0.0,0.0,0.0,0.0,0.0,0.0,0.0,0.0,0.0,0.0,0.0,0.0,0.0,0.0,0.0,0.0,0.0,0.0,0.0,0.0,0.0,0.0,0.0,0.0,0.0,0.0,0.0,0.0,0.0,0.0,0.0,0.0,0.0,0.0,0.0,0.0,0.0,0.0,-0.1949,0.0,0.0,0.0,0.0,0.0,0.0,0.0,0.0,0.0,0.0,0.0,0.0,0.0,0.0,0.0,0.0,0.0,0.0,0.0,0.0,0.0,0.0,0.0,0.0,0.0,0.0,0.0,0.0,0.0,0.0,0.0,0.0,0.0,0.0,0.0,0.0,0.0,0.0,0.0,0.0,0.0,0.0,0.0,0.0,0.0,0.0,0.0,0.0,0.0,0.0,0.0,0.0,0.0,0.0,0.0,0.0,0.0,0.0,0.0,0.0,0.0,0.0,0.0,0.0,0.0,0.0,0.0,0.0,0.0,0.0,0.0,0.0,0.0,0.0,0.0,0.0,0.0,0.0,0.0,0.0,0.0,0.0,0.0,0.0,0.0,0.0,0.0,0.0,0.0,0.0,0.0,0.0,0.0,0.0,0.0,0.0,0.0,0.0,0.0,0.0,0.0,0.0,0.0,0.0,0.0,0.0,0.0,0.0,0.0,0.0,0.0758,0.0839,-0.0261,-0.1102,-0.1708,0.0,0.0,0.0,0.0,0.0,0.0,0.0,0.0,0.0,0.0,0.0,0.0,0.0,0.0,0.0,0.0,0.0,0.0,0.0,0.0,0.0,0.0,0.0,0.0,0.0,0.0,0.0,0.0,0.0,0.0,0.0,0.0,0.0,0.0,0.0,0.0,0.0,0.0,0.0,0.0,0.0,0.0,0.0,0.0,0.0,0.0,0.0,0.0,0.0,0.0,0.0,0.0,0.0,0.0,0.0,0.0,0.0,0.0,0.0,0.0,0.0,0.0,0.0,0.0,0.0,0.0,0.0,0.0,0.0,0.0,0.0,0.0,0.0,0.0,0.0,0.0,0.0,0.0,0.0,0.0,0.0,0.0,0.0,0.0,0.0,0.0,0.0,0.0,0.0,0.0,0.0,0.0,0.0,0.0,0.0,0.0,0.0,0.0,0.0,0.0,0.0,0.0,0.0,0.0,0.0,0.0,0.0,0.0,0.0,0.0,0.0,0.0,0.0211,-0.0607,-0.1542,0.0,0.0,0.0,0.0,0.0,0.0,0.0,0.0,0.0,0.0,0.0,0.0,0.0,0.0,0.0,0.0,0.0,0.0,0.0,0.0,0.0,0.0,0.0,0.0,0.0,0.0,0.0,0.0,0.0,0.0,0.0,0.0,0.0,0.0,0.0,0.0,0.0,0.0,0.0,0.0,0.0,0.0,0.0,0.0,0.0,0.0,0.0,0.0,0.0,0.0,0.0,0.0,0.0,0.0,0.0,0.0,0.0,0.0,0.0,0.0,0.0,0.0,0.0,0.0,0.0,0.0,0.0,0.0,0.0,0.0,0.0,0.0,0.0,0.0,0.0,0.0,0.0,0.0,0.0,0.0,0.0,0.0,0.0,0.0,0.0,0.0,0.0,0.0,0.0,0.0,0.0,0.0,0.0,0.0,0.0,0.0,0.0,0.0,0.0,0.0,0.0,0.0,0.0,0.0,0.0,0.0,0.0,0.0,0.0,0.0,0.0863,0.0855,0.0472,0.0,-0.1609,0.0,0.0,0.0,0.0,0.0,0.0,0.0,0.0,0.0,0.0,0.0,0.0,0.0,0.0,0.0,0.0,0.0,0.0,0.0,0.0,0.0,0.0,0.0,0.0,0.0,0.0,0.0,0.0,0.0,0.0,0.0,0.0,0.0,0.0,0.0,0.0,0.0,0.0,0.0,0.0,0.0,0.0,0.0,0.0,0.0,0.0,0.0,0.0,0.0,0.0,0.0,0.0,0.0,0.0,0.0,0.0,0.0,0.0,0.0,0.0,0.0,0.0,0.0,0.0,0.0,0.0,0.0,0.0,0.0,0.0,0.0,0.0,0.0,0.0,0.0,0.0,0.0,0.0,0.0,0.0,0.0,0.0,0.0,0.0,0.0,0.0,0.0,0.0,0.0,0.0,0.0,0.0,0.0,0.0,0.0,0.0,0.0,0.0,0.0,0.0,0.0,0.0,0.0,0.0,0.0,0.0,0.0,0.0,0.0,0.0,0.0631,0.096,-0.0,-0.0613,0.0,0.0,0.0,0.0,0.0,0.0,0.0,0.0,0.0,0.0,0.0,0.0,0.0,0.0,0.0,0.0,0.0,0.0,0.0,0.0,0.0,0.0,0.0,0.0,0.0,0.0,0.0,0.0,0.0,0.0,0.0,0.0,0.0,0.0,0.0,0.0,0.0,0.0,0.0,0.0,0.0,0.0,0.0,0.0,0.0,0.0,0.0,0.0,0.0,0.0,0.0,0.0,0.0,0.0,0.0,0.0,0.0,0.0,0.0,0.0,0.0,0.0,0.0,0.0,0.0,0.0,0.0,0.0,0.0,0.0,0.0,0.0,0.0,0.0,0.0,0.0,0.0,0.0,0.0,0.0,0.0,0.0,0.0,0.0,0.0,0.0,0.0,0.0,0.0,0.0,0.0,0.0,0.0,0.0,0.0,0.0,0.0,0.0,0.0,0.0,0.0,0.0,0.0,0.0,0.0,0.0,0.0,0.0,0.0,0.0,0.0574,0.0577,0.0892,-0.0115,-0.0547,-0.0208,0.0,0.0,0.0,0.0,0.0,0.0,0.0,0.0,0.0,0.0,0.0,0.0,0.0,0.0,0.0,0.0,0.0,0.0,0.0,0.0,0.0,0.0,0.0,0.0,0.0,0.0,0.0,0.0,0.0,0.0,0.0,0.0,0.0,0.0,0.0,0.0,0.0,0.0,0.0,0.0,0.0,0.0,0.0,0.0,0.0,0.0,0.0,0.0,0.0,0.0,0.0,0.0,0.0,0.0,0.0,0.0,0.0,0.0,0.0,0.0,0.0,0.0,0.0,0.0,0.0,0.0,0.0,0.0,0.0,0.0,0.0,0.0,0.0,0.0,0.0,0.0,0.0,0.0,0.0,0.0,0.0,0.0,0.0,0.0,0.0,0.0,0.0,0.0,0.0,0.0,0.0,0.0,0.0,0.0,0.0,0.0,0.0,0.0,0.0,0.0,0.0,0.0,0.0,0.0,0.0,0.0,0.0,0.0,0.0892,0.0909,0.0895,0.0983,0.0464,0.0224,0.0,0.0,0.0,0.0,0.0,0.0,0.0,0.0,0.0,0.0,0.0,0.0,0.0,0.0,0.0,0.0,0.0,0.0,0.0,0.0,0.0,0.0,0.0,0.0,0.0,0.0,0.0,0.0,0.0,0.0,0.0,0.0,0.0,0.0,0.0,0.0,0.0,0.0,0.0,0.0,0.0,0.0,0.0,0.0,0.0,0.0,0.0,0.0,0.0,0.0,0.0,0.0,0.0,0.0,0.0,0.0,0.0,0.0,0.0,0.0,0.0,0.0,0.0,0.0,0.0,0.0,0.0,0.0,0.0,0.0,0.0,0.0,0.0,0.0,0.0,0.0,0.0,0.0,0.0,0.0,0.0,0.0,0.0,0.0,0.0,0.0,0.0,0.0,0.0,0.0,0.0,0.0,0.0,0.0,0.0,0.0,0.0,0.0,0.0,0.0,0.0,0.0,0.0,0.0,0.0,0.0,0.0,0.0,0.0,0.0885,0.0944,0.083,0.0539,0.0352,0.0401,0.0,0.0,0.0,0.0,0.0,0.0,0.0,0.0,0.0,0.0,0.0,0.0,0.0,0.0,0.0,0.0,0.0,0.0,0.0,0.0,0.0,0.0,0.0,0.0,0.0,0.0,0.0,0.0,0.0,0.0,0.0,0.0,0.0,0.0,0.0,0.0,0.0,0.0,0.0,0.0,0.0,0.0,0.0,0.0,0.0,0.0,0.0,0.0,0.0,0.0,0.0,0.0,0.0,0.0,0.0,0.0,0.0,0.0,0.0,0.0,0.0,0.0,0.0,0.0,0.0,0.0,0.0,0.0,0.0,0.0,0.0,0.0,0.0,0.0,0.0,0.0,0.0,0.0,0.0,0.0,0.0,0.0,0.0,0.0,0.0,0.0,0.0,0.0,0.0,0.0,0.0,0.0,0.0,0.0,0.0,0.0,0.0,0.0,0.0,0.0,0.0,0.0,0.0,0.0,0.0,0.0,0.0,0.0,0.0,0.0898,0.0,0.0812,0.0522,0.0516,0.0624,0.0,0.0,0.0,0.0,0.0,0.0,0.0,0.0,0.0,0.0,0.0,0.0,0.0,0.0,0.0,0.0,0.0,0.0,0.0,0.0,0.0,0.0,0.0,0.0,0.0,0.0,0.0,0.0,0.0,0.0,0.0,0.0,0.0,0.0,0.0,0.0,0.0,0.0,0.0,0.0,0.0,0.0,0.0,0.0,0.0,0.0,0.0,0.0,0.0,0.0,0.0,0.0,0.0,0.0,0.0,0.0,0.0,0.0,0.0,0.0,0.0,0.0,0.0,0.0,0.0,0.0,0.0,0.0,0.0,0.0,0.0,0.0,0.0,0.0,0.0,0.0,0.0,0.0,0.0,0.0,0.0,0.0,0.0,0.0,0.0,0.0,0.0,0.0,0.0,0.0,0.0,0.0,0.0,0.0,0.0,0.0,0.0,0.0,0.0,0.0,0.0,0.0,0.0,0.0,0.0,0.0,0.0,0.0,0.0952,0.0898,0.0897,0.0899,0.0898,0.0926,0.0923,0.0,0.0,0.0,0.0,0.0,0.0,0.0,0.0,0.0,0.0,0.0,0.0,0.0,0.0,0.0,0.0,0.0,0.0,0.0,0.0,0.0,0.0,0.0,0.0,0.0,0.0,0.0,0.0,0.0,0.0,0.0,0.0,0.0,0.0,0.0,0.0,0.0,0.0,0.0,0.0,0.0,0.0,0.0,0.0,0.0,0.0,0.0,0.0,0.0,0.0,0.0,0.0,0.0,0.0,0.0,0.0,0.0,0.0,0.0,0.0,0.0,0.0,0.0,0.0,0.0,0.0,0.0,0.0,0.0,0.0,0.0,0.0,0.0,0.0,0.0,0.0,0.0,0.0,0.0,0.0,0.0,0.0,0.0,0.0,0.0,0.0,0.0,0.0,0.0,0.0,0.0,0.0,0.0,0.0,0.0,0.0,0.0,0.0,0.0,0.0,0.0,0.0,0.0,0.0,0.0,0.0,0.0,0.0,0.0,0.1734,0.1096,0.0672,0.0596,0.0556,0.0609,0.0,0.0,0.0,0.0,0.0,0.0,0.0,0.0,0.0,0.0,0.0,0.0,0.0,0.0,0.0,0.0,0.0,0.0,0.0,0.0,0.0,0.0,0.0,0.0,0.0,0.0,0.0,0.0,0.0,0.0,0.0,0.0,0.0,0.0,0.0,0.0,0.0,0.0,0.0,0.0,0.0,0.0,0.0,0.0,0.0,0.0,0.0,0.0,0.0,0.0,0.0,0.0,0.0,0.0,0.0,0.0,0.0,0.0,0.0,0.0,0.0,0.0,0.0,0.0,0.0,0.0,0.0,0.0,0.0,0.0,0.0,0.0,0.0,0.0,0.0,0.0,0.0,0.0,0.0,0.0,0.0,0.0,0.0,0.0,0.0,0.0,0.0,0.0,0.0,0.0,0.0,0.0,0.0,0.0,0.0,0.0,0.0,0.0,0.0,0.0,0.0,0.0,0.0,0.0,0.0,0.0,0.0,0.0,0.0,0.2122,0.1016,0.0485,0.0517,0.0328,0.0274,0.035,0.0,0.0,0.0,0.0,0.0,0.0,0.0,0.0,0.0,0.0,0.0,0.0,0.0,0.0,0.0,0.0,0.0,0.0,0.0,0.0,0.0,0.0,0.0,0.0,0.0,0.0,0.0,0.0,0.0,0.0,0.0,0.0,0.0,0.0,0.0,0.0,0.0,0.0,0.0,0.0,0.0,0.0,0.0,0.0,0.0,0.0,0.0,0.0,0.0,0.0,0.0,0.0,0.0,0.0,0.0,0.0,0.0,0.0,0.0,0.0,0.0,0.0,0.0,0.0,0.0,0.0,0.0,0.0,0.0,0.0,0.0,0.0,0.0,0.0,0.0,0.0,0.0,0.0,0.0,0.0,0.0,0.0,0.0,0.0,0.0,0.0,0.0,0.0,0.0,0.0,0.0,0.0,0.0,0.0,0.0,0.0,0.0,0.0,0.0,0.0,0.0,0.0,0.0,0.0,0.0,0.0,0.0,0.0,0.2189,0.0736,0.0204,0.0616,0.0211,0.0053,0.0,0.0,0.0,0.0,0.0,0.0,0.0,0.0,0.0,0.0,0.0,0.0,0.0,0.0,0.0,0.0,0.0,0.0,0.0,0.0,0.0,0.0,0.0,0.0,0.0,0.0,0.0,0.0,0.0,0.0,0.0,0.0,0.0,0.0,0.0,0.0,0.0,0.0,0.0,0.0,0.0,0.0,0.0,0.0,0.0,0.0,0.0,0.0,0.0,0.0,0.0,0.0,0.0,0.0,0.0,0.0,0.0,0.0,0.0,0.0,0.0,0.0,0.0,0.0,0.0,0.0,0.0,0.0,0.0,0.0,0.0,0.0,0.0,0.0,0.0,0.0,0.0,0.0,0.0,0.0,0.0,0.0,0.0,0.0,0.0,0.0,0.0,0.0,0.0,0.0,0.0,0.0,0.0,0.0,0.0,0.0,0.0,0.0,0.0,0.0,0.0,0.0,0.0,0.0,0.0,0.0,0.0,0.0,0.0,0.214,0.0781,0.0056,0.0176,0.0057,0.084,0.0,0.0,0.0,0.0,0.0,0.0,0.0,0.0,0.0,0.0,0.0,0.0,0.0,0.0,0.0,0.0,0.0,0.0,0.0,0.0,0.0,0.0,0.0,0.0,0.0,0.0,0.0,0.0,0.0,0.0,0.0,0.0,0.0,0.0,0.0,0.0,0.0,0.0,0.0,0.0,0.0,0.0,0.0,0.0,0.0,0.0,0.0,0.0,0.0,0.0,0.0,0.0,0.0,0.0,0.0,0.0,0.0,0.0,0.0,0.0,0.0,0.0,0.0,0.0,0.0,0.0,0.0,0.0,0.0,0.0,0.0,0.0,0.0,0.0,0.0,0.0,0.0,0.0,0.0,0.0,0.0,0.0,0.0,0.0,0.0,0.0,0.0,0.0,0.0,0.0,0.0,0.0,0.0,0.0,0.0,0.0,0.0,0.0,0.0,0.0,0.0,0.0,0.0,0.0,0.0,0.0,0.0,0.0,0.1895,0.1587,0.1699,0.1797,0.1823,0.0608,0.1114,0.0,0.0,0.0,0.0,0.0,0.0,0.0,0.0,0.0,0.0,0.0,0.0,0.0,0.0,0.0,0.0,0.0,0.0,0.0,0.0,0.0,0.0,0.0,0.0,0.0,0.0,0.0,0.0,0.0,0.0,0.0,0.0,0.0,0.0,0.0,0.0,0.0,0.0,0.0,0.0,0.0,0.0,0.0,0.0,0.0,0.0,0.0,0.0,0.0,0.0,0.0,0.0,0.0,0.0,0.0,0.0,0.0,0.0,0.0,0.0,0.0,0.0,0.0,0.0,0.0,0.0,0.0,0.0,0.0,0.0,0.0,0.0,0.0,0.0,0.0,0.0,0.0,0.0,0.0,0.0,0.0,0.0,0.0,0.0,0.0,0.0,0.0,0.0,0.0,0.0,0.0,0.0,0.0,0.0,0.0,0.0,0.0,0.0,0.0,0.0,0.0,0.0,0.0,0.0,0.0,0.0,0.0,0.0,0.2734,0.1006,0.2995,0.4102,0.4223,0.1612,0.1281,0.0,0.0,0.0,0.0,0.0,0.0,0.0,0.0,0.0,0.0,0.0,0.0,0.0,0.0,0.0,0.0,0.0,0.0,0.0,0.0,0.0,0.0,0.0,0.0,0.0,0.0,0.0,0.0,0.0,0.0,0.0,0.0,0.0,0.0,0.0,0.0,0.0,0.0,0.0,0.0,0.0,0.0,0.0,0.0,0.0,0.0,0.0,0.0,0.0,0.0,0.0,0.0,0.0,0.0,0.0,0.0,0.0,0.0,0.0,0.0,0.0,0.0,0.0,0.0,0.0,0.0,0.0,0.0,0.0,0.0,0.0,0.0,0.0,0.0,0.0,0.0,0.0,0.0,0.0,0.0,0.0,0.0,0.0,0.0,0.0,0.0,0.0,0.0,0.0,0.0,0.0,0.0,0.0,0.0,0.0,0.0,0.0,0.0,0.0,0.0,0.0,0.0,0.0,0.0,0.0,0.0,0.0,0.0,0.2879,0.2441,0.2514,0.3105,0.4276,0.2424,0.219,0.0,0.0,0.0,0.0,0.0,0.0,0.0,0.0,0.0,0.0,0.0,0.0,0.0,0.0,0.0,0.0,0.0,0.0,0.0,0.0,0.0,0.0,0.0,0.0,0.0,0.0,0.0,0.0,0.0,0.0,0.0,0.0,0.0,0.0,0.0,0.0,0.0,0.0,0.0,0.0,0.0,0.0,0.0,0.0,0.0,0.0,0.0,0.0,0.4271,0.0,0.0,0.0,0.0,0.0,0.0,0.0,0.0,0.0,0.0,0.0,0.0,0.0,0.0,0.0,0.0,0.0,0.0,0.0,0.0,0.0,0.0,0.0,0.0,0.0,0.0,0.0,0.0,0.0,0.0,0.0,0.0,0.0,0.0,0.0,0.0,0.0,0.0,0.0,0.0,0.0,0.0,0.0,0.0,0.0,0.0,0.0,0.0,0.0,0.0,0.0,0.0,0.0,0.0,0.0,0.0,0.0,0.0,0.0,0.3112,0.352,0.3303,0.3526,0.4225,0.3303,0.3177,0.0,0.0,0.0,0.0,0.0,0.0,0.0,0.0,0.0,0.0,0.0,0.0,0.0,0.0,0.0,0.0,0.0,0.0,0.0,0.0,0.0,0.0,0.0,0.0,0.0,0.0,0.0,0.0,0.0,0.0,0.0,0.0,0.0,0.0,0.0,0.0,0.0,0.0,0.0,0.0,0.0,0.0,0.0,0.0,0.0,0.0,0.0,0.0,0.0,0.0,0.0,0.0,0.0,0.0,0.0,0.0,0.0,0.0,0.0,0.0,0.0,0.0,0.0,0.0,0.0,0.0,0.0,0.0,0.0,0.0,0.0,0.0,0.0,0.0,0.0,0.0,0.0,0.0,0.0,0.0,0.0,0.0,0.0,0.0,0.0,0.0,0.0,0.0,0.0,0.0,0.0,0.0,0.0,0.0,0.0,0.0,0.0,0.0,0.0,0.0,0.0,0.0,0.0,0.0,0.0,0.0,0.0,0.317,0.3337,0.4244,0.4236,0.4215,0.4238,0.4026,0.3989,0.41,0.0,0.0,0.0,0.0,0.0,0.0,0.0,0.0,0.0,0.0,0.0,0.0,0.0,0.0,0.0,0.0,0.0,0.0,0.0,0.0,0.0,0.0,0.0,0.0,0.0,0.0,0.0,0.0,0.0,0.0,0.0,0.0,0.0,0.0,0.0,0.0,0.0,0.0,0.4144,0.4213,0.0,0.0,0.0,0.0,0.0,0.0,0.0,0.0,0.42,0.0,0.0,0.0,0.0,0.0,0.0,0.0,0.0,0.0,0.0,0.0,0.0,0.0,0.0,0.0,0.0,0.0,0.0,0.0,0.0,0.0,0.0,0.0,0.0,0.0,0.0,0.0,0.0,0.0,0.0,0.0,0.0,0.0,0.0,0.0,0.0,0.0,0.0,0.0,0.0,0.0,0.0,0.0,0.0,0.0,0.0,0.0,0.0,0.0,0.0,0.0,0.0,0.0,0.0,0.0,0.0,0.3587,0.3173,0.3419,0.4284,0.3969,0.3848,0.3928,0.3857,0.4002,0.4322,0.0,0.0,0.0,0.0,0.0,0.0,0.0,0.0,0.0,0.0,0.0,0.0,0.0,0.0,0.0,0.0,0.0,0.0,0.0,0.0,0.0,0.0,0.0,0.0,0.0,0.0,0.0,0.0,0.0,0.0,0.0,0.0,0.0,0.0,0.0,0.0,0.0,0.0,0.0,0.4372,0.4365,0.0,0.0,0.0,0.0,0.0,0.0,0.0,0.0,0.4929,0.0,0.0,0.0,0.0,0.0,0.0,0.0,0.0,0.0,0.0,0.0,0.0,0.0,0.0,0.0,0.0,0.0,0.0,0.0,0.0,0.0,0.0,0.0,0.0,0.0,0.0,0.0,0.0,0.0,0.0,0.0,0.0,0.0,0.0,0.0,0.0,0.0,0.0,0.0,0.0,0.0,0.0,0.0,0.0,0.0,0.0,0.0,0.0,0.0,0.0,0.0,0.0,0.0,0.0,0.0,0.3729,0.3492,0.3521,0.3643,0.3751,0.3808,0.3745,0.3757,0.3991,0.0,0.0,0.0,0.0,0.0,0.0,0.0,0.0,0.0,0.0,0.0,0.0,0.0,0.0,0.0,0.0,0.0,0.0,0.0,0.0,0.0,0.0,0.0,0.0,0.0,0.0,0.0,0.0,0.0,0.0,0.0,0.0,0.0,0.0,0.0,0.0,0.0,0.0,0.0,0.0,0.4365,0.433,0.4368,0.0,0.0,0.0,0.0,0.0,0.0,0.4356,0.4574,0.0,0.0,0.0,0.0,0.0,0.0,0.0,0.0,0.0,0.0,0.0,0.0,0.0,0.0,0.0,0.0,0.0,0.0,0.0,0.0,0.0,0.0,0.0,0.0,0.0,0.0,0.0,0.0,0.0,0.0,0.0,0.0,0.0,0.0,0.0,0.0,0.0,0.0,0.0,0.0,0.0,0.0,0.0,0.0,0.0,0.0,0.0,0.0,0.0,0.0,0.0,0.0,0.0,0.0,0.0,0.387,0.3757,0.3505,0.3136,0.3572,0.3743,0.3618,0.3712,0.3954,0.0,0.0,0.0,0.0,0.0,0.0,0.0,0.0,0.0,0.0,0.0,0.0,0.0,0.0,0.0,0.0,0.0,0.0,0.0,0.0,0.0,0.0,0.0,0.0,0.0,0.0,0.0,0.0,0.0,0.0,0.0,0.0,0.0,0.0,0.0,0.0,0.0,0.0,0.0,0.0,0.0,0.4249,0.4408,0.4356,0.0,0.0,0.0,0.0,0.4021,0.4101,0.0,0.0,0.0,0.0,0.0,0.0,0.0,0.0,0.0,0.0,0.0,0.0,0.0,0.0,0.0,0.0,0.0,0.0,0.0,0.0,0.0,0.0,0.0,0.0,0.0,0.0,0.0,0.0,0.0,0.0,0.0,0.0,0.0,0.0,0.0,0.0,0.0,0.0,0.0,0.0,0.0,0.0,0.0,0.0,0.0,0.0,0.0,0.0,0.0,0.0,0.0,0.0,0.0,0.0,0.0,0.0,0.375,0.3461,0.3242,0.3098,0.3332,0.3511,0.3623,0.361,0.3831,0.0,0.0,0.0,0.0,0.0,0.0,0.0,0.0,0.0,0.0,0.0,0.0,0.0,0.0,0.0,0.0,0.0,0.0,0.0,0.0,0.0,0.0,0.0,0.0,0.0,0.0,0.0,0.0,0.0,0.0,0.0,0.0,0.0,0.0,0.0,0.0,0.0,0.0,0.0,0.0,0.0,0.4193,0.4249,0.4353,0.446,0.0,0.0,0.4353,0.4076,0.4515,0.0,0.0,0.0,0.0,0.0,0.0,0.0,0.0,0.0,0.0,0.0,0.0,0.0,0.0,0.0,0.0,0.0,0.0,0.0,0.0,0.0,0.0,0.0,0.0,0.0,0.0,0.0,0.0,0.0,0.0,0.0,0.0,0.0,0.0,0.0,0.0,0.0,0.0,0.0,0.0,0.0,0.0,0.0,0.0,0.0,0.0,0.0,0.0,0.0,0.0,0.0,0.0,0.0,0.0,0.0,0.4359,0.3808,0.3579,0.3465,0.336,0.3471,0.353,0.3585,0.3585,0.3812,0.0,0.0,0.0,0.0,0.0,0.0,0.0,0.0,0.0,0.0,0.0,0.0,0.0,0.0,0.0,0.0,0.0,0.0,0.0,0.0,0.0,0.0,0.0,0.0,0.0,0.0,0.0,0.0,0.0,0.0,0.0,0.0,0.0,0.0,0.0,0.0,0.0,0.0,0.0,0.0,0.0,0.0,0.4135,0.4245,0.0,0.0,0.0,0.4442,0.4473,0.0,0.0,0.0,0.0,0.0,0.0,0.0,0.0,0.0,0.0,0.0,0.0,0.0,0.0,0.0,0.0,0.0,0.0,0.0,0.0,0.0,0.0,0.0,0.0,0.0,0.0,0.0,0.0,0.0,0.0,0.0,0.0,0.0,0.0,0.0,0.0,0.0,0.0,0.0,0.0,0.0,0.0,0.0,0.0,0.0,0.0,0.0,0.0,0.0,0.0,0.0,0.0,0.0,0.0,0.0,0.0,0.0,0.4232,0.3817,0.3585,0.3585,0.3585,0.3585,0.3585,0.3585,0.0,0.0,0.0,0.0,0.0,0.0,0.0,0.0,0.0,0.0,0.0,0.0,0.0,0.0,0.0,0.0,0.0,0.0,0.0,0.0,0.0,0.0,0.0,0.0,0.0,0.0,0.0,0.4181,0.0,0.0,0.0,0.0,0.0,0.0,0.0,0.0,0.0,0.0,0.0,0.0,0.0,0.0,0.48,0.4119,0.4263,0.4426,0.0,0.0,0.4826,0.5087,0.4609,0.4458,0.0,0.0,0.0,0.0,0.0,0.0,0.0,0.0,0.0,0.0,0.0,0.0,0.0,0.0,0.0,0.0,0.0,0.0,0.0,0.0,0.0,0.0,0.0,0.0,0.0,0.0,0.0,0.0,0.0,0.0,0.0,0.0,0.0,0.0,0.0,0.0,0.0,0.0,0.0,0.0,0.0,0.0,0.0,0.0,0.0,0.0,0.0,0.0,0.0,0.0,0.0,0.0,0.0,0.0,0.0,0.5069,0.4101,0.3585,0.3585,0.3585,0.3585,0.3585,0.3585,0.3694,0.0,0.0,0.0,0.0,0.0,0.0,0.0,0.0,0.0,0.0,0.0,0.0,0.0,0.0,0.0,0.0,0.0,0.0,0.0,0.0,0.0,0.0,0.0,0.0,0.0,0.0,0.0,0.0,0.0,0.0,0.0,0.0,0.0,0.0,0.0,0.0,0.0,0.0,0.0,0.0,0.0,0.4718,0.4264,0.4644,0.5071,0.0,0.0,0.5742,0.5848,0.5308,0.4973,0.5254,0.0,0.0,0.0,0.0,0.0,0.0,0.0,0.0,0.0,0.0,0.0,0.0,0.0,0.0,0.0,0.0,0.0,0.0,0.0,0.0,0.0,0.0,0.0,0.0,0.0,0.0,0.0,0.0,0.0,0.0,0.0,0.0,0.0,0.0,0.0,0.0,0.0,0.0,0.0,0.0,0.0,0.0,0.0,0.0,0.0,0.0,0.0,0.0,0.0,0.0,0.0,0.0,0.0,0.5679,0.5193,0.4158,0.3585,0.3585,0.3585,0.3585,0.3585,0.3585,0.3694,0.0,0.0,0.0,0.0,0.0,0.0,0.0,0.0,0.0,0.0,0.0,0.0,0.0,0.0,0.0,0.0,0.0,0.0,0.0,0.0,0.0,0.0,0.0,0.0,0.0,0.0,0.0,0.0,0.5117,0.5007,0.5007,0.0,0.0,0.0,0.0,0.0,0.0,0.0,0.0,0.0,0.0,0.466,0.4114,0.4556,0.0,0.0,0.5695,0.6164,0.6587,0.5852,0.5505,0.6182,0.5656,0.0,0.0,0.0,0.0,0.0,0.0,0.0,0.0,0.0,0.0,0.0,0.0,0.0,0.0,0.0,0.0,0.0,0.0,0.0,0.0,0.0,0.0,0.0,0.0,0.0,0.0,0.0,0.0,0.0,0.0,0.0,0.0,0.0,0.0,0.0,0.0,0.0,0.0,0.0,0.0,0.0,0.0,0.0,0.0,0.0,0.0,0.0,0.0,0.0,0.0,0.0,0.0,0.5888,0.5632,0.4333,0.3618,0.3585,0.3615,0.3618,0.3585,0.3585,0.3694,0.0,0.0,0.0,0.0,0.0,0.0,0.0,0.0,0.0,0.0,0.0,0.0,0.0,0.0,0.0,0.0,0.0,0.0,0.0,0.0,0.0,0.0,0.0,0.0,0.0,0.0,0.0,0.0,0.5664,0.5601,0.576,0.0,0.0,0.0,0.0,0.0,0.0,0.0,0.0,0.0,0.0,0.4986,0.4406,0.5061,0.5666,0.5844,0.6311,0.6801,0.7355,0.6579,0.6182,0.691,0.0,0.0,0.0,0.0,0.0,0.0,0.0,0.0,0.0,0.0,0.0,0.0,0.0,0.0,0.0,0.0,0.0,0.0,0.0,0.0,0.0,0.0,0.0,0.0,0.0,0.0,0.0,0.5695,0.0,0.0,0.6014,0.0,0.0,0.0,0.0,0.0,0.0,0.0,0.0,0.0,0.0,0.0,0.0,0.0,0.0,0.0,0.0,0.0,0.0,0.0,0.0,0.0,0.0,0.5705,0.6617,0.4763,0.3754,0.3593,0.3749,0.3694,0.3591,0.3585,0.3697,0.3931,0.0,0.0,0.0,0.0,0.0,0.0,0.0,0.0,0.0,0.0,0.0,0.0,0.0,0.0,0.0,0.0,0.0,0.0,0.0,0.0,0.0,0.0,0.0,0.0,0.0,0.0,0.7047,0.6539,0.6312,0.0,0.0,0.0,0.0,0.0,0.0,0.0,0.0,0.0,0.0,0.5667,0.5811,0.5304,0.6305,0.7084,0.7404,0.7598,0.7827,0.8108,0.7451,0.6998,0.0,0.0,0.0,0.0,0.0,0.0,0.0,0.0,0.0,0.0,0.0,0.0,0.0,0.0,0.0,0.0,0.0,0.0,0.0,0.0,0.0,0.0,0.0,0.0,0.0,0.0,0.0,0.5581,0.5826,0.0,0.0,0.0,0.0,0.0,0.0,0.0,0.0,0.0,0.0,0.0,0.4549,0.4613,0.0,0.0,0.0,0.0,0.0,0.0,0.0,0.0,0.0,0.0,0.0,0.0,0.632,0.6664,0.4856,0.3816,0.382,0.3793,0.3699,0.3591,0.3585,0.3793,0.4239,0.0,0.0,0.0,0.0,0.0,0.0,0.0,0.0,0.0,0.0,0.0,0.0,0.0,0.0,0.0,0.0,0.0,0.0,0.0,0.0,0.0,0.0,0.0,0.0,0.0,0.7104,0.0,0.0,0.0,0.0,0.0,0.0,0.0,0.0,0.0,0.0,0.0,0.625,0.5484,0.5369,0.5356,0.5335,0.6408,0.7242,0.0,0.0,0.0,0.0,0.0,0.0,0.0,0.0,0.0,0.0,0.0,0.0,0.0,0.0,0.4905,0.4393,0.3409,0.254,0.2128,0.0,0.0,0.0,0.0,0.0,0.0,0.0,0.0,0.0,0.0,0.0,0.0,0.0,0.0,0.5521,0.0,0.5826,0.0,0.0,0.0,0.0,0.0,0.0,0.0,0.0,0.3493,0.3285,0.413,0.3721,0.3655,0.0,0.4182,0.435,0.0,0.0,0.0,0.0,0.0,0.0,0.0,0.0,0.6289,0.6641,0.4915,0.3939,0.3887,0.3917,0.3827,0.3713,0.3789,0.4047,0.4374,0.4622,0.4845,0.0,0.0,0.0,0.0,0.0,0.0,0.0,0.0,0.0,0.0,0.0,0.0,0.0,0.0,0.0,0.0,0.0,0.0,0.0,0.0,0.0,0.0,0.0,0.7167,0.0,0.0,0.0,0.0,0.0,0.0,0.0,0.0,0.0,0.7395,0.6962,0.672,0.6283,0.5895,0.5762,0.6219,0.0,0.0,0.0,0.0,0.0,0.0,0.0,0.7759,0.7785,0.702,0.6359,0.6329,0.5536,0.4782,0.4662,0.0,0.0,0.2481,0.192,0.1331,0.0637,0.0825,0.1075,0.0748,0.1565,0.2313,0.0,0.0,0.0,0.0,0.0,0.0,0.0,0.0,0.4148,0.4732,0.0,0.5849,0.0,0.0,0.0,0.0,0.4567,0.3445,0.0,0.0,0.2498,0.2355,0.2632,0.2774,0.3046,0.3402,0.3962,0.4173,0.4242,0.4357,0.0,0.0,0.0,0.0,0.0,0.0,0.5675,0.6498,0.4977,0.4075,0.3958,0.4061,0.4061,0.388,0.41,0.4306,0.4344,0.4779,0.5067,0.4963,0.5949,0.0,0.0,0.0,0.0,0.0,0.0,0.0,0.0,0.0,0.0,0.0,0.0,0.0,0.0,0.0,0.0,0.0,0.0,0.0,0.0,0.7364,0.0,0.0,0.0,0.0,0.0,0.0,0.0,0.0,0.0,0.0,0.8367,0.75,0.7077,0.7478,0.0,0.0,0.0,0.0,0.8463,0.8544,0.8468,0.827,0.7735,0.755,0.7333,0.6579,0.0,0.0,0.5803,0.5301,0.4886,0.4623,0.3836,0.2615,0.124,0.1282,0.099,-0.0507,-0.0281,0.0137,0.0488,0.1197,0.2045,0.4718,0.0,0.0,0.0,0.0,0.4055,0.4092,0.4662,0.4319,0.4401,0.4614,0.4891,0.0,0.0,0.0,0.0,0.0,0.0,0.2362,0.4158,0.2611,0.2338,0.3278,0.3106,0.3113,0.3321,0.3783,0.4062,0.4216,0.4349,0.464,0.5104,0.0,0.0,0.0,0.0,0.5748,0.6165,0.5121,0.4401,0.4202,0.423,0.4089,0.3709,0.3723,0.4092,0.4803,0.4838,0.4735,0.4561,0.5566,0.0,0.0,0.0,0.0,0.0,0.0,0.0,0.0,0.0,0.0,0.0,0.0,0.0,0.0,0.0,0.0,0.0,0.0,0.0,0.6835,0.6613,0.6626,0.0,0.0,0.0,0.0,0.0,0.0,0.0,0.0,0.0,0.9398,0.8722,0.7924,0.0,0.0,0.7112,0.7583,0.7896,0.827,0.8911,0.8451,0.0,0.7749,0.7163,0.6676,0.641,0.6179,0.5833,0.5135,0.4911,0.4795,0.5061,0.4541,0.3937,0.3473,0.2236,0.1233,0.0742,0.0824,0.0966,0.1016,0.148,0.1953,0.4412,0.4029,0.4187,0.4515,0.4879,0.4307,0.4218,0.4426,0.4281,0.4316,0.4515,0.4313,0.4445,0.481,0.4247,0.0,0.0,0.0,0.2372,0.3374,0.2121,0.2001,0.2863,0.2972,0.313,0.3421,0.3906,0.4199,0.4457,0.452,0.4689,0.5114,0.0,0.0,0.6631,0.6167,0.5942,0.6101,0.5208,0.4562,0.4312,0.3174,0.3006,0.3855,0.3309,0.2986,0.2988,0.3578,0.3699,0.3446,0.4746,0.543,0.0,0.0,0.0,0.0,0.0,0.0,0.0,0.0,0.0,0.0,0.0,1.0485,0.0,0.0,0.0,0.0,0.7943,0.6992,0.6175,0.6141,0.0,0.0,0.0,0.0,0.0,0.0,0.0,0.7851,0.8651,0.9114,0.8877,0.8575,0.8169,0.7604,0.7273,0.7174,0.7461,0.0,0.7554,0.8082,0.7628,0.7137,0.6865,0.6304,0.5791,0.5515,0.5299,0.5032,0.467,0.4566,0.467,0.5106,0.4888,0.4718,0.4905,0.3885,0.27,0.1906,0.1935,0.1934,0.1806,0.2133,0.2441,0.3832,0.312,0.3857,0.4302,0.4495,0.4996,0.4825,0.4265,0.4118,0.4585,0.5328,0.4304,0.4119,0.4663,0.3913,0.0,0.0809,0.25,0.2645,0.1425,0.1346,0.1622,0.2113,0.2591,0.3056,0.3503,0.4186,0.4543,0.4822,0.482,0.5091,0.5631,0.5945,0.6486,0.7232,0.6462,0.6077,0.6159,0.5143,0.4457,0.4107,0.1441,0.1247,0.3869,0.2627,0.131,0.0146,0.145,0.219,0.2034,0.3595,0.4693,0.5012,0.0,0.0,0.0,0.0,0.0,0.0,0.0,0.0,0.0,0.0,0.0,0.0,0.0,0.0,0.0,0.7637,0.0,0.5599,0.5779,0.0,0.0,0.0,0.6414,0.7261,0.6965,0.6902,0.7492,0.0,0.0,0.7464,0.7609,0.7995,0.8694,0.7763,0.7134,0.7306,0.7013,0.6691,0.6765,0.6441,0.6011,0.5603,0.5177,0.4786,0.438,0.4232,0.445,0.4525,0.4525,0.4668,0.5129,0.5039,0.5208,0.5726,0.5902,0.5401,0.337,0.3149,0.3312,0.3303,0.3341,0.3585,0.3723,0.3485,0.3285,0.3295,0.336,0.3272,0.3538,0.4091,0.4666,0.4913,0.4984,0.5135,0.4444,0.3228,0.2963,0.2752,0.2535,0.2025,0.1997,0.2197,0.1696,0.1979,0.3087,0.2976,0.3214,0.3819,0.4514,0.495,0.5019,0.5303,0.5543,0.5654,0.5901,0.6025,0.6127,0.5837,0.5695,0.5687,0.3729,0.2804,0.2882,0.1037,0.0288,0.1001,0.0651,0.0368,-0.0,0.0386,0.0549,0.0549,0.2737,0.4256,0.4901,0.5787,0.0,0.0,0.0,0.0,0.0,0.0,0.0,0.0,0.0,1.2418,1.1977,0.0,0.9588,0.0,0.6884,0.619,0.5688,0.5704,0.0,0.0,0.6086,0.6041,0.5941,0.6485,0.6866,0.7073,0.7036,0.7047,0.6915,0.7298,0.7383,0.6927,0.6708,0.6693,0.6854,0.6583,0.6471,0.686,0.6332,0.5798,0.5474,0.4819,0.4301,0.4529,0.4764,0.5018,0.5365,0.5461,0.5626,0.6071,0.5798,0.6127,0.7385,0.8093,0.8028,0.7024,0.616,0.5624,0.5864,0.533,0.5033,0.2785,0.2666,0.2381,0.2304,0.2363,0.2653,0.3021,0.3374,0.4178,0.4509,0.4457,0.4884,0.4006,0.2103,0.1435,0.1529,0.2225,0.0733,0.0501,0.1317,0.088,0.1074,0.1841,0.1973,0.2587,0.3514,0.4101,0.4831,0.5615,0.5859,0.5904,0.6055,0.6208,0.5654,0.4444,0.4835,0.4745,0.4109,0.2543,0.1878,0.1975,0.1089,0.0379,0.0076,0.0899,0.113,0.0623,0.1094,0.1332,0.1334,0.3716,0.5018,0.4949,0.5795,0.6369,0.0,0.0,0.0,0.0,0.0,0.0,0.0,0.0,0.0,0.0,0.0,0.902,0.7406,0.6776,0.6331,0.5957,0.5701,0.5643,0.579,0.5779,0.5709,0.5434,0.5957,0.6322,0.627,0.6096,0.5912,0.5938,0.6234,0.624,0.5705,0.5714,0.5848,0.5838,0.5617,0.5628,0.6068,0.5555,0.502,0.487,0.4217,0.3968,0.4377,0.4626,0.4924,0.5377,0.5517,0.5803,0.6321,0.6152,0.6452,0.8207,0.9341,0.9716,0.9162,0.8271,0.7461,0.6874,0.6354,0.6062,0.1565,0.1538,0.1638,0.1541,0.1536,0.2589,0.277,0.2375,0.3334,0.3808,0.3887,0.4034,0.3089,0.1189,-0.0085,-0.0085,0.0677,-0.0845,-0.1211,-0.0541,-0.0632,-0.0554,-0.0288,0.0196,0.1293,0.2727,0.314,0.4298,0.6132,0.6238,0.629,0.6396,0.6382,0.5131,0.2819,0.3707,0.351,0.2134,0.1614,0.1406,0.1397,0.1313,0.096,0.0325,0.2175,0.2704,0.1689,0.245,0.2896,0.3064,0.5124,0.5943,0.514,0.605,0.6627,0.0,0.7286,0.0,0.0,0.0,0.0,0.0,0.0,0.0,0.0,1.0654,0.8316,0.7064,0.6859,0.6637,0.6186,0.5717,0.5377,0.5393,0.5488,0.547,0.5483,0.5662,0.5615,0.5407,0.5202,0.5004,0.5059,0.5026,0.5018,0.5015,0.5065,0.5018,0.4855,0.485,0.4868,0.4681,0.453,0.441,0.4056,0.376,0.3724,0.4199,0.4485,0.4632,0.5196,0.5557,0.5904,0.6339,0.6435,0.6915,0.8394,0.9844,1.0567,0.9974,0.9507,0.8881,0.7563,0.6829,0.652,0.1628,0.1602,0.2132,0.2024,0.1697,0.2695,0.2647,0.1807,0.2761,0.3212,0.3348,0.323,0.2176,0.0619,0.0261,-0.0609,-0.1676,-0.1911,-0.2314,-0.2822,-0.2256,-0.1727,-0.1293,-0.1317,-0.0307,0.1439,0.1669,0.3162,0.5728,0.6152,0.6524,0.6627,0.5289,0.3908,0.2725,0.0,0.0,0.0,0.1129,0.1476,0.1427,0.1364,0.1249,0.1085,0.2989,0.0,0.3321,0.2283,0.2278,0.3544,0.4494,0.0,0.0,0.0,0.0,0.0,0.0,0.0,0.0,0.0,0.0,0.0,0.6627,0.7669,0.9779,0.8483,0.7476,0.7461,0.6513,0.5862,0.5838,0.5521,0.5409,0.5504,0.5451,0.5502,0.5684,0.57,0.5654,0.562,0.5244,0.5046,0.5092,0.5075,0.5018,0.5021,0.4931,0.4863,0.4844,0.489,0.4901,0.4822,0.4572,0.4312,0.4088,0.3859,0.402,0.4705,0.5173,0.5612,0.6191,0.6726,0.6976,0.7029,0.7135,0.7553,0.8551,1.006,1.0768,0.9478,0.9802,1.0136,0.9351,0.8048,0.7023,0.2477,0.256,0.2788,0.2783,0.0,0.2938,0.3196,0.3138,0.2942,0.2424,0.1711,0.1507,0.0649,-0.0818,-0.0888,-0.1593,-0.2867,-0.2952,-0.3018,-0.3045,-0.269,-0.2351,-0.2013,-0.2336,-0.1646,-0.0105,-0.0314,0.0738,0.2684,0.3764,0.4482,0.473,0.4416,0.3543,0.2254,0.1826,0.1301,0.0785,0.1252,0.1511,0.1479,0.1422,0.1383,0.1365,0.2671,0.0,0.0,0.0,0.0,0.0,0.0,0.0,0.0,0.6472,0.0,0.677,0.6421,0.6213,0.6164,0.5899,0.5494,0.5136,0.4771,0.5184,0.6645,0.6117,0.5946,0.6468,0.5964,0.5714,0.5975,0.5892,0.5742,0.5804,0.564,0.5579,0.5722,0.5738,0.5692,0.5575,0.5458,0.5022,0.4045,0.4644,0.4977,0.501,0.4924,0.4923,0.4917,0.4868,0.4825,0.4833,0.4662,0.4481,0.4219,0.3995,0.4108,0.5024,0.5309,0.5752,0.6549,0.6913,0.704,0.7131,0.7305,0.7795,0.856,0.9729,1.0429,0.9869,0.9632,0.9468,0.9163,0.7974,0.6947,0.3117,0.3109,0.321,0.321,0.3206,0.3355,0.3939,0.4647,0.0,0.0,0.0,-0.0096,-0.1042,-0.2228,-0.254,-0.3156,-0.3904,-0.4127,-0.383,-0.316,-0.3113,-0.2971,-0.2822,-0.3337,-0.2985,-0.2014,-0.2629,-0.234,-0.1095,0.011,0.131,0.2362,0.3222,0.2975,0.1766,0.1632,0.1617,0.1615,0.147,0.144,0.1525,0.1564,0.1427,0.1308,0.1997,0.2517,0.2928,0.4062,0.4729,0.4828,0.5987,0.6572,0.6404,0.6728,0.6956,0.6844,0.6125,0.5405,0.4957,0.4681,0.4482,0.4279,0.3635,0.3471,0.4204,0.4198,0.4376,0.5179,0.5181,0.5447,0.6163,0.5899,0.5725,0.5905,0.5638,0.5463,0.5466,0.5652,0.5531,0.5165,0.4725,0.4231,0.295,0.3741,0.4533,0.4591,0.4765,0.5018,0.4996,0.4866,0.4792,0.4868,0.4717,0.4618,0.4465,0.4151,0.4344,0.537,0.5433,0.5607,0.6546,0.6769,0.6809,0.7041,0.7285,0.7685,0.825,0.9022,0.9549,0.9755,0.8988,0.8228,0.7931,0.7192,0.6493,0.2,0.1972,0.259,0.3003,0.3309,0.4163,0.4634,0.4636,0.262,0.1596,0.1273,-0.0585,-0.212,-0.3306,-0.4162,-0.5187,-0.631,-0.5668,-0.5368,-0.5359,-0.4694,-0.4451,-0.4433,-0.4608,-0.4802,-0.4908,-0.5263,-0.5274,-0.48,-0.4516,-0.2639,0.067,0.0668,0.087,0.1667,0.1633,0.1617,0.1617,0.1609,0.1579,0.1527,0.1492,0.1369,0.1427,0.1431,0.1968,0.2997,0.3265,0.3496,0.388,0.5413,0.6148,0.5814,0.6398,0.6806,0.696,0.5896,0.4684,0.3584,0.4574,0.4934,0.4,0.318,0.3115,0.4121,0.3749,0.3749,0.4378,0.4293,0.4472,0.5361,0.4648,0.4385,0.501,0.4743,0.4478,0.4567,0.5116,0.5025,0.3565,0.1751,0.1554,0.2496,0.2825,0.2828,0.3071,0.3903,0.4945,0.4857,0.4991,0.4974,0.4988,0.5004,0.4859,0.4623,0.4465,0.4804,0.5969,0.5881,0.6051,0.7183,0.7155,0.7064,0.713,0.7203,0.7238,0.7246,0.7778,0.7986,0.7439,0.7283,0.7355,0.6736,0.6012,0.5422,0.2688,0.2777,0.3201,0.3713,0.4304,0.4591,0.4431,0.3729,0.1627,0.0711,0.0705,-0.0798,-0.247,-0.4307,-0.5086,-0.57,-0.6081,-0.5713,-0.5417,-0.5068,-0.4321,-0.396,-0.3997,-0.438,-0.465,-0.4807,-0.4854,-0.4863,-0.4711,-0.4404,-0.2664,0.0115,0.0673,0.1191,0.1665,0.1632,0.1617,0.1617,0.1617,0.1596,0.1552,0.1426,0.139,0.1436,0.1638,0.2271,0.343,0.39,0.4557,0.5424,0.635,0.6593,0.6135,0.6461,0.6641,0.6368,0.5402,0.4342,0.3273,0.3877,0.4029,0.3437,0.3023,0.2967,0.3499,0.3133,0.3132,0.3844,0.358,0.3758,0.4645,0.4202,0.3937,0.4385,0.4115,0.3939,0.3939,0.3855,0.3587,0.2862,0.1232,0.0349,0.1236,0.118,0.1145,0.1314,0.2568,0.3686,0.4068,0.4623,0.5018,0.5018,0.5018,0.4937,0.4701,0.4621,0.4902,0.5619,0.5597,0.5999,0.7041,0.719,0.7135,0.7174,0.7207,0.7003,0.6626,0.6931,0.6961,0.6787,0.6339,0.6303,0.5854,0.5237,0.4704,0.3169,0.3167,0.3375,0.3882,0.4568,0.4198,0.3641,0.2857,0.0512,-0.0518,-0.0733,-0.2054,-0.3662,-0.5086,-0.6085,-0.6279,-0.6024,-0.5709,-0.5293,-0.4562,-0.3724,-0.3342,-0.324,-0.36,-0.3735,-0.3764,-0.3325,-0.3178,-0.3223,-0.279,-0.1759,-0.0235,0.1123,0.1727,0.1682,0.1645,0.1624,0.1618,0.1617,0.1603,0.1572,0.1446,0.1407,0.1448,0.185,0.2673,0.3906,0.4737,0.5748,0.6958,0.7346,0.717,0.6409,0.6526,0.6351,0.5739,0.4953,0.4148,0.3423,0.3417,0.3361,0.3249,0.3132,0.3077,0.3066,0.278,0.278,0.3135,0.2868,0.2955,0.3755,0.3491,0.3401,0.358,0.3312,0.3044,0.3042,0.2508,0.224,0.2325,0.1149,0.0176,-0.0,-0.0,-0.0,-0.0,0.113,0.2131,0.3054,0.4229,0.5098,0.5096,0.5015,0.494,0.4781,0.4701,0.4929,0.5395,0.5396,0.595,0.6824,0.6974,0.6907,0.7072,0.7075,0.685,0.6388,0.6471,0.6536,0.635,0.5966,0.5586,0.5603,0.5081,0.4495,0.1969,0.1963,0.1938,0.2346,0.2968,0.2255,0.2158,0.2102,-0.0307,-0.1885,-0.286,-0.5878,-0.665,-0.6215,-0.766,-0.7998,-0.7477,-0.6382,-0.5572,-0.5068,-0.4005,-0.3298,-0.2977,-0.2556,-0.2364,-0.2296,-0.158,-0.1156,-0.1174,-0.1085,-0.0608,0.0359,0.1355,0.1748,0.1843,0.1686,0.1645,0.1618,0.1617,0.1603,0.1572,0.1542,0.1415,0.1385,0.1865,0.2884,0.4588,0.531,0.6091,0.7071,0.7906,0.7638,0.6207,0.5979,0.6013,0.5945,0.47,0.3953,0.3919,0.397,0.39,0.3815,0.3752,0.359,0.3507,0.3317,0.296,0.2512,0.1883,0.2062,0.2777,0.2241,0.2151,0.2777,0.2241,0.1615,0.1704,0.1525,0.1525,0.1525,0.1073,0.0447,-0.0,-0.0,-0.0,-0.0,0.0326,0.1123,0.2523,0.4003,0.5107,0.5093,0.509,0.5015,0.494,0.494,0.5168,0.578,0.5928,0.613,0.6652,0.6816,0.6689,0.7026,0.6912,0.671,0.6409,0.6311,0.6166,0.5793,0.5522,0.5455,0.5402,0.5333,0.5089,0.1793,0.1776,0.1763,0.2171,0.2659,0.1989,0.1575,0.1169,-0.1282,-0.2956,-0.4412,-0.8106,-0.884,-0.7111,-0.8285,-0.8505,-0.7905,-0.7314,-0.615,-0.4484,-0.3125,-0.2164,-0.173,-0.1529,-0.0991,-0.0222,0.0687,0.1056,0.1191,0.1208,0.1441,0.1755,0.1806,0.1768,0.1748,0.1708,0.1681,0.1669,0.2476,0.2451,0.1716,0.1558,0.1997,0.301,0.2898,0.3638,0.5085,0.5497,0.6025,0.6962,0.6976,0.6317,0.5146,0.5129,0.5237,0.5285,0.4755,0.4397,0.4429,0.4501,0.4426,0.4296,0.4256,0.4181,0.4049,0.3944,0.3678,0.305,0.2063,0.1615,0.1973,0.1614,0.1614,0.1883,0.1614,0.1436,0.1436,0.1436,0.1436,0.1346,0.1256,0.1076,0.0805,0.0529,0.043,0.0417,0.0411,0.0973,0.2324,0.3328,0.3767,0.3995,0.3915,0.4384,0.5012,0.4935,0.4932,0.5004,0.5082,0.5315,0.616,0.6857,0.7015,0.7173,0.7084,0.6703,0.6177,0.601,0.5849,0.5494,0.5299,0.5252,0.5422,0.5533,0.5464,0.1815,0.1795,0.1786,0.2082,0.2452,0.2022,0.1177,0.0108,-0.2319,-0.3965,-0.5348,-0.9374,-0.9954,-0.8232,-0.8851,-0.9027,-0.8362,-0.7291,-0.575,-0.3713,-0.1646,-0.044,-0.022,-0.0,0.0563,0.1584,0.2328,0.2861,0.2898,0.2881,0.2846,0.2674,0.2159,0.1784,0.1871,0.2056,0.2245,0.2338,0.3552,0.3619,0.267,0.2464,0.346,0.5377,0.4461,0.4552,0.6099,0.5737,0.5825,0.6641,0.6102,0.542,0.4587,0.4664,0.4747,0.4734,0.48,0.4832,0.4832,0.4832,0.4769,0.463,0.4589,0.4506,0.4373,0.432,0.4127,0.3588,0.2614,0.1991,0.1629,0.162,0.1618,0.1445,0.1442,0.1436,0.1615,0.1615,0.1615,0.1615,0.1615,0.1525,0.1343,0.1063,0.0871,0.0853,0.0839,0.1238,0.2298,0.2671,0.2882,0.3112,0.3259,0.3702,0.4704,0.4696,0.4384,0.454,0.4618,0.516,0.5684,0.6294,0.6762,0.6601,0.69,0.6988,0.6402,0.6146,0.5864,0.5525,0.5322,0.5342,0.5553,0.5759,0.5981,0.1796,0.1791,0.1763,0.1843,0.1811,0.1705,0.0868,-0.0558,-0.3019,-0.4709,-0.609,-0.9436,-1.0048,-0.8242,-0.9249,-0.9738,-0.8954,-0.5464,-0.3765,-0.307,0.0555,0.2013,0.1232,0.2159,0.2634,0.2875,0.3546,0.3873,0.3803,0.3348,0.2849,0.2874,0.2294,0.1906,0.2121,0.2967,0.3461,0.3629,0.4711,0.5064,0.473,0.4587,0.6076,0.8236,0.6421,0.5665,0.7092,0.6247,0.5677,0.5682,0.5769,0.5446,0.4774,0.4795,0.4839,0.4812,0.483,0.4832,0.4832,0.4832,0.4794,0.4706,0.4624,0.4534,0.444,0.4371,0.4154,0.3683,0.3477,0.3049,0.2404,0.2186,0.1995,0.1653,0.1451,0.1707,0.2064,0.2154,0.2155,0.2154,0.2153,0.1973,0.1525,0.1435,0.1418,0.1399,0.1388,0.1634,0.2277,0.2679,0.2914,0.323,0.3435,0.3612,0.3388,0.3936,0.4323,0.4499,0.4912,0.5565,0.5511,0.5481,0.5797,0.5943,0.6194,0.6359,0.6521,0.6412,0.6207,0.593,0.5658,0.5655,0.5885,0.6164,0.6397,0.1812,0.1792,0.1763,0.1732,0.1707,0.1725,0.1207,0.0112,-0.206,-0.377,-0.5328,-0.842,-0.9225,-0.8263,-0.7752,-0.7748,-0.7751,-0.3407,-0.0563,0.0889,0.2791,0.3601,0.3524,0.3888,0.4409,0.4965,0.5264,0.5095,0.4658,0.5139,0.4956,0.4237,0.4107,0.4137,0.4244,0.4668,0.4968,0.5043,0.6248,0.6474,0.5656,0.6455,0.6948,0.6457,0.5506,0.5135,0.5708,0.5232,0.4948,0.495,0.5045,0.4995,0.47,0.4759,0.48,0.4828,0.4832,0.4832,0.4832,0.4832,0.4798,0.4718,0.4681,0.4618,0.4538,0.4493,0.4382,0.4295,0.4217,0.3976,0.3428,0.2986,0.266,0.2486,0.2362,0.2424,0.2599,0.2599,0.2599,0.2689,0.2689,0.251,0.2331,0.2063,0.1879,0.1865,0.1667,0.1649,0.1719,0.1869,0.2108,0.2096,0.2146,0.2361,0.2958,0.3632,0.4172,0.4451,0.4789,0.5137,0.5165,0.5463,0.573,0.573,0.5736,0.6081,0.6329,0.6345,0.6159,0.6133,0.592,0.5999,0.6335,0.6533,0.6787,0.1808,0.1778,0.1748,0.2046,0.2455,0.282,0.2655,0.1922,0.0234,-0.1081,-0.2556,-0.5061,-0.56,-0.4829,-0.4521,-0.424,-0.3764,-0.0567,0.2602,0.576,0.6391,0.674,0.6927,0.6541,0.6766,0.7267,0.6998,0.6218,0.5147,0.5973,0.5768,0.4808,0.5225,0.5361,0.5472,0.581,0.5924,0.6128,0.7027,0.7336,0.7109,0.7398,0.6746,0.5114,0.471,0.485,0.5045,0.485,0.4657,0.4657,0.4657,0.4685,0.4749,0.4804,0.4832,0.4834,0.4935,0.4935,0.4834,0.4834,0.4912,0.4755,0.4722,0.4677,0.462,0.4589,0.4573,0.4575,0.4701,0.455,0.4179,0.3828,0.3394,0.3197,0.2962,0.3018,0.3197,0.3181,0.3162,0.3145,0.298,0.289,0.2872,0.2601,0.2422,0.2423,0.2123,0.1931,0.1838,0.1824,0.1806,0.1802,0.1776,0.2028,0.2464,0.312,0.3844,0.4181,0.4663,0.4958,0.4872,0.5251,0.5409,0.5405,0.564,0.5977,0.6156,0.6179,0.6138,0.6136,0.6087,0.6158,0.6533,0.6899,0.7078,0.1779,0.1862,0.1825,0.2562,0.3846,0.5216,0.5447,0.5034,0.4411,0.3633,0.2538,0.0843,0.106,0.2082,0.0464,0.0694,0.2944,0.3363,0.5645,0.9766,1.0743,1.1003,1.0945,0.9717,0.9146,0.9322,0.8368,0.6888,0.5161,0.5735,0.5641,0.502,0.5338,0.5586,0.5472,0.5924,0.6262,0.6465,0.7043,0.8018,0.9286,0.7531,0.595,0.4939,0.4816,0.5114,0.5824,0.512,0.481,0.4816,0.4818,0.4828,0.4822,0.4832,0.4832,0.4834,0.5037,0.5037,0.4935,0.5037,0.5035,0.4914,0.4759,0.4718,0.4702,0.4643,0.46,0.4614,0.4665,0.4714,0.4716,0.4606,0.4203,0.3422,0.3255,0.3407,0.3779,0.374,0.3673,0.3622,0.3378,0.3021,0.298,0.2969,0.297,0.2959,0.286,0.2765,0.2674,0.2666,0.2768,0.2757,0.2444,0.233,0.2443,0.2635,0.3308,0.3878,0.4508,0.4958,0.4379,0.4411,0.4604,0.4642,0.5334,0.5676,0.6565,0.657,0.6313,0.6294,0.6253,0.6352,0.6684,0.7065,0.7313,0.2013,0.2334,0.1967,0.2925,0.4876,0.7816,0.9099,0.9184,1.0332,1.0059,0.8527,0.7475,0.7231,0.746,0.6768,0.7624,0.9564,1.0077,1.0474,1.0486,1.0425,1.0433,1.0312,0.9945,0.9456,0.8944,0.7936,0.7126,0.6607,0.7393,0.7161,0.5832,0.6134,0.6379,0.6149,0.6035,0.6146,0.6586,0.6887,0.7663,0.8338,0.7086,0.5813,0.4949,0.4832,0.4935,0.5135,0.4935,0.4834,0.4832,0.4832,0.4832,0.4832,0.4832,0.4834,0.5037,0.5138,0.5238,0.5336,0.5238,0.524,0.5033,0.4908,0.4798,0.4796,0.4767,0.4745,0.4749,0.4881,0.4997,0.5096,0.4997,0.4771,0.4322,0.4146,0.4104,0.4292,0.4362,0.4303,0.4147,0.41,0.4109,0.4145,0.3935,0.3732,0.3774,0.3499,0.3229,0.3136,0.3135,0.2867,0.2861,0.2734,0.2801,0.3092,0.3183,0.3371,0.3787,0.424,0.4577,0.4073,0.3748,0.3876,0.4428,0.5043,0.5714,0.6605,0.6884,0.6645,0.6474,0.641,0.6644,0.6911,0.7263,0.7627,0.2019,0.2352,0.2422,0.3616,0.5726,0.9193,1.138,1.2725,1.5987,1.6349,1.4754,1.4065,1.4004,1.404,1.3226,1.3575,1.486,1.4756,1.3621,1.2221,1.2064,1.1735,1.1149,1.0517,0.9792,0.9064,0.8593,0.7864,0.6999,0.8358,0.7985,0.6071,0.6588,0.6932,0.649,0.5815,0.559,0.6031,0.6102,0.634,0.6736,0.6338,0.55,0.4857,0.4832,0.4832,0.4832,0.4832,0.4832,0.4832,0.4832,0.4832,0.4832,0.4834,0.4935,0.5138,0.5338,0.5436,0.5534,0.5539,0.5441,0.5338,0.5135,0.5133,0.5035,0.5035,0.4935,0.5135,0.5135,0.524,0.5338,0.524,0.5112,0.4963,0.4712,0.4657,0.4638,0.4653,0.4608,0.4452,0.4565,0.4752,0.4795,0.476,0.4537,0.4555,0.4256,0.3875,0.3866,0.3764,0.3583,0.34,0.3288,0.3462,0.3838,0.3815,0.3683,0.3789,0.3978,0.3975,0.3722,0.3547,0.3571,0.476,0.551,0.6159,0.6906,0.7106,0.6958,0.6852,0.6675,0.6962,0.7261,0.7695,0.8034,0.1799,0.202,0.2981,0.4422,0.627,0.8768,1.1477,1.536,1.98,2.1039,2.0053,1.9907,2.0713,2.1083,1.8664,1.821,1.8981,1.6926,1.5628,1.5408,1.5511,1.5113,1.3202,1.1946,1.0658,0.9684,0.9961,0.9223,0.7487,0.8352,0.788,0.5983,0.6266,0.6604,0.5721,0.4933,0.4472,0.4784,0.451,0.4766,0.5523,0.5231,0.4932,0.4841,0.4832,0.4832,0.4832,0.4832,0.4832,0.4832,0.4832,0.4832,0.4832,0.4832,0.4935,0.5138,0.5438,0.5536,0.5636,0.5839,0.5839,0.5639,0.5536,0.5534,0.5536,0.5336,0.5338,0.5434,0.5438,0.534,0.5539,0.5438,0.5236,0.5138,0.4908,0.4773,0.4726,0.4771,0.473,0.4632,0.4842,0.5162,0.526,0.5337,0.5279,0.5189,0.5151,0.4926,0.486,0.4656,0.4659,0.4383,0.4013,0.3929,0.4208,0.4022,0.389,0.3944,0.3961,0.3787,0.371,0.354,0.3963,0.5017,0.5816,0.6478,0.7025,0.7239,0.7315,0.711,0.7167,0.7312,0.7599,0.7911,0.8066,0.2071,0.2552,0.2397,0.3744,0.557,0.4885,0.8414,1.4997,1.8231,2.0615,2.223,2.3742,2.4183,2.4784,2.311,2.2523,2.174,2.0055,1.8548,1.7584,1.7487,1.5754,1.3509,1.261,1.1583,1.0304,1.0315,0.9947,0.9067,0.8346,0.7322,0.5841,0.4916,0.4055,0.3071,0.2705,0.2561,0.2754,0.3397,0.4198,0.5041,0.5097,0.4926,0.4845,0.4832,0.4832,0.4832,0.4832,0.4832,0.4832,0.4832,0.4832,0.4832,0.4834,0.4935,0.5138,0.5336,0.5636,0.5839,0.6145,0.6145,0.5942,0.5737,0.5634,0.5534,0.5536,0.5536,0.5636,0.5639,0.5842,0.5839,0.5842,0.5641,0.524,0.4935,0.4804,0.4751,0.4775,0.4787,0.46,0.4946,0.5431,0.5769,0.582,0.5754,0.5696,0.5542,0.5413,0.5323,0.5099,0.4926,0.4835,0.4561,0.4476,0.4391,0.4121,0.4018,0.4088,0.4023,0.3939,0.3792,0.3731,0.4458,0.5576,0.5705,0.6172,0.7027,0.7624,0.75,0.7124,0.7134,0.7159,0.753,0.7888,0.7846,0.0812,0.1175,0.163,0.2665,0.3466,0.0804,0.445,1.1811,1.4848,1.7968,2.1332,2.3595,2.4769,2.5275,2.4199,2.3494,2.2843,2.1099,1.9475,1.8453,1.7713,1.6279,1.4371,1.3426,1.223,1.1027,1.0789,1.0023,0.8985,0.7999,0.6752,0.5044,0.3669,0.2381,0.1134,0.0789,0.067,0.0884,0.1754,0.3014,0.4944,0.4996,0.4926,0.4758,0.4839,0.4836,0.4834,0.4832,0.4832,0.4832,0.4832,0.4832,0.4832,0.4832,0.4935,0.514,0.5238,0.5536,0.5942,0.6145,0.6245,0.6139,0.6037,0.5934,0.5934,0.5837,0.5739,0.5937,0.6042,0.6042,0.6142,0.6042,0.5744,0.534,0.5037,0.4914,0.4763,0.4806,0.481,0.4986,0.5196,0.5625,0.6352,0.624,0.6117,0.5962,0.5901,0.5707,0.5505,0.53,0.5191,0.5102,0.5013,0.4835,0.4748,0.4567,0.4389,0.4372,0.4261,0.4088,0.3945,0.3906,0.4594,0.5368,0.5573,0.5996,0.6805,0.7267,0.6998,0.6845,0.6874,0.7041,0.7385,0.7608,0.7546,-0.1046,-0.0943,0.0825,0.1413,0.0587,-0.2222,0.0921,0.7658,1.0366,1.3825,1.7919,2.0828,2.2577,2.4057,2.3281,2.2711,2.2253,2.0684,1.9129,1.8127,1.7238,1.6166,1.5084,1.3655,1.2556,1.1463,1.1238,0.9713,0.8068,0.7311,0.5793,0.3844,0.2535,0.1252,0.0113,-0.0562,-0.0784,-0.0555,0.022,0.1622,0.3614,0.3987,0.3824,0.3355,0.4239,0.4537,0.4734,0.4832,0.4832,0.4832,0.4832,0.4832,0.4832,0.4832,0.4935,0.5037,0.5138,0.534,0.5844,0.5942,0.6142,0.6239,0.6339,0.6437,0.6337,0.6139,0.6137,0.6337,0.6139,0.6139,0.6237,0.6142,0.5842,0.5441,0.524,0.5037,0.4935,0.4834,0.4935,0.534,0.5539,0.5839,0.6242,0.6426,0.6352,0.6149,0.6072,0.5863,0.5743,0.5581,0.5473,0.5374,0.5282,0.501,0.501,0.501,0.4746,0.4652,0.4472,0.433,0.4177,0.4235,0.4604,0.4971,0.5426,0.5857,0.6331,0.6499,0.6399,0.6417,0.653,0.6691,0.6957,0.7083,0.7163,-0.0945,-0.0959,-0.0599,-0.012,-0.0477,-0.3501,-0.149,0.4548,0.6093,0.9143,1.3233,1.6776,1.9333,2.1387,2.2019,2.2635,2.2002,2.0836,1.9469,1.6649,1.6385,1.544,1.4237,1.3025,1.2248,1.1221,0.9152,0.7943,0.707,0.4997,0.3314,0.2605,0.0811,-0.0573,-0.1141,-0.1127,-0.1225,-0.1321,-0.0656,0.0108,0.0963,0.191,0.1571,0.0514,0.2334,0.4033,0.4634,0.4832,0.4832,0.4832,0.4832,0.4832,0.4832,0.4832,0.4834,0.4834,0.4935,0.5037,0.534,0.5741,0.5942,0.6139,0.6239,0.6437,0.6437,0.6337,0.6337,0.6437,0.6337,0.6337,0.6337,0.6139,0.5942,0.5741,0.5441,0.524,0.5138,0.4935,0.5035,0.5336,0.5536,0.5837,0.6339,0.6339,0.6361,0.6244,0.6132,0.6024,0.5907,0.5697,0.566,0.5641,0.5463,0.5282,0.528,0.5191,0.5013,0.4835,0.4656,0.4478,0.4322,0.4303,0.4586,0.4963,0.5343,0.5681,0.5818,0.6019,0.5996,0.6034,0.6059,0.6102,0.6244,0.6511,0.6542,-0.2257,-0.2291,-0.2308,-0.2313,-0.2663,-0.4598,-0.3591,-0.0345,0.1475,0.4299,0.7975,1.1394,1.4154,1.6543,1.8485,1.9402,1.943,1.975,1.8361,1.5909,1.4891,1.3776,1.2403,1.1,1.0026,1.0144,0.9097,0.7409,0.5114,0.346,0.2147,0.106,-0.0583,-0.1151,-0.1708,-0.1803,-0.2122,-0.222,-0.1769,-0.1426,-0.1514,-0.0646,-0.0212,-0.0832,0.1434,0.3664,0.4643,0.4836,0.4834,0.4834,0.4832,0.4832,0.4832,0.4832,0.4832,0.4832,0.4834,0.4935,0.5238,0.5441,0.5741,0.5942,0.6142,0.6237,0.6337,0.6437,0.6437,0.6437,0.6437,0.6437,0.6437,0.6339,0.6142,0.5942,0.5741,0.5438,0.5238,0.4935,0.4935,0.5236,0.5436,0.5737,0.6037,0.6237,0.6382,0.6271,0.6154,0.6136,0.6104,0.5902,0.5841,0.573,0.5641,0.5552,0.5463,0.5371,0.5102,0.4924,0.4837,0.4572,0.437,0.437,0.4472,0.4748,0.5013,0.4924,0.5066,0.5277,0.5551,0.5488,0.544,0.5494,0.5559,0.5805,0.5702,-0.38,-0.3852,-0.3921,-0.4195,-0.4782,-0.537,-0.4947,-0.3878,-0.2412,0.0455,0.309,0.5981,0.8819,1.0967,1.3839,1.4806,1.5591,1.611,1.5505,1.4356,1.3291,1.1807,1.02,0.8069,0.6915,0.8419,0.7608,0.5564,0.3203,0.1925,0.0719,-0.0585,-0.1526,-0.1861,-0.193,-0.2476,-0.2921,-0.2909,-0.2683,-0.2673,-0.2973,-0.2194,-0.1834,-0.1049,0.0828,0.2971,0.3949,0.4334,0.4531,0.4533,0.4732,0.4732,0.4832,0.4832,0.4832,0.4832,0.4832,0.4935,0.5037,0.524,0.5441,0.5942,0.6042,0.6142,0.6339,0.6437,0.6437,0.6437,0.6437,0.6437,0.6437,0.6337,0.6239,0.6139,0.6042,0.5741,0.5338,0.5035,0.5037,0.514,0.5438,0.5737,0.6037,0.6234,0.6273,0.6301,0.628,0.6172,0.6149,0.613,0.6079,0.5936,0.5757,0.5649,0.5644,0.5552,0.5371,0.5191,0.5015,0.475,0.4576,0.4572,0.4656,0.4391,0.448,0.4567,0.4656,0.4896,0.5065,0.4925,0.4989,0.5067,0.5132,0.5104,0.501,-0.3774,-0.3793,-0.3905,-0.395,-0.4176,-0.5255,-0.4983,-0.3927,-0.3099,-0.1723,0.0472,0.269,0.4845,0.709,0.9665,1.1953,1.324,1.315,1.2373,1.2033,1.1479,1.0282,0.744,0.5297,0.4029,0.3354,0.3509,0.2826,0.1416,-0.0,-0.0602,-0.1316,-0.2154,-0.2477,-0.2424,-0.2973,-0.3063,-0.3039,-0.2919,-0.2907,-0.2791,-0.2559,-0.2196,-0.17,-0.0105,0.1338,0.2739,0.3226,0.3425,0.3525,0.4331,0.4732,0.4832,0.4832,0.4832,0.4832,0.4832,0.4834,0.4935,0.5037,0.5338,0.5636,0.5839,0.6139,0.6339,0.6437,0.6437,0.6437,0.6437,0.6437,0.6437,0.6437,0.6437,0.6237,0.6139,0.5839,0.5536,0.5336,0.5138,0.524,0.5438,0.5636,0.5937,0.6137,0.6307,0.6451,0.6457,0.6492,0.6519,0.6383,0.6265,0.6116,0.5882,0.5763,0.5644,0.5644,0.5552,0.5371,0.5193,0.5196,0.5018,0.4924,0.4832,0.4752,0.4661,0.4748,0.4746,0.4746,0.4745,0.4867,0.4789,0.4799,0.4844,0.4967,0.5015,-0.3741,-0.3775,-0.3834,-0.3996,-0.4124,-0.4161,-0.4274,-0.4197,-0.3644,-0.2694,-0.1301,0.0119,0.155,0.3485,0.5497,0.8392,1.0446,0.9154,0.8886,0.9353,0.8771,0.7701,0.539,0.3404,0.2052,0.1265,0.0934,0.0589,-0.0118,-0.0965,-0.1576,-0.205,-0.241,-0.2502,-0.2337,-0.2539,-0.2749,-0.2723,-0.2704,-0.2691,-0.2693,-0.2468,-0.21,-0.1733,-0.1273,-0.0417,0.041,0.1921,0.262,0.3123,0.3728,0.423,0.4632,0.4834,0.4834,0.4834,0.4834,0.4832,0.4834,0.4935,0.5138,0.5338,0.5639,0.5939,0.6139,0.6339,0.6437,0.6437,0.6437,0.6437,0.6437,0.6437,0.6437,0.6437,0.6239,0.6039,0.5737,0.5536,0.5338,0.524,0.5436,0.5636,0.5739,0.6039,0.6337,0.6492,0.6623,0.6692,0.6766,0.6625,0.6371,0.6199,0.6042,0.579,0.5662,0.5644,0.5644,0.5463,0.5463,0.5374,0.5377,0.5285,0.5292,0.5211,0.5116,0.5015,0.4924,0.4919,0.4906,0.4815,0.4821,0.4816,0.4771,0.4838,0.488,-0.3706,-0.3753,-0.3777,-0.3934,-0.3962,-0.3208,-0.3458,-0.4098,-0.3718,-0.3103,-0.2501,-0.1917,-0.0963,0.048,0.238,0.4956,0.8248,0.612,0.6178,0.6827,0.5914,0.4748,0.3817,0.258,0.1018,0.0115,-0.0234,-0.1062,-0.143,-0.1581,-0.1833,-0.2067,-0.2298,-0.2153,-0.2002,-0.2317,-0.2304,-0.2281,-0.2263,-0.2357,-0.2356,-0.2018,-0.178,-0.175,-0.172,-0.1582,-0.1139,0.0407,0.1716,0.2519,0.3224,0.3828,0.4634,0.4834,0.4935,0.4935,0.4834,0.4834,0.4834,0.4834,0.4935,0.5238,0.5436,0.5739,0.6039,0.6239,0.6437,0.6437,0.6437,0.6437,0.6437,0.6437,0.6437,0.6437,0.6337,0.6237,0.5837,0.5636,0.5539,0.5539,0.5536,0.5737,0.5839,0.6037,0.6337,0.6434,0.6572,0.6758,0.6822,0.671,0.6478,0.629,0.6112,0.5836,0.5597,0.5463,0.5463,0.5463,0.5463,0.5466,0.5471,0.5563,0.5568,0.5481,0.5384,0.5282,0.5191,0.509,0.5195,0.5112,0.4937,0.4914,0.495,0.4928,0.4948,-0.3683,-0.3698,-0.3445,-0.3371,-0.337,-0.2878,-0.2784,-0.3177,-0.3106,-0.2879,-0.2798,-0.2785,-0.241,-0.1436,-0.0,0.252,0.4192,0.4405,0.4056,0.4609,0.405,0.3372,0.2575,0.1345,0.068,-0.0115,-0.0468,-0.1425,-0.1803,-0.1835,-0.1975,-0.2087,-0.206,-0.1917,-0.1892,-0.209,-0.2284,-0.2258,-0.2247,-0.2132,-0.2019,-0.1907,-0.1778,-0.1753,-0.1723,-0.1695,-0.1563,-0.0409,0.0708,0.1815,0.2923,0.4031,0.4937,0.5138,0.5338,0.5336,0.5133,0.4832,0.4834,0.4834,0.4935,0.5138,0.534,0.5644,0.5942,0.6239,0.6437,0.6437,0.6439,0.6439,0.6442,0.6437,0.6437,0.6437,0.6437,0.6239,0.5939,0.5839,0.5639,0.5639,0.5737,0.5839,0.6042,0.6239,0.6437,0.6534,0.6628,0.6714,0.6784,0.6683,0.6477,0.6189,0.6043,0.5771,0.5517,0.5373,0.5333,0.5318,0.5399,0.5486,0.5557,0.556,0.5649,0.5646,0.5552,0.5555,0.5466,0.5445,0.5489,0.5399,0.5199,0.5168,0.5208,0.5116,0.5018,-0.4555,-0.368,-0.3466,-0.3375,-0.3284,-0.2933,-0.2843,-0.2875,-0.2871,-0.2869,-0.2886,-0.2894,-0.2641,-0.2134,-0.1276,-0.0229,0.102,0.1686,0.224,0.2799,0.2689,0.2355,0.2017,0.1571,0.1018,0.0575,-0.0,-0.0475,-0.1207,-0.1714,-0.1977,-0.1972,-0.1947,-0.1927,-0.19,-0.1979,-0.1954,-0.1934,-0.1918,-0.1908,-0.1795,-0.1793,-0.1789,-0.1774,-0.1745,-0.1715,-0.1474,-0.1243,-0.0306,0.0911,0.2417,0.4033,0.5144,0.5543,0.5438,0.5434,0.5334,0.5236,0.5037,0.5037,0.5037,0.5037,0.524,0.5541,0.5939,0.6239,0.6442,0.645,0.6453,0.6353,0.6353,0.6453,0.6453,0.645,0.6442,0.6239,0.6139,0.5939,0.5839,0.5839,0.5839,0.6039,0.6139,0.6239,0.6437,0.6437,0.6537,0.6731,0.6825,0.6793,0.6482,0.5981,0.5849,0.5716,0.5467,0.532,0.5172,0.524,0.5388,0.5461,0.5481,0.5555,0.5644,0.5644,0.5644,0.5646,0.5652,0.5633,0.5598,0.5489,0.5453,0.5347,0.5238,0.5099,0.5098,-0.5967,-0.4782,-0.4519,-0.431,-0.4017,-0.3917,-0.3721,-0.3532,-0.357,-0.3329,-0.3073,-0.2847,-0.2602,-0.234,-0.2073,-0.1596,-0.1597,-0.0338,0.0786,0.1458,0.1795,0.1795,0.1795,0.1797,0.1698,0.184,0.0929,0.0236,-0.0361,-0.0976,-0.1597,-0.1973,-0.1934,-0.1919,-0.1902,-0.186,-0.1822,-0.182,-0.1804,-0.1795,-0.1795,-0.1795,-0.1795,-0.1785,-0.1765,-0.1735,-0.16,-0.1571,-0.0926,0.0101,0.1209,0.2922,0.5247,0.5849,0.5842,0.5737,0.5737,0.5641,0.5441,0.534,0.5138,0.5037,0.5138,0.5541,0.6047,0.6345,0.645,0.6364,0.5548,0.5553,0.5555,0.545,0.5851,0.605,0.655,0.6345,0.6142,0.6142,0.6139,0.6139,0.6137,0.6137,0.6237,0.6337,0.6437,0.6437,0.6539,0.6642,0.6642,0.6642,0.6358,0.5848,0.5437,0.5211,0.4959,0.4922,0.4889,0.4962,0.5118,0.5346,0.5373,0.5399,0.5463,0.5552,0.556,0.5463,0.5374,0.5544,0.5706,0.5627,0.5534,0.5396,0.5268,0.5206,0.519,-0.7799,-0.7593,-0.6802,-0.6502,-0.6403,-0.6158,-0.5729,-0.5259,-0.5282,-0.47,-0.3865,-0.3137,-0.2772,-0.2412,-0.2273,-0.2141,-0.18,-0.0898,0.0336,0.1346,0.1795,0.1795,0.1795,0.1799,0.1808,0.1832,0.1386,0.0822,0.012,-0.0241,-0.1096,-0.1842,-0.1919,-0.1897,-0.1874,-0.1839,-0.1808,-0.1804,-0.1797,-0.1795,-0.1795,-0.1795,-0.1795,-0.1789,-0.1766,-0.1737,-0.1708,-0.158,-0.1345,-0.0609,-0.0101,0.1411,0.4236,0.5754,0.6052,0.6145,0.6042,0.6047,0.5947,0.5644,0.524,0.5238,0.5438,0.5744,0.6152,0.6258,0.6364,0.6268,0.5354,0.3932,0.3729,0.3525,0.4131,0.4836,0.5441,0.645,0.6345,0.6445,0.6442,0.6339,0.6437,0.6437,0.6437,0.6539,0.6437,0.6437,0.6437,0.6539,0.6442,0.6334,0.6085,0.5718,0.501,0.4576,0.4219,0.4106,0.3933,0.4195,0.4444,0.4864,0.5177,0.5208,0.5323,0.5124,0.5133,0.5116,0.5099,0.5186,0.527,0.552,0.5616,0.5461,0.5499,0.5451,0.5515,-1.001,-1.0347,-0.9968,-0.8876,-0.7427,-0.7359,-0.7269,-0.7059,-0.7005,-0.6582,-0.5545,-0.4331,-0.3508,-0.3163,-0.2707,-0.2356,-0.1795,-0.1121,-0.0,0.1009,0.157,0.1795,0.1795,0.1796,0.1802,0.1815,0.1715,0.173,0.1169,0.0355,-0.0834,-0.1549,-0.1894,-0.1891,-0.1866,-0.1714,-0.1802,-0.1795,-0.1795,-0.1795,-0.1795,-0.1795,-0.1795,-0.1793,-0.1789,-0.1322,-0.0869,-0.1078,-0.1161,-0.1139,-0.0616,-0.0,-0.0,0.4748,0.606,0.6258,0.6155,0.6152,0.6255,0.5949,0.5641,0.5539,0.5641,0.5849,0.6057,0.5244,0.5457,0.5461,0.5361,0.3836,-0.0,-0.0,0.1611,0.2719,0.4128,0.5741,0.6651,0.6748,0.6742,0.6739,0.6739,0.6842,0.6842,0.6739,0.6639,0.6437,0.6437,0.6337,0.6239,0.6142,0.5902,0.5681,0.4967,0.4373,0.4022,0.3529,0.3044,0.3407,0.3856,0.4311,0.4845,0.5087,0.5122,0.4915,0.4709,0.4701,0.4687,0.4755,0.4999,0.5323,0.5521,0.5507,0.5641,0.5697,0.5794,-1.1432,-1.2013,-1.1747,-1.0691,-0.9116,-0.9123,-0.901,-0.8809,-0.8792,-0.8276,-0.7373,-0.5951,-0.4921,-0.4255,-0.3586,-0.2691,-0.1907,-0.1121,-0.0224,0.0785,0.1458,0.1795,0.1795,0.1795,0.1797,0.18,0.1812,0.1716,0.1617,0.0698,-0.0352,-0.1296,-0.1759,-0.1637,-0.1626,-0.1597,-0.157,-0.157,-0.1683,-0.1795,-0.1795,-0.1346,-0.1234,-0.1346,-0.1568,-0.1554,-0.0877,-0.0761,-0.0753,-0.0632,-0.0,-0.0,-0.0,0.2631,-0.0,0.5763,0.5861,0.5754,0.616,0.6155,0.5944,0.5744,0.5648,0.5856,0.5655,0.4744,0.5157,0.3739,0.4045,-0.0,-0.0,-0.0,-0.0,0.2718,0.3723,0.5131,0.6648,0.725,0.7144,0.7141,0.7141,0.7141,0.7042,0.7039,0.6839,0.6639,0.6437,0.6337,0.6339,0.6139,0.5837,0.5525,0.5024,0.4427,0.3929,0.3221,0.2618,0.292,0.3394,0.3975,0.4415,0.4778,0.4891,0.4618,0.4487,0.4314,0.4381,0.4572,0.4858,0.5202,0.5407,0.5617,0.5726,0.588,0.609,-1.1968,-1.211,-1.2049,-1.1769,-1.1293,-1.145,-1.1118,-1.057,-1.0488,-0.9824,-0.8823,-0.7799,-0.6692,-0.5472,-0.4804,-0.3356,-0.1905,-0.1121,-0.0224,0.0673,0.1458,0.1683,0.1795,0.1795,0.1795,0.1795,0.1802,0.1817,0.1836,0.1149,0.0116,-0.0698,-0.1041,-0.1035,-0.1034,-0.0906,-0.0898,-0.1009,-0.1458,-0.157,-0.1346,-0.0,-0.0,-0.0561,-0.1009,-0.1224,-0.0994,-0.077,-0.0544,-0.0214,-0.0,-0.0,-0.0,-0.0,-0.0,0.5273,0.4343,0.4643,0.5967,0.5957,0.5851,0.5648,0.545,0.5967,0.6284,0.5979,0.4752,0.323,0.1816,0.1211,-0.0,-0.0,-0.0,0.2818,0.3822,0.5131,0.6645,0.725,0.7042,0.7341,0.7441,0.7441,0.7338,0.7238,0.7138,0.6939,0.6639,0.6439,0.6439,0.6239,0.6042,0.5739,0.524,0.4334,0.3639,0.2771,0.2269,0.2583,0.3095,0.3792,0.4264,0.4682,0.4628,0.4405,0.4327,0.4238,0.4311,0.4394,0.4758,0.5191,0.5452,0.5653,0.5858,0.6075,0.6376,-1.1643,-1.1931,-1.2002,-1.1925,-1.1737,-1.1982,-1.1995,-1.1773,-1.1236,-1.0684,-1.0123,-0.9016,-0.802,-0.7019,-0.5573,-0.4016,-0.2013,-0.0671,0.0112,0.0336,0.1234,0.1683,0.1795,0.1795,0.1795,0.1795,0.1796,0.1798,0.1809,0.1473,0.0794,-0.0,-0.0569,-0.034,-0.0339,-0.0337,-0.0336,-0.0336,-0.0448,-0.0561,-0.0,-0.0,-0.0,-0.0,-0.0,-0.0,-0.0,-0.0666,-0.0661,-0.0,-0.0,-0.0,-0.0,-0.0,-0.0,0.3072,0.2956,0.4851,0.5155,0.505,0.5457,0.5157,0.5459,0.608,0.6385,0.7101,0.5459,0.363,0.2719,0.2619,-0.0,-0.0,0.3118,0.362,0.4624,0.5939,0.7054,0.6845,0.6839,0.7537,0.7839,0.7939,0.7935,0.7733,0.7633,0.7537,0.7235,0.6939,0.6742,0.6642,0.6545,0.6137,0.5534,0.4528,0.3641,0.3384,0.2697,0.2599,0.3246,0.4106,0.4481,0.4646,0.4585,0.4334,0.4245,0.4159,0.4399,0.4626,0.4919,0.5192,0.5379,0.575,0.597,0.6371,0.6767,-1.1429,-1.1728,-1.1756,-1.1822,-1.1945,-1.2192,-1.2228,-1.2229,-1.1751,-1.1564,-1.1341,-1.0453,-0.9457,-0.8455,-0.7119,-0.5125,-0.2792,-0.1116,-0.0112,-0.0,0.0785,0.1346,0.1683,0.1795,0.1795,0.1795,0.1795,0.1796,0.1798,0.1796,0.0787,-0.045,-0.0561,-0.0449,-0.0,-0.0,-0.0,-0.0,-0.0,-0.0,-0.0,-0.0,-0.0,-0.0,-0.0,-0.0,-0.0,-0.0,-0.0,-0.0,-0.0,0.0218,0.043,0.0528,0.0417,0.124,0.1955,0.3573,0.378,0.5322,0.5651,0.527,0.593,0.6103,0.6101,0.6606,0.6721,0.5787,0.5349,0.5236,0.5131,0.4728,0.4828,0.5432,0.5837,0.7156,0.725,0.7138,0.7235,0.7935,0.8137,0.8333,0.8531,0.8432,0.823,0.8031,0.7832,0.7537,0.7241,0.7241,0.7141,0.6836,0.6434,0.5729,0.5157,0.481,0.393,0.2819,0.3493,0.4511,0.4529,0.4708,0.453,0.4455,0.4577,0.4682,0.4753,0.4862,0.5101,0.5127,0.5134,0.5525,0.6094,0.6383,0.667,-1.1321,-1.1491,-1.1304,-1.1531,-1.1943,-1.1967,-1.2023,-1.2176,-1.2238,-1.2318,-1.2327,-1.1982,-1.0983,-0.99,-0.9123,-0.7575,-0.5246,-0.2899,-0.1676,-0.0784,-0.0672,0.0224,0.1009,0.1458,0.1683,0.1795,0.1795,0.1683,0.1683,0.1121,-0.0,-0.1121,-0.1458,-0.1009,-0.0,-0.0,-0.0,-0.0,-0.0,-0.0,-0.0,-0.0,-0.0,-0.0,-0.0,-0.0,-0.0,-0.0,-0.0,-0.0,-0.0,0.077,0.1302,0.1591,0.0943,0.0416,0.0416,0.1559,0.26,0.4481,0.5763,0.5463,0.6318,0.577,0.5644,0.634,0.674,0.7241,0.7101,0.7488,0.7575,0.7469,0.7359,0.7463,0.7459,0.7859,0.7846,0.7939,0.8035,0.8233,0.8432,0.863,0.9027,0.8928,0.8829,0.8825,0.8627,0.8531,0.8237,0.7935,0.7836,0.7733,0.7431,0.7129,0.6581,0.5948,0.5095,0.3788,0.4312,0.5146,0.506,0.4953,0.4984,0.5112,0.5243,0.5229,0.5062,0.5171,0.5331,0.5154,0.4388,0.4495,0.4795,0.5604,0.5993,-1.1231,-1.1302,-1.1244,-1.129,-1.151,-1.1789,-1.2072,-1.2328,-1.2285,-1.229,-1.2432,-1.2178,-1.1635,-1.1008,-1.068,-0.9691,-0.8244,-0.6468,-0.4908,-0.3795,-0.2455,-0.2348,-0.1232,0.0448,0.1346,0.1795,0.1683,0.1346,0.0448,-0.0,-0.0673,-0.1683,-0.1795,-0.1458,-0.1234,-0.0785,-0.0448,-0.0,-0.0,-0.0,-0.0,-0.0,-0.0448,-0.0785,-0.0448,-0.0,-0.0,-0.0,-0.0,-0.0,-0.0,0.1559,0.1667,0.1747,0.1291,0.0212,0.0423,0.0847,0.1059,0.1589,0.287,0.5018,0.5913,0.6802,0.6654,0.6711,0.7289,0.7785,0.823,0.8279,0.8165,0.8062,0.8058,0.8058,0.7955,0.7952,0.8038,0.8134,0.8336,0.8574,0.8774,0.8973,0.9363,0.9422,0.9225,0.9418,0.932,0.913,0.8832,0.8432,0.8333,0.823,0.8038,0.764,0.7119,0.6487,0.5751,0.5104,0.5435,0.5531,0.5556,0.555,0.5634,0.5662,0.5642,0.5604,0.5345,0.5282,0.4843,0.3771,0.303,0.3254,0.3653,0.4486,0.5227,-1.1194,-1.1222,-1.1216,-1.1267,-1.14,-1.1583,-1.1948,-1.2176,-1.2148,-1.2181,-1.2176,-1.2068,-1.1764,-1.1305,-1.0992,-1.0357,-0.9071,-0.763,-0.6122,-0.4419,-0.4213,-0.3006,-0.1674,-0.0336,0.0897,0.1346,0.1458,0.1234,-0.0,-0.0,-0.1121,-0.1795,-0.1795,-0.1795,-0.1683,-0.1346,-0.1121,-0.0785,-0.0,-0.0224,-0.0224,-0.0224,-0.1009,-0.1458,-0.0897,-0.0561,-0.0,-0.0,-0.0,-0.0,-0.0,0.1458,0.1566,0.1545,0.1628,0.0856,0.1074,0.1183,0.1185,0.0754,0.1943,0.3461,0.5074,0.5676,0.6553,0.6799,0.7483,0.8163,0.8442,0.8542,0.8435,0.8233,0.8237,0.8137,0.8041,0.7942,0.8038,0.8333,0.8567,0.8822,0.9137,0.9341,0.9518,0.9565,0.9229,0.8528,0.8428,0.863,0.8432,0.823,0.8329,0.8428,0.824,0.8055,0.755,0.7141,0.6519,0.5873,0.5537,0.5735,0.5908,0.5917,0.5656,0.5907,0.6129,0.5981,0.5741,0.4566,0.3814,0.2853,0.2218,0.2268,0.287,0.3709,0.4389,-1.1184,-1.1179,-1.1197,-1.1346,-1.1559,-1.1513,-1.1613,-1.1808,-1.1964,-1.1992,-1.1855,-1.1723,-1.1435,-1.1085,-1.1015,-1.0039,-0.9089,-0.8011,-0.6904,-0.447,-0.4382,-0.353,-0.2121,-0.0448,0.0112,0.0785,0.1009,-0.0,-0.0,-0.0,-0.0785,-0.1683,-0.1795,-0.1795,-0.1795,-0.1683,-0.157,-0.1458,-0.1121,-0.0785,-0.0561,-0.0785,-0.1234,-0.1683,-0.157,-0.1346,-0.0448,-0.0,-0.0,-0.0,0.0448,0.0785,0.1227,0.1552,0.1634,0.1626,0.1635,0.164,0.1425,0.1205,0.2206,0.3317,0.3978,0.4711,0.5513,0.6386,0.7183,0.7827,0.8126,0.8438,0.8417,0.8357,0.8432,0.8237,0.8041,0.8038,0.8233,0.8464,0.8844,0.8989,0.9004,0.9206,0.8881,0.8833,0.863,0.7633,0.7437,0.7935,0.7832,0.7633,0.7832,0.8131,0.8038,0.7875,0.7998,0.7595,0.7296,0.6762,0.5997,0.5843,0.5915,0.5804,0.5675,0.6132,0.657,0.6389,0.5964,0.4442,0.3266,0.2924,0.2369,0.1733,0.216,0.3018,0.3512,-1.1104,-1.0986,-1.1086,-1.1203,-1.1269,-1.1258,-1.1336,-1.1368,-1.1572,-1.1723,-1.1695,-1.1601,-1.1291,-1.0975,-1.0884,-1.0136,-0.9522,-0.8314,-0.7809,-0.6373,-0.5322,-0.4055,-0.3346,-0.1785,-0.1119,-0.0448,-0.0,-0.0,-0.0,-0.0,-0.0336,-0.1121,-0.1458,-0.1795,-0.1795,-0.1795,-0.1795,-0.1795,-0.157,-0.1458,-0.1346,-0.1346,-0.1683,-0.1795,-0.1683,-0.1683,-0.1009,-0.0,-0.0,-0.0,-0.0,0.0673,0.1569,0.1675,0.178,0.1776,0.1775,0.1778,0.1779,0.1667,0.2342,0.3129,0.3681,0.4233,0.497,0.5764,0.6533,0.7185,0.7704,0.8031,0.8463,0.8585,0.8528,0.8333,0.8041,0.8237,0.8336,0.8621,0.891,0.894,0.8962,0.8645,0.8319,0.8052,0.7762,0.7531,0.7335,0.7437,0.7138,0.6936,0.6936,0.7135,0.7437,0.7488,0.7725,0.7956,0.7554,0.6711,0.5829,0.5771,0.5922,0.647,0.6785,0.6899,0.7119,0.6528,0.5406,0.3555,0.2688,0.2561,0.24,0.1748,0.1796,0.2485,0.281,-1.1025,-1.1057,-1.1142,-1.1175,-1.1241,-1.1216,-1.1188,-1.1044,-1.1128,-1.1134,-1.1245,-1.1225,-1.1173,-1.087,-1.0681,-1.0064,-0.9412,-0.8497,-0.7102,-0.6135,-0.5467,-0.4339,-0.3506,-0.2759,-0.2001,-0.0,-0.0,-0.0,-0.0,-0.0,-0.0224,-0.0673,-0.1234,-0.1795,-0.1795,-0.1795,-0.1795,-0.1795,-0.1795,-0.1795,-0.1795,-0.1795,-0.1346,-0.1346,-0.1458,-0.157,-0.1346,-0.0,-0.0,-0.0,-0.0,-0.0,0.0897,0.1456,0.1793,0.1792,0.1792,0.1795,0.1795,0.1907,0.213,0.269,0.2802,0.3129,0.3129,0.396,0.5414,0.6073,0.6791,0.7293,0.8299,0.8641,0.8531,0.8333,0.8137,0.8038,0.7972,0.8039,0.8201,0.8136,0.8044,0.7837,0.7598,0.7522,0.715,0.6331,0.6434,0.6537,0.6337,0.6239,0.6239,0.6147,0.6453,0.6853,0.7318,0.7626,0.7712,0.6756,0.5766,0.6121,0.648,0.7482,0.8002,0.7354,0.6743,0.6175,0.4824,0.3285,0.2303,0.2175,0.2015,0.1756,0.1995,0.2402,0.2994,-1.0984,-1.1222,-1.1183,-1.1165,-1.1138,-1.1079,-1.0961,-1.0824,-1.0712,-1.0618,-1.0573,-1.0851,-1.0795,-1.0575,-1.0103,-0.9263,-0.8306,-0.7437,-0.6134,-0.5272,-0.4573,-0.3932,-0.3334,-0.2806,-0.2296,-0.1656,-0.0,-0.0,-0.0,-0.0,-0.0,-0.0,-0.0897,-0.1683,-0.1795,-0.1795,-0.1795,-0.1795,-0.1795,-0.1795,-0.1795,-0.1683,-0.1009,-0.0785,-0.0897,-0.157,-0.1234,-0.0,-0.0,-0.0,-0.0,-0.0,-0.0,0.0897,0.1346,0.1458,0.1795,0.1795,0.1795,0.1795,0.1907,0.1907,0.1795,0.1795,0.1906,0.2553,0.404,0.4796,0.5555,0.6475,0.7578,0.8336,0.8134,0.8131,0.7836,0.7637,0.7488,0.7446,0.749,0.7428,0.7223,0.6913,0.6768,0.6799,0.6356,0.5539,0.5233,0.5336,0.5436,0.5536,0.5639,0.5459,0.548,0.5994,0.6553,0.6853,0.702,0.6691,0.5901,0.6359,0.6927,0.7485,0.7459,0.6845,0.6248,0.5678,0.4891,0.3554,0.2765,0.219,0.252,0.2725,0.2925,0.331,0.3884,-1.1189,-1.1203,-1.1157,-1.1044,-1.0913,-1.065,-1.0542,-1.0511,-1.0511,-1.0408,-1.0358,-1.0397,-1.0339,-1.0086,-0.9022,-0.8316,-0.7828,-0.6648,-0.5696,-0.485,-0.4025,-0.3466,-0.3194,-0.2886,-0.2484,-0.1955,-0.1308,-0.0,-0.0,-0.0,-0.0,-0.0,-0.0672,-0.1345,-0.1795,-0.1795,-0.1795,-0.1795,-0.1794,-0.1793,-0.1681,-0.1345,-0.0673,-0.0448,-0.0224,-0.0336,-0.0224,-0.0112,-0.0,-0.0,-0.0,-0.0,-0.0,-0.0,0.0673,0.1121,0.1346,0.157,0.157,0.1683,0.1683,0.1683,0.1683,0.1683,0.1677,0.1774,0.2619,0.2791,0.3658,0.4858,0.5957,0.6765,0.703,0.7132,0.7033,0.6833,0.6656,0.6926,0.7085,0.6793,0.6489,0.6077,0.5558,0.5602,0.5443,0.4935,0.4834,0.4935,0.4935,0.4935,0.5037,0.4867,0.469,0.488,0.5297,0.5603,0.5778,0.5753,0.6031,0.6702,0.7038,0.7041,0.6898,0.6065,0.5617,0.5056,0.4267,0.3351,0.3607,0.3211,0.361,0.3879,0.4043,0.4227,0.4712]},{"header":{"parameterUnit":"m.s-1","parameterCategory":1,"la1":31.0,"la2":29.5877,"lo1":-88.7671,"lo2":-86.6584,"dy":0.0162,"dx":0.0185,"nx":115,"ny":88,"refTime":"2023-07-05T00:00:00:Z","depth":0,"parameterNumber":3,"parameterNumberName":"V-component_of_WINDS"},"data":[0.0,0.0,0.0,0.0,0.0,0.0,0.0,0.0,0.0,0.0,0.0,0.0,0.0,0.0,0.0,0.0,0.0,0.0,0.0,0.0,0.0,0.0,0.0,0.0,0.0,0.0,0.0,0.0,0.0,0.0,0.0,0.0,0.0,0.0,0.0,0.0,0.0,0.0,0.0,0.0,0.0,0.0,0.0,0.0,0.0,0.0,0.0,0.0,0.0,0.0,0.0,0.0,0.0,0.0,0.0,0.0,0.0,0.0,0.0,0.0,0.0,0.0,0.0,0.0,0.0,0.0,0.0,0.0,0.0,0.0,0.0,0.0,0.0,0.0,0.0,0.0,0.0,0.0,0.0,0.0,0.0,0.0,0.0,0.0,0.0,0.0,0.0,0.0,0.0,0.0,0.0,0.0,0.0,0.0,0.0,0.0,0.0,0.0,0.0,0.0,0.0,0.0,0.0,0.0,0.0,0.0,0.0,0.0,0.0,0.0,0.0,0.0,0.0,0.0,0.0,0.0,0.0,0.0,0.0,0.0,0.0,0.0,0.0,0.0,0.0,0.0,0.0,0.0,0.0,0.0,0.0,0.0,0.0,0.0,0.0,0.0,0.0,0.0,0.0,0.0,0.0,0.0,0.0,0.0,0.0,0.0,0.0,0.0,0.0,0.0,0.0,0.0,0.0,0.0,0.0,0.0,0.0,0.0,0.0,0.0,0.0,0.0,0.0,0.0,0.0,0.0,0.0,0.0,0.0,0.0,0.0,0.0,0.0,0.0,0.0,0.0,0.0,0.0,0.0,0.0,0.0,0.0,0.0,0.0,0.0,0.0,0.0,0.0,0.0,0.0,0.0,0.0,0.0,0.0,0.0,0.0,0.0,0.0,0.0,0.0,0.0,0.0,0.0,0.0,0.0,0.0,0.0,0.0,0.0,0.0,0.0,0.0,0.0,0.0,0.0,0.0,0.0,0.0,0.0,0.0,0.0,0.0,0.0,0.0,0.0,0.0,0.0,0.0,0.0,0.0,0.0,0.0,0.0,0.0,0.0,0.0,0.0,0.0,0.0,0.0,0.0,0.0,0.0,0.0,0.0,0.0,0.0,0.0,0.0,0.0,0.0,0.0,0.0,0.0,0.0,0.0,0.0,0.0,0.0,0.0,0.0,0.0,0.0,0.0,0.0,0.0,0.0,0.0,0.0,0.0,0.0,0.0,0.0,0.0,0.0,0.0,0.0,0.0,0.0,0.0,0.0,0.0,0.0,0.0,0.0,0.0,0.0,0.0,0.0,0.0,0.0,0.0,0.0,0.0,0.0,0.0,0.0,0.0,0.0,0.0,0.0,0.0,0.0,0.0,0.0,0.0,0.0,0.0,0.0,0.0,0.0,0.0,0.0,0.0,0.0,0.0,0.0,0.0,0.0,0.0,0.0,0.0,0.0,0.0,0.0,0.0,0.0,0.0,0.0,0.0,0.0,0.0,0.0,0.0,0.0,0.0,0.0,0.0,0.0,0.0,0.0,0.0,0.0,0.0,0.0,0.0,0.0,0.0,0.0,0.0,0.0,0.0,0.0,0.0,0.0,0.0,0.0,0.0,0.0,0.0,0.0,0.0,0.0,0.0,0.0,0.0,0.0,0.0,0.0,0.0,0.0,0.0,0.0,0.0,0.0,0.0,0.0,0.0,0.0,0.0,0.0,0.0,0.0,0.0,0.0,0.0,0.0,0.0,0.0,0.0,0.0,0.0,0.0,0.0,0.0,0.0,0.0,0.0,0.0,0.0,0.0,0.0,0.0,0.0,0.0,0.0,0.0,0.0,0.0,0.0,0.0,0.0,0.0,0.0,0.0,0.0,0.0,0.0,0.0,0.0,0.0,0.0,0.0,0.0,0.0,0.0,0.0,0.0,0.0,0.0,0.0,0.0,0.0,0.0,0.0,0.0,0.0,0.0,0.0,0.0,0.0,0.0,0.0,0.0,0.0,0.0,0.0,0.0,0.0,0.0,0.0,0.0,0.0,0.0,0.0,0.0,0.0,0.0,0.0,0.0,0.0,0.0,0.0,0.0,0.0,0.0,0.0,0.0,0.0,0.0,0.0,0.0,0.0,0.0,0.0,0.0,0.0,0.0,0.0,0.0,0.0,0.0,0.0,0.0,0.0,0.0,0.0,0.0,0.0,0.0,0.0,0.0,0.0,0.0,0.0,0.0,0.0,0.0,0.0,0.0,0.0,0.0,0.0,0.0,0.0,0.0,0.0,0.0,0.0,0.0,0.0,0.0,0.0,0.0,0.0,0.0,0.0,0.0,0.0,0.0,0.0,0.0,0.0,0.0,0.0,0.0,0.0,0.0,0.0,0.0,0.0,0.0,0.0,0.0,0.0,0.0,0.0,0.0,0.0,0.0,0.0,0.0,0.0,0.0,0.0,0.0,0.0,0.0,0.0,0.0,0.0,0.0,0.0,0.0,0.0,0.0,0.0,0.0,0.0,0.0,0.0,0.0,0.0,0.0,0.0,0.0,0.0,0.0,0.0,0.0,0.0,0.0,0.0,0.0,0.0,0.0,0.0,0.0,0.0,0.0,0.0,0.0,0.0,0.0,0.0,0.0,0.0,0.0,0.0,0.0,0.0,0.0,0.0,0.0,0.0,0.0,0.0,0.0,0.0,0.0,0.0,0.0,0.0,0.0,0.0,0.0,0.0,0.0,0.0,0.0,0.0,0.0,0.0,0.0,0.0,0.0,0.0,0.0,0.0,0.0,0.0,0.0,0.0,0.0,0.0,0.0,0.0,0.0,0.0,0.0,0.0,0.0,0.0,0.0,0.0,0.0,0.0,0.0,0.0,0.0,0.0,0.0,0.0,0.0,0.0,0.0,0.0,0.0,0.0,0.0,0.0,0.0,0.0,0.0,0.0,0.0,0.0,0.0,0.0,0.0,0.0,0.0,0.0,0.0,0.0,0.0,0.0,0.0,0.0,0.0,0.0,0.0,0.0,0.0,0.0,0.0,0.0,0.0,0.0,0.0,0.0,0.0,0.0,0.0,0.0,0.0,0.0,0.0,0.0,0.0,0.0,0.0,0.0,0.0,0.0,0.0,0.0,0.0,0.0,0.0,0.0,0.0,0.0,0.0,0.0,0.0,0.0,0.0,0.0,0.0,0.0,0.0,0.0,0.0,0.0,0.0,0.0,0.0,0.0,0.0,0.0,0.0,0.0,0.0,0.0,0.0,0.0,0.0,0.0,0.0,0.0,0.0,0.0,0.0,0.0,0.0,0.0,0.0,0.0,0.0,0.0,0.0,0.0,0.0,0.0,0.0,0.0,0.0,0.0,0.0,0.0,0.0,0.0,0.0,0.0,0.0,0.0,0.0,0.0,0.0,0.0,0.0,0.0,0.0,0.0,0.0,0.0,0.0,0.0,0.0,0.0,0.0,0.0,0.0,0.0,0.0,0.0,0.0,0.0,0.0,0.0,0.0,0.0,0.0,0.0,0.0,0.0,0.0,0.0,0.0,0.0,0.0,0.0,0.0,0.0,0.0,0.0,0.0,0.0,0.0,0.0,0.0,0.0,0.0,0.0,0.0,0.0,0.0,0.0,0.0,0.0,0.0,0.0,0.0,0.0,0.0,0.0,0.0,0.0,0.0,0.0,0.0,0.0,0.0,0.0,0.0,0.0,0.0,0.0,0.0,0.0,0.0,0.0,0.0,0.0,0.0,0.0,0.0,0.0,0.0,0.0,0.0,0.0,0.0,0.0,0.0,0.0,0.0,0.0,0.0,0.0,0.0,0.0,0.0,0.0,0.0,0.0,0.0,0.0,0.0,0.0,0.0,0.0,0.0,0.0,0.0,0.0,0.0,0.0,0.0,0.0,0.0,0.0,0.0,0.0,0.0,0.0,0.0,0.0,0.0,0.0,0.0,0.0,0.0,0.0,0.0,0.0,0.0,0.0,0.0,0.0,0.0,0.0,0.0,0.0,0.0,0.0,0.0,0.0,0.0,0.0,0.0,0.0,0.0,0.0,0.0,0.0,0.0,0.0,0.0,0.0,0.0,0.0,0.0,0.0,0.0,0.0,0.0,0.0,0.0,0.0,0.0,0.0,0.0,0.0,0.0,0.0,0.0,0.0,0.0,0.0,0.0,0.0,0.0,0.0,0.0,0.0,0.0,0.0,0.0,0.0,0.0,0.0,0.0,0.0,0.0,0.0,0.0,0.0,0.0,0.0,0.0,0.0,0.0,0.0,0.0,0.0,0.0,0.0,0.0,0.0,0.0,0.0,0.0,0.0,0.0,-2.2847,0.0,0.0,0.0,0.0,0.0,0.0,0.0,0.0,0.0,0.0,0.0,0.0,0.0,0.0,0.0,0.0,0.0,0.0,0.0,0.0,0.0,0.0,0.0,0.0,0.0,0.0,0.0,0.0,0.0,0.0,0.0,0.0,0.0,0.0,0.0,0.0,0.0,0.0,0.0,0.0,0.0,0.0,0.0,0.0,0.0,0.0,0.0,0.0,0.0,0.0,0.0,0.0,0.0,0.0,0.0,0.0,0.0,0.0,0.0,0.0,0.0,0.0,0.0,0.0,0.0,0.0,0.0,0.0,0.0,0.0,0.0,0.0,0.0,0.0,0.0,0.0,0.0,0.0,0.0,0.0,0.0,0.0,0.0,0.0,0.0,0.0,0.0,0.0,0.0,0.0,0.0,0.0,0.0,0.0,0.0,0.0,0.0,0.0,0.0,0.0,0.0,0.0,0.0,0.0,0.0,0.0,0.0,0.0,0.0,0.0,-2.4813,-2.5631,-2.3924,-2.2942,-2.2983,0.0,0.0,0.0,0.0,0.0,0.0,0.0,0.0,0.0,0.0,0.0,0.0,0.0,0.0,0.0,0.0,0.0,0.0,0.0,0.0,0.0,0.0,0.0,0.0,0.0,0.0,0.0,0.0,0.0,0.0,0.0,0.0,0.0,0.0,0.0,0.0,0.0,0.0,0.0,0.0,0.0,0.0,0.0,0.0,0.0,0.0,0.0,0.0,0.0,0.0,0.0,0.0,0.0,0.0,0.0,0.0,0.0,0.0,0.0,0.0,0.0,0.0,0.0,0.0,0.0,0.0,0.0,0.0,0.0,0.0,0.0,0.0,0.0,0.0,0.0,0.0,0.0,0.0,0.0,0.0,0.0,0.0,0.0,0.0,0.0,0.0,0.0,0.0,0.0,0.0,0.0,0.0,0.0,0.0,0.0,0.0,0.0,0.0,0.0,0.0,0.0,0.0,0.0,0.0,0.0,0.0,0.0,0.0,0.0,0.0,0.0,0.0,-2.414,-2.3176,-2.3524,0.0,0.0,0.0,0.0,0.0,0.0,0.0,0.0,0.0,0.0,0.0,0.0,0.0,0.0,0.0,0.0,0.0,0.0,0.0,0.0,0.0,0.0,0.0,0.0,0.0,0.0,0.0,0.0,0.0,0.0,0.0,0.0,0.0,0.0,0.0,0.0,0.0,0.0,0.0,0.0,0.0,0.0,0.0,0.0,0.0,0.0,0.0,0.0,0.0,0.0,0.0,0.0,0.0,0.0,0.0,0.0,0.0,0.0,0.0,0.0,0.0,0.0,0.0,0.0,0.0,0.0,0.0,0.0,0.0,0.0,0.0,0.0,0.0,0.0,0.0,0.0,0.0,0.0,0.0,0.0,0.0,0.0,0.0,0.0,0.0,0.0,0.0,0.0,0.0,0.0,0.0,0.0,0.0,0.0,0.0,0.0,0.0,0.0,0.0,0.0,0.0,0.0,0.0,0.0,0.0,0.0,0.0,0.0,0.0,0.0,-2.6373,-2.7995,-2.7027,0.0,-2.5398,0.0,0.0,0.0,0.0,0.0,0.0,0.0,0.0,0.0,0.0,0.0,0.0,0.0,0.0,0.0,0.0,0.0,0.0,0.0,0.0,0.0,0.0,0.0,0.0,0.0,0.0,0.0,0.0,0.0,0.0,0.0,0.0,0.0,0.0,0.0,0.0,0.0,0.0,0.0,0.0,0.0,0.0,0.0,0.0,0.0,0.0,0.0,0.0,0.0,0.0,0.0,0.0,0.0,0.0,0.0,0.0,0.0,0.0,0.0,0.0,0.0,0.0,0.0,0.0,0.0,0.0,0.0,0.0,0.0,0.0,0.0,0.0,0.0,0.0,0.0,0.0,0.0,0.0,0.0,0.0,0.0,0.0,0.0,0.0,0.0,0.0,0.0,0.0,0.0,0.0,0.0,0.0,0.0,0.0,0.0,0.0,0.0,0.0,0.0,0.0,0.0,0.0,0.0,0.0,0.0,0.0,0.0,0.0,0.0,0.0,-2.6281,-2.7503,-2.666,-2.5539,0.0,0.0,0.0,0.0,0.0,0.0,0.0,0.0,0.0,0.0,0.0,0.0,0.0,0.0,0.0,0.0,0.0,0.0,0.0,0.0,0.0,0.0,0.0,0.0,0.0,0.0,0.0,0.0,0.0,0.0,0.0,0.0,0.0,0.0,0.0,0.0,0.0,0.0,0.0,0.0,0.0,0.0,0.0,0.0,0.0,0.0,0.0,0.0,0.0,0.0,0.0,0.0,0.0,0.0,0.0,0.0,0.0,0.0,0.0,0.0,0.0,0.0,0.0,0.0,0.0,0.0,0.0,0.0,0.0,0.0,0.0,0.0,0.0,0.0,0.0,0.0,0.0,0.0,0.0,0.0,0.0,0.0,0.0,0.0,0.0,0.0,0.0,0.0,0.0,0.0,0.0,0.0,0.0,0.0,0.0,0.0,0.0,0.0,0.0,0.0,0.0,0.0,0.0,0.0,0.0,0.0,0.0,0.0,0.0,0.0,-2.6322,-2.6458,-2.7251,-2.625,-2.5053,-2.3847,0.0,0.0,0.0,0.0,0.0,0.0,0.0,0.0,0.0,0.0,0.0,0.0,0.0,0.0,0.0,0.0,0.0,0.0,0.0,0.0,0.0,0.0,0.0,0.0,0.0,0.0,0.0,0.0,0.0,0.0,0.0,0.0,0.0,0.0,0.0,0.0,0.0,0.0,0.0,0.0,0.0,0.0,0.0,0.0,0.0,0.0,0.0,0.0,0.0,0.0,0.0,0.0,0.0,0.0,0.0,0.0,0.0,0.0,0.0,0.0,0.0,0.0,0.0,0.0,0.0,0.0,0.0,0.0,0.0,0.0,0.0,0.0,0.0,0.0,0.0,0.0,0.0,0.0,0.0,0.0,0.0,0.0,0.0,0.0,0.0,0.0,0.0,0.0,0.0,0.0,0.0,0.0,0.0,0.0,0.0,0.0,0.0,0.0,0.0,0.0,0.0,0.0,0.0,0.0,0.0,0.0,0.0,0.0,-2.9186,-2.7759,-2.7349,-2.8147,-2.6578,-2.5663,0.0,0.0,0.0,0.0,0.0,0.0,0.0,0.0,0.0,0.0,0.0,0.0,0.0,0.0,0.0,0.0,0.0,0.0,0.0,0.0,0.0,0.0,0.0,0.0,0.0,0.0,0.0,0.0,0.0,0.0,0.0,0.0,0.0,0.0,0.0,0.0,0.0,0.0,0.0,0.0,0.0,0.0,0.0,0.0,0.0,0.0,0.0,0.0,0.0,0.0,0.0,0.0,0.0,0.0,0.0,0.0,0.0,0.0,0.0,0.0,0.0,0.0,0.0,0.0,0.0,0.0,0.0,0.0,0.0,0.0,0.0,0.0,0.0,0.0,0.0,0.0,0.0,0.0,0.0,0.0,0.0,0.0,0.0,0.0,0.0,0.0,0.0,0.0,0.0,0.0,0.0,0.0,0.0,0.0,0.0,0.0,0.0,0.0,0.0,0.0,0.0,0.0,0.0,0.0,0.0,0.0,0.0,0.0,0.0,-2.7036,-2.7034,-2.7155,-2.7436,-2.6853,-2.6266,0.0,0.0,0.0,0.0,0.0,0.0,0.0,0.0,0.0,0.0,0.0,0.0,0.0,0.0,0.0,0.0,0.0,0.0,0.0,0.0,0.0,0.0,0.0,0.0,0.0,0.0,0.0,0.0,0.0,0.0,0.0,0.0,0.0,0.0,0.0,0.0,0.0,0.0,0.0,0.0,0.0,0.0,0.0,0.0,0.0,0.0,0.0,0.0,0.0,0.0,0.0,0.0,0.0,0.0,0.0,0.0,0.0,0.0,0.0,0.0,0.0,0.0,0.0,0.0,0.0,0.0,0.0,0.0,0.0,0.0,0.0,0.0,0.0,0.0,0.0,0.0,0.0,0.0,0.0,0.0,0.0,0.0,0.0,0.0,0.0,0.0,0.0,0.0,0.0,0.0,0.0,0.0,0.0,0.0,0.0,0.0,0.0,0.0,0.0,0.0,0.0,0.0,0.0,0.0,0.0,0.0,0.0,0.0,0.0,-2.5726,0.0,-2.6589,-2.6557,-2.6284,-2.6008,0.0,0.0,0.0,0.0,0.0,0.0,0.0,0.0,0.0,0.0,0.0,0.0,0.0,0.0,0.0,0.0,0.0,0.0,0.0,0.0,0.0,0.0,0.0,0.0,0.0,0.0,0.0,0.0,0.0,0.0,0.0,0.0,0.0,0.0,0.0,0.0,0.0,0.0,0.0,0.0,0.0,0.0,0.0,0.0,0.0,0.0,0.0,0.0,0.0,0.0,0.0,0.0,0.0,0.0,0.0,0.0,0.0,0.0,0.0,0.0,0.0,0.0,0.0,0.0,0.0,0.0,0.0,0.0,0.0,0.0,0.0,0.0,0.0,0.0,0.0,0.0,0.0,0.0,0.0,0.0,0.0,0.0,0.0,0.0,0.0,0.0,0.0,0.0,0.0,0.0,0.0,0.0,0.0,0.0,0.0,0.0,0.0,0.0,0.0,0.0,0.0,0.0,0.0,0.0,0.0,0.0,0.0,0.0,-2.5666,-2.5707,-2.5687,-2.5746,-2.5726,-2.4963,-2.4866,0.0,0.0,0.0,0.0,0.0,0.0,0.0,0.0,0.0,0.0,0.0,0.0,0.0,0.0,0.0,0.0,0.0,0.0,0.0,0.0,0.0,0.0,0.0,0.0,0.0,0.0,0.0,0.0,0.0,0.0,0.0,0.0,0.0,0.0,0.0,0.0,0.0,0.0,0.0,0.0,0.0,0.0,0.0,0.0,0.0,0.0,0.0,0.0,0.0,0.0,0.0,0.0,0.0,0.0,0.0,0.0,0.0,0.0,0.0,0.0,0.0,0.0,0.0,0.0,0.0,0.0,0.0,0.0,0.0,0.0,0.0,0.0,0.0,0.0,0.0,0.0,0.0,0.0,0.0,0.0,0.0,0.0,0.0,0.0,0.0,0.0,0.0,0.0,0.0,0.0,0.0,0.0,0.0,0.0,0.0,0.0,0.0,0.0,0.0,0.0,0.0,0.0,0.0,0.0,0.0,0.0,0.0,0.0,0.0,-2.5605,-2.5093,-2.5675,-2.7318,-2.5482,-2.5364,0.0,0.0,0.0,0.0,0.0,0.0,0.0,0.0,0.0,0.0,0.0,0.0,0.0,0.0,0.0,0.0,0.0,0.0,0.0,0.0,0.0,0.0,0.0,0.0,0.0,0.0,0.0,0.0,0.0,0.0,0.0,0.0,0.0,0.0,0.0,0.0,0.0,0.0,0.0,0.0,0.0,0.0,0.0,0.0,0.0,0.0,0.0,0.0,0.0,0.0,0.0,0.0,0.0,0.0,0.0,0.0,0.0,0.0,0.0,0.0,0.0,0.0,0.0,0.0,0.0,0.0,0.0,0.0,0.0,0.0,0.0,0.0,0.0,0.0,0.0,0.0,0.0,0.0,0.0,0.0,0.0,0.0,0.0,0.0,0.0,0.0,0.0,0.0,0.0,0.0,0.0,0.0,0.0,0.0,0.0,0.0,0.0,0.0,0.0,0.0,0.0,0.0,0.0,0.0,0.0,0.0,0.0,0.0,0.0,-2.5537,-2.4491,-2.4683,-2.6323,-2.5076,-2.5155,-2.6736,0.0,0.0,0.0,0.0,0.0,0.0,0.0,0.0,0.0,0.0,0.0,0.0,0.0,0.0,0.0,0.0,0.0,0.0,0.0,0.0,0.0,0.0,0.0,0.0,0.0,0.0,0.0,0.0,0.0,0.0,0.0,0.0,0.0,0.0,0.0,0.0,0.0,0.0,0.0,0.0,0.0,0.0,0.0,0.0,0.0,0.0,0.0,0.0,0.0,0.0,0.0,0.0,0.0,0.0,0.0,0.0,0.0,0.0,0.0,0.0,0.0,0.0,0.0,0.0,0.0,0.0,0.0,0.0,0.0,0.0,0.0,0.0,0.0,0.0,0.0,0.0,0.0,0.0,0.0,0.0,0.0,0.0,0.0,0.0,0.0,0.0,0.0,0.0,0.0,0.0,0.0,0.0,0.0,0.0,0.0,0.0,0.0,0.0,0.0,0.0,0.0,0.0,0.0,0.0,0.0,0.0,0.0,0.0,-2.5668,-2.409,-2.3339,-2.3508,-2.4159,-2.4492,0.0,0.0,0.0,0.0,0.0,0.0,0.0,0.0,0.0,0.0,0.0,0.0,0.0,0.0,0.0,0.0,0.0,0.0,0.0,0.0,0.0,0.0,0.0,0.0,0.0,0.0,0.0,0.0,0.0,0.0,0.0,0.0,0.0,0.0,0.0,0.0,0.0,0.0,0.0,0.0,0.0,0.0,0.0,0.0,0.0,0.0,0.0,0.0,0.0,0.0,0.0,0.0,0.0,0.0,0.0,0.0,0.0,0.0,0.0,0.0,0.0,0.0,0.0,0.0,0.0,0.0,0.0,0.0,0.0,0.0,0.0,0.0,0.0,0.0,0.0,0.0,0.0,0.0,0.0,0.0,0.0,0.0,0.0,0.0,0.0,0.0,0.0,0.0,0.0,0.0,0.0,0.0,0.0,0.0,0.0,0.0,0.0,0.0,0.0,0.0,0.0,0.0,0.0,0.0,0.0,0.0,0.0,0.0,0.0,-2.6456,-2.5554,-2.5625,-2.6835,-2.5918,-2.565,0.0,0.0,0.0,0.0,0.0,0.0,0.0,0.0,0.0,0.0,0.0,0.0,0.0,0.0,0.0,0.0,0.0,0.0,0.0,0.0,0.0,0.0,0.0,0.0,0.0,0.0,0.0,0.0,0.0,0.0,0.0,0.0,0.0,0.0,0.0,0.0,0.0,0.0,0.0,0.0,0.0,0.0,0.0,0.0,0.0,0.0,0.0,0.0,0.0,0.0,0.0,0.0,0.0,0.0,0.0,0.0,0.0,0.0,0.0,0.0,0.0,0.0,0.0,0.0,0.0,0.0,0.0,0.0,0.0,0.0,0.0,0.0,0.0,0.0,0.0,0.0,0.0,0.0,0.0,0.0,0.0,0.0,0.0,0.0,0.0,0.0,0.0,0.0,0.0,0.0,0.0,0.0,0.0,0.0,0.0,0.0,0.0,0.0,0.0,0.0,0.0,0.0,0.0,0.0,0.0,0.0,0.0,0.0,-2.5496,-2.6906,-2.6821,-2.7422,-2.877,-2.7864,-2.6871,0.0,0.0,0.0,0.0,0.0,0.0,0.0,0.0,0.0,0.0,0.0,0.0,0.0,0.0,0.0,0.0,0.0,0.0,0.0,0.0,0.0,0.0,0.0,0.0,0.0,0.0,0.0,0.0,0.0,0.0,0.0,0.0,0.0,0.0,0.0,0.0,0.0,0.0,0.0,0.0,0.0,0.0,0.0,0.0,0.0,0.0,0.0,0.0,0.0,0.0,0.0,0.0,0.0,0.0,0.0,0.0,0.0,0.0,0.0,0.0,0.0,0.0,0.0,0.0,0.0,0.0,0.0,0.0,0.0,0.0,0.0,0.0,0.0,0.0,0.0,0.0,0.0,0.0,0.0,0.0,0.0,0.0,0.0,0.0,0.0,0.0,0.0,0.0,0.0,0.0,0.0,0.0,0.0,0.0,0.0,0.0,0.0,0.0,0.0,0.0,0.0,0.0,0.0,0.0,0.0,0.0,0.0,0.0,-2.6009,-2.711,-2.7906,-2.8732,-2.9583,-2.9526,-2.7939,0.0,0.0,0.0,0.0,0.0,0.0,0.0,0.0,0.0,0.0,0.0,0.0,0.0,0.0,0.0,0.0,0.0,0.0,0.0,0.0,0.0,0.0,0.0,0.0,0.0,0.0,0.0,0.0,0.0,0.0,0.0,0.0,0.0,0.0,0.0,0.0,0.0,0.0,0.0,0.0,0.0,0.0,0.0,0.0,0.0,0.0,0.0,0.0,0.0,0.0,0.0,0.0,0.0,0.0,0.0,0.0,0.0,0.0,0.0,0.0,0.0,0.0,0.0,0.0,0.0,0.0,0.0,0.0,0.0,0.0,0.0,0.0,0.0,0.0,0.0,0.0,0.0,0.0,0.0,0.0,0.0,0.0,0.0,0.0,0.0,0.0,0.0,0.0,0.0,0.0,0.0,0.0,0.0,0.0,0.0,0.0,0.0,0.0,0.0,0.0,0.0,0.0,0.0,0.0,0.0,0.0,0.0,0.0,-2.6288,-2.7901,-2.8738,-2.9544,-3.0424,-2.9177,-2.7824,0.0,0.0,0.0,0.0,0.0,0.0,0.0,0.0,0.0,0.0,0.0,0.0,0.0,0.0,0.0,0.0,0.0,0.0,0.0,0.0,0.0,0.0,0.0,0.0,0.0,0.0,0.0,0.0,0.0,0.0,0.0,0.0,0.0,0.0,0.0,0.0,0.0,0.0,0.0,0.0,0.0,0.0,0.0,0.0,0.0,0.0,0.0,0.0,-2.5187,0.0,0.0,0.0,0.0,0.0,0.0,0.0,0.0,0.0,0.0,0.0,0.0,0.0,0.0,0.0,0.0,0.0,0.0,0.0,0.0,0.0,0.0,0.0,0.0,0.0,0.0,0.0,0.0,0.0,0.0,0.0,0.0,0.0,0.0,0.0,0.0,0.0,0.0,0.0,0.0,0.0,0.0,0.0,0.0,0.0,0.0,0.0,0.0,0.0,0.0,0.0,0.0,0.0,0.0,0.0,0.0,0.0,0.0,0.0,-2.6792,-2.816,-2.8992,-2.9792,-3.0549,-2.8992,-2.7886,0.0,0.0,0.0,0.0,0.0,0.0,0.0,0.0,0.0,0.0,0.0,0.0,0.0,0.0,0.0,0.0,0.0,0.0,0.0,0.0,0.0,0.0,0.0,0.0,0.0,0.0,0.0,0.0,0.0,0.0,0.0,0.0,0.0,0.0,0.0,0.0,0.0,0.0,0.0,0.0,0.0,0.0,0.0,0.0,0.0,0.0,0.0,0.0,0.0,0.0,0.0,0.0,0.0,0.0,0.0,0.0,0.0,0.0,0.0,0.0,0.0,0.0,0.0,0.0,0.0,0.0,0.0,0.0,0.0,0.0,0.0,0.0,0.0,0.0,0.0,0.0,0.0,0.0,0.0,0.0,0.0,0.0,0.0,0.0,0.0,0.0,0.0,0.0,0.0,0.0,0.0,0.0,0.0,0.0,0.0,0.0,0.0,0.0,0.0,0.0,0.0,0.0,0.0,0.0,0.0,0.0,0.0,-2.6786,-2.7179,-2.7981,-2.8772,-2.9525,-3.0153,-2.8644,-2.7939,-2.8278,0.0,0.0,0.0,0.0,0.0,0.0,0.0,0.0,0.0,0.0,0.0,0.0,0.0,0.0,0.0,0.0,0.0,0.0,0.0,0.0,0.0,0.0,0.0,0.0,0.0,0.0,0.0,0.0,0.0,0.0,0.0,0.0,0.0,0.0,0.0,0.0,0.0,0.0,-2.4119,-2.4841,0.0,0.0,0.0,0.0,0.0,0.0,0.0,0.0,-2.4764,0.0,0.0,0.0,0.0,0.0,0.0,0.0,0.0,0.0,0.0,0.0,0.0,0.0,0.0,0.0,0.0,0.0,0.0,0.0,0.0,0.0,0.0,0.0,0.0,0.0,0.0,0.0,0.0,0.0,0.0,0.0,0.0,0.0,0.0,0.0,0.0,0.0,0.0,0.0,0.0,0.0,0.0,0.0,0.0,0.0,0.0,0.0,0.0,0.0,0.0,0.0,0.0,0.0,0.0,0.0,0.0,-2.6792,-2.6805,-2.6873,-2.7046,-2.7804,-2.8274,-2.8401,-2.7445,-2.7602,-2.8917,0.0,0.0,0.0,0.0,0.0,0.0,0.0,0.0,0.0,0.0,0.0,0.0,0.0,0.0,0.0,0.0,0.0,0.0,0.0,0.0,0.0,0.0,0.0,0.0,0.0,0.0,0.0,0.0,0.0,0.0,0.0,0.0,0.0,0.0,0.0,0.0,0.0,0.0,0.0,-2.4793,-2.5072,0.0,0.0,0.0,0.0,0.0,0.0,0.0,0.0,-2.5067,0.0,0.0,0.0,0.0,0.0,0.0,0.0,0.0,0.0,0.0,0.0,0.0,0.0,0.0,0.0,0.0,0.0,0.0,0.0,0.0,0.0,0.0,0.0,0.0,0.0,0.0,0.0,0.0,0.0,0.0,0.0,0.0,0.0,0.0,0.0,0.0,0.0,0.0,0.0,0.0,0.0,0.0,0.0,0.0,0.0,0.0,0.0,0.0,0.0,0.0,0.0,0.0,0.0,0.0,0.0,-2.7404,-2.6982,-2.6742,-2.6765,-2.7558,-2.7984,-2.7973,-2.7163,-2.7525,0.0,0.0,0.0,0.0,0.0,0.0,0.0,0.0,0.0,0.0,0.0,0.0,0.0,0.0,0.0,0.0,0.0,0.0,0.0,0.0,0.0,0.0,0.0,0.0,0.0,0.0,0.0,0.0,0.0,0.0,0.0,0.0,0.0,0.0,0.0,0.0,0.0,0.0,0.0,0.0,-2.5072,-2.5197,-2.4774,0.0,0.0,0.0,0.0,0.0,0.0,-2.5351,-2.5293,0.0,0.0,0.0,0.0,0.0,0.0,0.0,0.0,0.0,0.0,0.0,0.0,0.0,0.0,0.0,0.0,0.0,0.0,0.0,0.0,0.0,0.0,0.0,0.0,0.0,0.0,0.0,0.0,0.0,0.0,0.0,0.0,0.0,0.0,0.0,0.0,0.0,0.0,0.0,0.0,0.0,0.0,0.0,0.0,0.0,0.0,0.0,0.0,0.0,0.0,0.0,0.0,0.0,0.0,0.0,-2.7976,-2.7163,-2.6626,-2.6495,-2.7129,-2.75,-2.7478,-2.6834,-2.7273,0.0,0.0,0.0,0.0,0.0,0.0,0.0,0.0,0.0,0.0,0.0,0.0,0.0,0.0,0.0,0.0,0.0,0.0,0.0,0.0,0.0,0.0,0.0,0.0,0.0,0.0,0.0,0.0,0.0,0.0,0.0,0.0,0.0,0.0,0.0,0.0,0.0,0.0,0.0,0.0,0.0,-2.5389,-2.5322,-2.5351,0.0,0.0,0.0,0.0,-2.5387,-2.5532,0.0,0.0,0.0,0.0,0.0,0.0,0.0,0.0,0.0,0.0,0.0,0.0,0.0,0.0,0.0,0.0,0.0,0.0,0.0,0.0,0.0,0.0,0.0,0.0,0.0,0.0,0.0,0.0,0.0,0.0,0.0,0.0,0.0,0.0,0.0,0.0,0.0,0.0,0.0,0.0,0.0,0.0,0.0,0.0,0.0,0.0,0.0,0.0,0.0,0.0,0.0,0.0,0.0,0.0,0.0,0.0,-2.8012,-2.7203,-2.6403,-2.5693,-2.5742,-2.5797,-2.5782,-2.5685,-2.6423,0.0,0.0,0.0,0.0,0.0,0.0,0.0,0.0,0.0,0.0,0.0,0.0,0.0,0.0,0.0,0.0,0.0,0.0,0.0,0.0,0.0,0.0,0.0,0.0,0.0,0.0,0.0,0.0,0.0,0.0,0.0,0.0,0.0,0.0,0.0,0.0,0.0,0.0,0.0,0.0,0.0,-2.5398,-2.5389,-2.5332,-2.5293,0.0,0.0,-2.5332,-2.5378,-2.5938,0.0,0.0,0.0,0.0,0.0,0.0,0.0,0.0,0.0,0.0,0.0,0.0,0.0,0.0,0.0,0.0,0.0,0.0,0.0,0.0,0.0,0.0,0.0,0.0,0.0,0.0,0.0,0.0,0.0,0.0,0.0,0.0,0.0,0.0,0.0,0.0,0.0,0.0,0.0,0.0,0.0,0.0,0.0,0.0,0.0,0.0,0.0,0.0,0.0,0.0,0.0,0.0,0.0,0.0,0.0,-2.8319,-2.7984,-2.6734,-2.5882,-2.5522,-2.5507,-2.5519,-2.5511,-2.5511,-2.6288,0.0,0.0,0.0,0.0,0.0,0.0,0.0,0.0,0.0,0.0,0.0,0.0,0.0,0.0,0.0,0.0,0.0,0.0,0.0,0.0,0.0,0.0,0.0,0.0,0.0,0.0,0.0,0.0,0.0,0.0,0.0,0.0,0.0,0.0,0.0,0.0,0.0,0.0,0.0,0.0,0.0,0.0,-2.5388,-2.537,0.0,0.0,0.0,-2.5852,-2.537,0.0,0.0,0.0,0.0,0.0,0.0,0.0,0.0,0.0,0.0,0.0,0.0,0.0,0.0,0.0,0.0,0.0,0.0,0.0,0.0,0.0,0.0,0.0,0.0,0.0,0.0,0.0,0.0,0.0,0.0,0.0,0.0,0.0,0.0,0.0,0.0,0.0,0.0,0.0,0.0,0.0,0.0,0.0,0.0,0.0,0.0,0.0,0.0,0.0,0.0,0.0,0.0,0.0,0.0,0.0,0.0,0.0,-2.7903,-2.6326,-2.5511,-2.5511,-2.5511,-2.5511,-2.5511,-2.5511,0.0,0.0,0.0,0.0,0.0,0.0,0.0,0.0,0.0,0.0,0.0,0.0,0.0,0.0,0.0,0.0,0.0,0.0,0.0,0.0,0.0,0.0,0.0,0.0,0.0,0.0,0.0,-2.5321,0.0,0.0,0.0,0.0,0.0,0.0,0.0,0.0,0.0,0.0,0.0,0.0,0.0,0.0,-2.5589,-2.6004,-2.5822,-2.5755,0.0,0.0,-2.6041,-2.5573,-2.614,-2.6285,0.0,0.0,0.0,0.0,0.0,0.0,0.0,0.0,0.0,0.0,0.0,0.0,0.0,0.0,0.0,0.0,0.0,0.0,0.0,0.0,0.0,0.0,0.0,0.0,0.0,0.0,0.0,0.0,0.0,0.0,0.0,0.0,0.0,0.0,0.0,0.0,0.0,0.0,0.0,0.0,0.0,0.0,0.0,0.0,0.0,0.0,0.0,0.0,0.0,0.0,0.0,0.0,0.0,0.0,0.0,-2.7684,-2.6264,-2.5511,-2.5511,-2.5511,-2.5511,-2.5511,-2.5511,-2.6285,0.0,0.0,0.0,0.0,0.0,0.0,0.0,0.0,0.0,0.0,0.0,0.0,0.0,0.0,0.0,0.0,0.0,0.0,0.0,0.0,0.0,0.0,0.0,0.0,0.0,0.0,0.0,0.0,0.0,0.0,0.0,0.0,0.0,0.0,0.0,0.0,0.0,0.0,0.0,0.0,0.0,-2.6755,-2.7701,-2.7026,-2.671,0.0,0.0,-2.5374,-2.6111,-2.6385,-2.6192,-2.526,0.0,0.0,0.0,0.0,0.0,0.0,0.0,0.0,0.0,0.0,0.0,0.0,0.0,0.0,0.0,0.0,0.0,0.0,0.0,0.0,0.0,0.0,0.0,0.0,0.0,0.0,0.0,0.0,0.0,0.0,0.0,0.0,0.0,0.0,0.0,0.0,0.0,0.0,0.0,0.0,0.0,0.0,0.0,0.0,0.0,0.0,0.0,0.0,0.0,0.0,0.0,0.0,0.0,-2.7605,-2.7681,-2.6255,-2.5511,-2.5511,-2.5511,-2.5511,-2.5511,-2.5511,-2.6285,0.0,0.0,0.0,0.0,0.0,0.0,0.0,0.0,0.0,0.0,0.0,0.0,0.0,0.0,0.0,0.0,0.0,0.0,0.0,0.0,0.0,0.0,0.0,0.0,0.0,0.0,0.0,0.0,-2.5149,-2.5171,-2.5171,0.0,0.0,0.0,0.0,0.0,0.0,0.0,0.0,0.0,0.0,-2.7479,-2.7941,-2.7595,0.0,0.0,-2.7083,-2.67,-2.6921,-2.667,-2.6465,-2.6515,-2.7191,0.0,0.0,0.0,0.0,0.0,0.0,0.0,0.0,0.0,0.0,0.0,0.0,0.0,0.0,0.0,0.0,0.0,0.0,0.0,0.0,0.0,0.0,0.0,0.0,0.0,0.0,0.0,0.0,0.0,0.0,0.0,0.0,0.0,0.0,0.0,0.0,0.0,0.0,0.0,0.0,0.0,0.0,0.0,0.0,0.0,0.0,0.0,0.0,0.0,0.0,0.0,0.0,-2.7701,-2.7994,-2.6603,-2.5743,-2.5511,-2.5724,-2.5743,-2.5511,-2.5511,-2.6285,0.0,0.0,0.0,0.0,0.0,0.0,0.0,0.0,0.0,0.0,0.0,0.0,0.0,0.0,0.0,0.0,0.0,0.0,0.0,0.0,0.0,0.0,0.0,0.0,0.0,0.0,0.0,0.0,-2.5031,-2.5005,-2.4949,0.0,0.0,0.0,0.0,0.0,0.0,0.0,0.0,0.0,0.0,-2.8275,-2.8628,-2.8341,-2.8166,-2.8409,-2.7889,-2.7532,-2.7692,-2.7144,-2.6776,-2.6961,0.0,0.0,0.0,0.0,0.0,0.0,0.0,0.0,0.0,0.0,0.0,0.0,0.0,0.0,0.0,0.0,0.0,0.0,0.0,0.0,0.0,0.0,0.0,0.0,0.0,0.0,0.0,-2.7682,0.0,0.0,-2.8912,0.0,0.0,0.0,0.0,0.0,0.0,0.0,0.0,0.0,0.0,0.0,0.0,0.0,0.0,0.0,0.0,0.0,0.0,0.0,0.0,0.0,0.0,-2.8039,-2.866,-2.7362,-2.6296,-2.5569,-2.6257,-2.6285,-2.555,-2.5511,-2.6304,-2.7967,0.0,0.0,0.0,0.0,0.0,0.0,0.0,0.0,0.0,0.0,0.0,0.0,0.0,0.0,0.0,0.0,0.0,0.0,0.0,0.0,0.0,0.0,0.0,0.0,0.0,0.0,-2.4779,-2.4837,-2.4855,0.0,0.0,0.0,0.0,0.0,0.0,0.0,0.0,0.0,0.0,-2.95,-2.9213,-3.0083,-2.935,-2.895,-2.9696,-2.8355,-2.7522,-2.8275,-2.7808,-2.7059,0.0,0.0,0.0,0.0,0.0,0.0,0.0,0.0,0.0,0.0,0.0,0.0,0.0,0.0,0.0,0.0,0.0,0.0,0.0,0.0,0.0,0.0,0.0,0.0,0.0,0.0,0.0,-2.9397,-2.9289,0.0,0.0,0.0,0.0,0.0,0.0,0.0,0.0,0.0,0.0,0.0,-3.0897,-3.0868,0.0,0.0,0.0,0.0,0.0,0.0,0.0,0.0,0.0,0.0,0.0,0.0,-2.8807,-2.9451,-2.8258,-2.7155,-2.6346,-2.6566,-2.6323,-2.555,-2.5511,-2.6566,-2.8791,0.0,0.0,0.0,0.0,0.0,0.0,0.0,0.0,0.0,0.0,0.0,0.0,0.0,0.0,0.0,0.0,0.0,0.0,0.0,0.0,0.0,0.0,0.0,0.0,0.0,-2.5615,0.0,0.0,0.0,0.0,0.0,0.0,0.0,0.0,0.0,0.0,0.0,-3.0379,-3.1102,-3.0448,-2.9994,-3.0256,-2.9827,-2.9596,0.0,0.0,0.0,0.0,0.0,0.0,0.0,0.0,0.0,0.0,0.0,0.0,0.0,0.0,-3.2819,-3.228,-3.1771,-3.1401,-3.1412,0.0,0.0,0.0,0.0,0.0,0.0,0.0,0.0,0.0,0.0,0.0,0.0,0.0,0.0,-2.9428,0.0,-2.9289,0.0,0.0,0.0,0.0,0.0,0.0,0.0,0.0,-3.0661,-3.1254,-3.137,-3.1441,-3.2078,0.0,-3.4061,-3.4197,0.0,0.0,0.0,0.0,0.0,0.0,0.0,0.0,-2.9273,-2.9956,-2.8981,-2.8025,-2.7224,-2.7437,-2.7232,-2.642,-2.6962,-2.7911,-2.9265,-3.0926,-3.1939,0.0,0.0,0.0,0.0,0.0,0.0,0.0,0.0,0.0,0.0,0.0,0.0,0.0,0.0,0.0,0.0,0.0,0.0,0.0,0.0,0.0,0.0,0.0,-2.6287,0.0,0.0,0.0,0.0,0.0,0.0,0.0,0.0,0.0,-3.0804,-3.1405,-3.1957,-3.2325,-3.1424,-3.0714,-3.0565,0.0,0.0,0.0,0.0,0.0,0.0,0.0,-2.8959,-3.0103,-3.0712,-3.1254,-3.1818,-3.353,-3.4573,-3.3702,0.0,0.0,-3.3384,-3.2561,-3.2101,-3.2416,-3.1513,-3.0782,-3.1182,-3.1172,-3.1125,0.0,0.0,0.0,0.0,0.0,0.0,0.0,0.0,-2.6948,-2.8279,0.0,-2.9404,0.0,0.0,0.0,0.0,-3.0559,-3.1452,0.0,0.0,-3.1738,-3.169,-3.0864,-3.093,-3.0925,-3.1064,-3.3477,-3.4613,-3.4545,-3.3664,0.0,0.0,0.0,0.0,0.0,0.0,-2.9538,-3.0247,-2.9743,-2.8992,-2.8161,-2.8896,-2.8896,-2.8053,-2.964,-3.0163,-2.9506,-3.2463,-3.3901,-3.3205,-3.3737,0.0,0.0,0.0,0.0,0.0,0.0,0.0,0.0,0.0,0.0,0.0,0.0,0.0,0.0,0.0,0.0,0.0,0.0,0.0,0.0,-2.7245,0.0,0.0,0.0,0.0,0.0,0.0,0.0,0.0,0.0,0.0,-3.2353,-3.2485,-3.294,-3.3732,0.0,0.0,0.0,0.0,-2.9757,-2.9795,-2.9776,-3.0075,-3.1023,-3.1149,-3.114,-3.1288,0.0,0.0,-3.291,-3.4438,-3.5328,-3.4536,-3.4337,-3.4177,-3.3414,-3.2631,-3.2387,-3.3219,-3.2206,-3.1347,-3.193,-3.2263,-3.2279,-3.4109,0.0,0.0,0.0,0.0,-3.2443,-3.2163,-3.1196,-3.1226,-3.1313,-3.1342,-3.0449,0.0,0.0,0.0,0.0,0.0,0.0,-3.1787,-3.1583,-3.3179,-3.3434,-3.255,-3.3803,-3.4704,-3.5293,-3.5993,-3.6356,-3.6299,-3.5418,-3.5243,-3.5751,0.0,0.0,0.0,0.0,-3.2186,-3.2864,-3.2331,-3.1313,-2.9901,-3.0095,-2.9562,-2.8175,-2.9788,-3.0567,-3.0325,-3.2375,-3.3692,-3.4071,-3.4179,0.0,0.0,0.0,0.0,0.0,0.0,0.0,0.0,0.0,0.0,0.0,0.0,0.0,0.0,0.0,0.0,0.0,0.0,0.0,-2.8468,-2.836,-2.8417,0.0,0.0,0.0,0.0,0.0,0.0,0.0,0.0,0.0,-3.3045,-3.3129,-3.365,0.0,0.0,-3.1752,-3.2847,-3.1667,-3.0864,-3.1336,-3.0997,0.0,-3.108,-3.0719,-3.0428,-3.0486,-3.1788,-3.3083,-3.3851,-3.4397,-3.467,-3.4375,-3.3364,-3.2654,-3.3041,-3.301,-3.3239,-3.4015,-3.4326,-3.4049,-3.3246,-3.3893,-3.4398,-3.659,-3.4689,-3.4729,-3.4294,-3.3652,-3.4458,-3.4351,-3.3616,-3.3654,-3.3926,-3.4294,-3.2764,-3.2135,-3.2182,-3.0704,0.0,0.0,0.0,-3.2883,-3.3502,-3.4681,-3.5236,-3.5392,-3.6735,-3.7663,-3.8148,-3.8788,-3.9131,-3.9122,-3.819,-3.819,-3.8844,0.0,0.0,-3.5777,-3.4532,-3.4135,-3.4603,-3.4334,-3.3519,-3.2213,-3.152,-3.0516,-2.9279,-3.0839,-3.1735,-3.1754,-3.3344,-3.447,-3.4987,-3.4874,-3.4774,0.0,0.0,0.0,0.0,0.0,0.0,0.0,0.0,0.0,0.0,0.0,-2.8421,0.0,0.0,0.0,0.0,-3.1857,-3.1219,-3.0016,-3.0182,0.0,0.0,0.0,0.0,0.0,0.0,0.0,-3.2703,-3.345,-3.4015,-3.4017,-3.4074,-3.4355,-3.5024,-3.3497,-3.2699,-3.3655,0.0,-3.177,-3.1822,-3.1471,-3.1226,-3.1287,-3.0986,-3.0868,-3.1275,-3.254,-3.3669,-3.4313,-3.4681,-3.4884,-3.4685,-3.371,-3.3044,-3.3826,-3.4096,-3.4308,-3.4909,-3.5435,-3.5416,-3.4464,-3.4876,-3.4915,-3.9796,-3.7546,-3.6692,-3.5679,-3.473,-3.5549,-3.5454,-3.4739,-3.4796,-3.6038,-3.7909,-3.5698,-3.5465,-3.6658,-3.4348,0.0,-3.3701,-3.3638,-3.4567,-3.6281,-3.6284,-3.7152,-3.8712,-3.9524,-3.9942,-4.0042,-4.1567,-4.2335,-4.2324,-4.1498,-4.1466,-4.2066,-3.8074,-3.632,-3.6776,-3.6185,-3.5836,-3.5842,-3.6021,-3.566,-3.4699,-3.3015,-3.1733,-3.095,-3.2472,-3.3334,-3.3437,-3.495,-3.5812,-3.5821,-3.5698,-3.5649,-3.5665,0.0,0.0,0.0,0.0,0.0,0.0,0.0,0.0,0.0,0.0,0.0,0.0,0.0,0.0,0.0,-3.2433,0.0,-3.1756,-3.2359,0.0,0.0,0.0,-3.4189,-3.4159,-3.5017,-3.5507,-3.5248,0.0,0.0,-3.5114,-3.5043,-3.4977,-3.487,-3.4308,-3.3926,-3.4009,-3.3353,-3.2522,-3.1828,-3.1656,-3.1661,-3.1775,-3.1788,-3.2027,-3.2716,-3.3858,-3.4381,-3.4371,-3.4962,-3.5456,-3.5372,-3.4754,-3.4334,-3.5162,-3.5271,-3.5608,-3.5818,-3.5995,-3.6039,-3.5942,-3.5507,-3.4836,-4.2552,-4.1945,-4.1746,-3.9648,-3.6565,-3.7396,-3.7607,-3.7355,-3.7327,-3.7315,-3.7226,-3.6535,-3.6193,-3.5988,-3.4737,-3.497,-3.6259,-3.5665,-3.6586,-3.8688,-3.885,-3.9403,-4.0351,-4.126,-4.2006,-4.2583,-4.2947,-4.3449,-4.4051,-4.3191,-4.2826,-4.295,-4.199,-4.0926,-3.9805,-3.9651,-3.9277,-3.8627,-3.8727,-3.7728,-3.5626,-3.3929,-3.2967,-3.2758,-3.3158,-3.3689,-3.4355,-3.5388,-3.5953,-3.5953,-3.5774,-3.596,-3.6607,-3.5053,0.0,0.0,0.0,0.0,0.0,0.0,0.0,0.0,0.0,-3.2994,-3.2033,0.0,-3.4574,0.0,-3.3838,-3.3396,-3.2673,-3.2769,0.0,0.0,-3.4962,-3.5624,-3.6987,-3.7252,-3.7045,-3.6389,-3.6197,-3.5837,-3.5166,-3.5089,-3.5111,-3.5224,-3.451,-3.4434,-3.5676,-3.4674,-3.3681,-3.3345,-3.335,-3.3308,-3.2709,-3.2733,-3.2667,-3.2222,-3.3372,-3.4086,-3.34,-3.3998,-3.4545,-3.443,-3.3744,-3.3467,-3.4012,-3.5054,-3.6211,-3.6995,-3.7822,-3.8201,-3.7553,-3.7336,-3.6983,-4.3955,-4.359,-4.3607,-4.2203,-4.0067,-4.0479,-4.065,-4.0602,-4.0606,-4.0354,-3.9888,-3.9071,-3.811,-3.703,-3.6534,-3.6863,-3.7727,-3.7317,-3.8258,-4.0232,-4.0342,-4.1001,-4.2167,-4.3041,-4.3869,-4.4647,-4.4636,-4.5015,-4.5731,-4.5267,-4.4847,-4.4492,-4.4885,-4.4446,-4.319,-4.244,-4.1645,-4.0809,-4.0134,-3.9095,-3.7683,-3.5628,-3.4705,-3.5,-3.4324,-3.4513,-3.5717,-3.5823,-3.5893,-3.5952,-3.6118,-3.6276,-3.6364,-3.608,-3.6122,0.0,0.0,0.0,0.0,0.0,0.0,0.0,0.0,0.0,0.0,0.0,-3.6178,-3.5605,-3.5691,-3.5455,-3.4668,-3.5007,-3.563,-3.6556,-3.7012,-3.7636,-3.8663,-3.8704,-3.829,-3.7467,-3.6922,-3.6299,-3.5483,-3.5353,-3.5391,-3.5521,-3.5085,-3.4944,-3.5361,-3.4487,-3.3634,-3.3557,-3.3646,-3.3592,-3.3081,-3.3151,-3.2906,-3.2164,-3.2919,-3.3448,-3.2567,-3.3415,-3.4218,-3.4107,-3.4019,-3.3983,-3.4185,-3.5167,-3.626,-3.6746,-3.7697,-3.8383,-3.8493,-3.7968,-3.7224,-4.4816,-4.4055,-4.4149,-4.4133,-4.3997,-4.3908,-4.3721,-4.3509,-4.3583,-4.3525,-4.3342,-4.1896,-4.037,-3.8908,-3.8789,-3.875,-3.8803,-3.8721,-3.9649,-4.1364,-4.1401,-4.234,-4.4003,-4.4843,-4.5567,-4.6248,-4.6359,-4.6775,-4.7378,-4.7384,-4.6983,-4.6239,-4.6892,-4.6849,-4.6086,-4.4612,-4.3393,-4.2485,-4.1081,-4.0268,-4.0015,-3.7614,-3.6648,-3.7186,-3.5558,-3.5346,-3.6836,-3.6167,-3.5801,-3.5924,-3.6458,-3.6492,-3.6002,-3.7147,-3.7584,0.0,-3.7482,0.0,0.0,0.0,0.0,0.0,0.0,0.0,0.0,-3.7155,-3.7127,-3.6769,-3.7463,-3.7642,-3.6966,-3.7694,-3.8257,-3.8373,-3.905,-3.9545,-3.9642,-3.9656,-3.9328,-3.847,-3.7611,-3.677,-3.5994,-3.5762,-3.5704,-3.5684,-3.548,-3.5151,-3.4543,-3.3972,-3.3575,-3.3305,-3.3287,-3.35,-3.3643,-3.3658,-3.3328,-3.2444,-3.2958,-3.2957,-3.1904,-3.321,-3.436,-3.4203,-3.4721,-3.5166,-3.4963,-3.5496,-3.596,-3.5967,-3.6759,-3.7718,-3.8463,-3.7766,-3.6512,-4.6612,-4.587,-4.6494,-4.6362,-4.573,-4.5702,-4.4883,-4.3576,-4.3584,-4.3221,-4.2544,-4.222,-4.1525,-4.0523,-3.9804,-3.9859,-4.0414,-3.9778,-4.0755,-4.3052,-4.3046,-4.395,-4.5567,-4.6427,-4.6913,-4.7107,-4.7783,-4.8236,-4.8393,-4.836,-4.7937,-4.7154,-4.7342,-4.7025,-4.6209,0.0,0.0,0.0,-4.313,-4.2279,-4.0873,-3.9058,-3.8163,-3.8246,-3.597,0.0,-3.6137,-3.6041,-3.5963,-3.5978,-3.5951,0.0,0.0,0.0,0.0,0.0,0.0,0.0,0.0,0.0,0.0,0.0,-4.014,-3.8999,-3.7475,-3.749,-3.7584,-3.7507,-3.7901,-3.8087,-3.7932,-3.8078,-3.8489,-3.9166,-3.941,-3.9777,-4.0442,-4.0558,-4.023,-3.9366,-3.8531,-3.7691,-3.6817,-3.611,-3.5704,-3.5723,-3.5085,-3.4601,-3.4466,-3.4795,-3.4872,-3.4311,-3.4148,-3.4497,-3.5193,-3.5238,-3.4611,-3.3479,-3.4102,-3.3993,-3.2223,-3.3432,-3.4676,-3.4167,-3.4684,-3.5155,-3.4945,-3.5375,-3.5778,-3.6,-3.6581,-3.7178,-3.7504,-3.7066,-3.6558,-4.7259,-4.6883,-4.7281,-4.7184,0.0,-4.6372,-4.5709,-4.4871,-4.4884,-4.4406,-4.356,-4.3157,-4.2514,-4.1633,-4.0713,-4.0535,-4.0994,-4.0929,-4.1844,-4.3546,-4.398,-4.486,-4.6108,-4.6523,-4.7139,-4.7929,-4.7909,-4.8354,-4.9165,-4.9192,-4.8779,-4.8029,-4.8059,-4.7681,-4.6918,-4.6487,-4.586,-4.4993,-4.4142,-4.3274,-4.2357,-4.0717,-3.9605,-3.9097,-3.7033,0.0,0.0,0.0,0.0,0.0,0.0,0.0,0.0,-3.8166,0.0,-3.9918,-3.9976,-4.0364,-4.1241,-4.1319,-4.173,-4.2602,-4.1877,-4.0746,-3.9187,-3.9174,-3.92,-3.9177,-3.9316,-3.9412,-3.9393,-3.9425,-3.9605,-4.0031,-4.0133,-4.0339,-4.0713,-4.0829,-4.05,-3.9669,-3.8837,-3.8147,-3.7694,-3.6503,-3.5985,-3.6218,-3.5599,-3.5027,-3.4988,-3.464,-3.4331,-3.4389,-3.4826,-3.5224,-3.565,-3.5754,-3.5368,-3.4124,-3.4002,-3.3474,-3.1833,-3.2875,-3.3846,-3.3547,-3.4369,-3.5162,-3.4983,-3.5082,-3.5207,-3.5286,-3.5635,-3.5962,-3.6081,-3.6342,-3.6592,-4.7554,-4.7437,-4.7391,-4.7391,-4.7333,-4.652,-4.618,-4.6153,0.0,0.0,0.0,-4.4199,-4.3405,-4.252,-4.1524,-4.1247,-4.1496,-4.1907,-4.27,-4.3812,-4.452,-4.5332,-4.6144,-4.6266,-4.7112,-4.8552,-4.8151,-4.8713,-5.0203,-5.0429,-5.0022,-4.9181,-4.9152,-4.8639,-4.7604,-4.6729,-4.63,-4.6241,-4.4898,-4.4,-4.3665,-4.2139,-4.0873,-3.9959,-3.8112,-3.7161,-3.7209,-3.6356,-3.592,-3.6065,-3.7276,-3.7752,-3.7266,-3.9153,-4.0481,-4.0896,-4.1602,-4.2489,-4.3507,-4.3617,-4.3559,-4.3442,-4.2619,-4.177,-4.0858,-4.08,-4.0781,-4.0707,-4.0726,-4.0692,-4.0629,-4.0688,-4.0732,-4.0726,-4.0764,-4.0808,-4.0827,-4.0861,-4.0641,-3.9901,-3.9189,-3.8636,-3.8559,-3.7156,-3.6261,-3.6726,-3.6192,-3.5704,-3.5549,-3.4621,-3.4098,-3.464,-3.5232,-3.5679,-3.5718,-3.5736,-3.5379,-3.4388,-3.3824,-3.3063,-3.2173,-3.2546,-3.3096,-3.3127,-3.4273,-3.5026,-3.5038,-3.4887,-3.4727,-3.4588,-3.4755,-3.4943,-3.5051,-3.5748,-3.6358,-4.822,-4.7557,-4.7449,-4.7405,-4.7326,-4.6415,-4.6017,-4.6037,-4.6137,-4.5714,-4.4884,-4.4723,-4.4129,-4.3213,-4.2256,-4.2241,-4.2858,-4.2337,-4.2947,-4.4444,-4.4656,-4.5191,-4.6037,-4.6785,-4.7688,-4.8738,-5.0076,-5.1253,-5.2241,-5.2952,-5.2551,-5.1167,-5.1031,-4.9856,-4.7725,-4.6749,-4.63,-4.63,-4.6066,-4.5207,-4.3723,-4.2728,-4.1813,-4.0873,-3.8567,-3.7546,-3.8085,-3.7318,-3.716,-3.7711,-3.7916,-3.8279,-3.8904,-3.9287,-4.013,-4.159,-4.1951,-4.2772,-4.4308,-4.4453,-4.4159,-4.3527,-4.2792,-4.1916,-4.0926,-4.0805,-4.0805,-4.0801,-4.0849,-4.083,-4.0723,-4.0791,-4.0859,-4.0807,-4.0839,-4.0888,-4.0878,-4.0931,-4.0923,-4.0743,-4.0098,-3.9559,-3.9394,-3.802,-3.6962,-3.6962,-3.6373,-3.5753,-3.5687,-3.551,-3.5394,-3.5491,-3.5607,-3.5706,-3.5718,-3.5718,-3.53,-3.4289,-3.4681,-3.4314,-3.2737,-3.3662,-3.4339,-3.3907,-3.463,-3.5181,-3.5219,-3.5086,-3.4939,-3.4999,-3.5012,-3.4977,-3.5062,-3.5451,-3.5743,-4.9243,-4.8905,-4.884,-4.853,-4.7991,-4.661,-4.6018,-4.6099,-4.6593,-4.6576,-4.6186,-4.5716,-4.5245,-4.4734,-4.3788,-4.3298,-4.3266,-4.3395,-4.4122,-4.5362,-4.593,-4.6433,-4.6861,-4.767,-4.8292,-4.8807,-5.0411,-5.1686,-5.2523,-5.3001,-5.3039,-5.2636,-5.1402,-4.9634,-4.7686,-4.6729,-4.63,-4.63,-4.63,-4.5695,-4.4445,-4.357,-4.2458,-4.1127,-3.9497,-3.8507,-3.8245,-3.7905,-3.7793,-3.7994,-3.8464,-3.8878,-3.9289,-4.0226,-4.1345,-4.2613,-4.3218,-4.4083,-4.539,-4.546,-4.4917,-4.3673,-4.3234,-4.2435,-4.1023,-4.0954,-4.0935,-4.0855,-4.0918,-4.0902,-4.0771,-4.0839,-4.0885,-4.0859,-4.0867,-4.0904,-4.0904,-4.0971,-4.0996,-4.0935,-4.0313,-4.0037,-4.0469,-3.8615,-3.7482,-3.7633,-3.6727,-3.5826,-3.5706,-3.5718,-3.5704,-3.5704,-3.5704,-3.5695,-3.5707,-3.5698,-3.5444,-3.4981,-3.4846,-3.4462,-3.3486,-3.4194,-3.4305,-3.4117,-3.4649,-3.5209,-3.5321,-3.4845,-3.46,-3.4515,-3.4203,-3.4011,-3.4071,-3.4527,-3.5136,-5.0017,-4.9997,-4.9827,-4.932,-4.8555,-4.6804,-4.6263,-4.6709,-4.6931,-4.7458,-4.7963,-4.7045,-4.6536,-4.6441,-4.5454,-4.4678,-4.426,-4.4873,-4.5572,-4.6319,-4.7315,-4.7793,-4.7839,-4.8441,-4.8822,-4.9192,-5.0731,-5.1954,-5.2694,-5.3228,-5.3721,-5.3847,-5.1452,-4.9442,-4.8174,-4.712,-4.6495,-4.6319,-4.63,-4.589,-4.5012,-4.4156,-4.2965,-4.1479,-4.0348,-3.946,-3.8788,-3.8577,-3.8459,-3.8477,-3.9161,-3.965,-3.9899,-4.1205,-4.2497,-4.3589,-4.4333,-4.5142,-4.6064,-4.5986,-4.5227,-4.3727,-4.3422,-4.2663,-4.1253,-4.1039,-4.1039,-4.0974,-4.1013,-4.0968,-4.0863,-4.0926,-4.0933,-4.0918,-4.094,-4.0961,-4.0942,-4.0998,-4.1033,-4.095,-4.0511,-4.0449,-4.0605,-3.9258,-3.8066,-3.7891,-3.6994,-3.6129,-3.5807,-3.5727,-3.5712,-3.5693,-3.5684,-3.5715,-3.5716,-3.5707,-3.5637,-3.557,-3.5056,-3.4629,-3.4308,-3.4278,-3.4332,-3.4378,-3.4776,-3.5239,-3.5325,-3.4913,-3.4424,-3.426,-3.3833,-3.3383,-3.348,-3.3997,-3.473,-5.0117,-4.9961,-4.9337,-4.885,-4.8522,-4.6938,-4.706,-4.8138,-4.6932,-4.7971,-5.0368,-4.8748,-4.8077,-4.8017,-4.7036,-4.6544,-4.6552,-4.6892,-4.7074,-4.7229,-4.8193,-4.8697,-4.8678,-4.8781,-4.922,-5.0084,-5.1714,-5.2956,-5.3796,-5.5243,-5.5719,-5.4784,-5.174,-5.0048,-4.9673,-4.8271,-4.71,-4.6319,-4.63,-4.589,-4.5012,-4.4153,-4.3238,-4.2301,-4.068,-3.9994,-4.0267,-3.9666,-3.9573,-4.0104,-4.0206,-4.0715,-4.1531,-4.188,-4.2783,-4.4408,-4.4715,-4.5179,-4.5946,-4.5373,-4.4576,-4.3603,-4.2883,-4.2093,-4.112,-4.0999,-4.1046,-4.1075,-4.107,-4.1061,-4.1,-4.1052,-4.1037,-4.1,-4.1052,-4.1101,-4.1078,-4.1104,-4.1104,-4.1104,-4.0962,-4.1013,-4.0957,-4.0117,-3.9023,-3.7793,-3.7323,-3.6741,-3.6084,-3.5832,-3.577,-3.5673,-3.5654,-3.5684,-3.5715,-3.5715,-3.5643,-3.5489,-3.5425,-3.5213,-3.5038,-3.5066,-3.523,-3.4925,-3.5147,-3.5345,-3.5441,-3.5339,-3.4968,-3.4161,-3.3909,-3.3959,-3.4106,-3.4156,-3.4569,-5.1336,-5.0848,-5.0477,-4.9718,-4.8697,-4.7966,-4.8099,-4.8716,-4.8948,-5.0128,-5.1726,-5.1178,-5.0779,-5.0596,-4.9507,-4.8855,-4.854,-4.8218,-4.8341,-4.8798,-4.9335,-4.9562,-4.954,-5.0055,-5.0459,-5.0878,-5.2515,-5.3798,-5.4596,-5.5377,-5.502,-5.3623,-5.1726,-5.0633,-5.0067,-4.8915,-4.8135,-4.7783,-4.724,-4.6772,-4.6257,-4.4621,-4.3548,-4.3039,-4.1442,-4.056,-4.0679,-4.0389,-4.0314,-4.0519,-4.0596,-4.104,-4.1912,-4.2543,-4.3435,-4.4649,-4.5239,-4.5668,-4.5998,-4.5697,-4.4939,-4.3617,-4.3209,-4.2451,-4.111,-4.0963,-4.1007,-4.1039,-4.1081,-4.1101,-4.1066,-4.1081,-4.1081,-4.107,-4.1081,-4.1108,-4.1108,-4.1108,-4.1108,-4.1111,-4.1114,-4.1099,-4.0988,-4.0407,-3.9431,-3.8259,-3.7693,-3.7155,-3.6684,-3.6215,-3.5838,-3.5754,-3.5743,-3.5708,-3.5665,-3.5676,-3.5657,-3.5607,-3.5596,-3.5562,-3.5386,-3.5277,-3.5266,-3.5254,-3.5212,-3.5307,-3.5482,-3.4976,-3.4488,-3.3735,-3.254,-3.2251,-3.3292,-3.3511,-3.4017,-5.198,-5.1394,-5.1141,-5.0191,-4.8825,-4.8747,-4.9029,-4.959,-5.0591,-5.1821,-5.311,-5.3164,-5.3059,-5.272,-5.1511,-5.0548,-4.9969,-4.9525,-4.9511,-4.996,-5.0266,-5.0389,-5.0449,-5.1211,-5.1598,-5.1831,-5.3328,-5.4593,-5.5295,-5.4964,-5.43,-5.3253,-5.2045,-5.1082,-5.0434,-4.9567,-4.8972,-4.8674,-4.7798,-4.7303,-4.7014,-4.5128,-4.3966,-4.3792,-4.2442,-4.1568,-4.1428,-4.148,-4.1448,-4.1345,-4.1448,-4.1877,-4.2743,-4.3461,-4.4238,-4.5045,-4.5666,-4.5977,-4.5977,-4.5977,-4.5375,-4.4054,-4.3666,-4.2869,-4.1607,-4.1102,-4.0984,-4.1015,-4.1265,-4.1456,-4.1452,-4.1238,-4.1179,-4.1381,-4.1283,-4.1108,-4.1101,-4.1101,-4.1101,-4.1101,-4.1101,-4.1104,-4.1033,-4.0611,-3.9932,-3.9092,-3.8448,-3.7831,-3.7566,-3.7033,-3.6625,-3.6489,-3.6338,-3.5982,-3.5727,-3.5669,-3.5708,-3.5689,-3.5679,-3.5585,-3.5386,-3.5243,-3.5196,-3.5187,-3.509,-3.5132,-3.5402,-3.4853,-3.4129,-3.3017,-3.1804,-3.1087,-3.2319,-3.266,-3.3493,-5.1433,-5.1297,-5.0496,-4.9673,-4.8794,-4.8837,-4.9738,-5.111,-5.12,-5.2504,-5.4504,-5.4204,-5.4213,-5.4339,-5.2452,-5.1291,-5.0779,-5.0918,-5.0661,-5.0199,-5.0837,-5.123,-5.1313,-5.2064,-5.2453,-5.2656,-5.4103,-5.5392,-5.6141,-5.4741,-5.4359,-5.4846,-5.2547,-5.1371,-5.1128,-5.0303,-4.9488,-4.883,-4.7835,-4.719,-4.6969,-4.5551,-4.4647,-4.4438,-4.3612,-4.3027,-4.2954,-4.3085,-4.3124,-4.3163,-4.3092,-4.3567,-4.4491,-4.4685,-4.5093,-4.5783,-4.5958,-4.5977,-4.5977,-4.5977,-4.5608,-4.4773,-4.3996,-4.3141,-4.2248,-4.1587,-4.1256,-4.1066,-4.1848,-4.2273,-4.2334,-4.172,-4.1534,-4.2077,-4.1537,-4.1156,-4.11,-4.1096,-4.1115,-4.1096,-4.1076,-4.1085,-4.1104,-4.1088,-4.062,-4.0054,-3.9761,-3.94,-3.8605,-3.8305,-3.8092,-3.787,-3.7381,-3.6678,-3.6013,-3.5937,-3.5854,-3.5989,-3.6093,-3.5642,-3.5295,-3.5102,-3.5111,-3.5046,-3.4686,-3.4735,-3.5182,-3.5023,-3.4326,-3.3205,-3.1686,-3.127,-3.2141,-3.2467,-3.3297,-5.1902,-5.1316,-5.0477,-4.9599,-4.8896,-4.9384,-5.0298,-5.1465,-5.242,-5.3911,-5.533,-5.4707,-5.4399,-5.4474,-5.2655,-5.1846,-5.1865,-5.1978,-5.1598,-5.093,-5.1115,-5.1495,-5.2029,-5.2317,-5.3059,-5.403,-5.4669,-5.545,-5.6057,-5.4622,-5.3933,-5.3837,-5.2182,-5.1141,-5.1074,-5.0801,-5.0439,-5.0079,-4.9116,-4.8358,-4.7791,-4.6665,-4.5804,-4.5225,-4.4052,-4.3388,-4.3356,-4.3397,-4.343,-4.3449,-4.3438,-4.3837,-4.4715,-4.5278,-4.5666,-4.5938,-4.5977,-4.5977,-4.5977,-4.5977,-4.5647,-4.4889,-4.454,-4.3938,-4.318,-4.2753,-4.2588,-4.2655,-4.282,-4.3275,-4.3557,-4.2708,-4.1986,-4.2153,-4.1593,-4.11,-4.1031,-4.1031,-4.1031,-4.1025,-4.1025,-4.1037,-4.1047,-4.1081,-4.0992,-4.068,-4.02,-3.9751,-3.9376,-3.892,-3.8614,-3.84,-3.7791,-3.7269,-3.7579,-3.6872,-3.6618,-3.692,-3.6996,-3.6555,-3.6176,-3.4986,-3.4706,-3.5181,-3.4744,-3.4487,-3.4999,-3.4658,-3.4057,-3.3089,-3.1559,-3.1226,-3.2215,-3.2474,-3.3359,-5.1785,-5.0906,-5.0048,-4.9332,-4.8884,-4.9666,-5.0653,-5.18,-5.3613,-5.5048,-5.5742,-5.508,-5.442,-5.3846,-5.3011,-5.2407,-5.2189,-5.2009,-5.181,-5.1554,-5.1125,-5.1199,-5.1745,-5.2327,-5.3185,-5.4281,-5.5006,-5.565,-5.6014,-5.4537,-5.3754,-5.3613,-5.1886,-5.1008,-5.0996,-5.0998,-5.1005,-5.0823,-4.9997,-4.9084,-4.8288,-4.7375,-4.6525,-4.577,-4.4812,-4.4286,-4.4284,-4.4286,-4.4307,-4.4307,-4.4307,-4.4579,-4.5181,-4.5705,-4.5977,-4.5997,-4.5986,-4.5986,-4.5997,-4.5997,-4.5772,-4.5239,-4.4928,-4.4501,-4.3957,-4.3666,-4.351,-4.353,-4.3811,-4.422,-4.4413,-4.3759,-4.3128,-4.3026,-4.2357,-4.1844,-4.1792,-4.1578,-4.1324,-4.111,-4.1318,-4.1325,-4.1071,-4.105,-4.1061,-4.1081,-4.0511,-4.0207,-4.0095,-3.9782,-3.9392,-3.9295,-3.8748,-3.8697,-3.8887,-3.8565,-3.7361,-3.7423,-3.7307,-3.7033,-3.6394,-3.5137,-3.4639,-3.5114,-3.5116,-3.4783,-3.4474,-3.4172,-3.3525,-3.2711,-3.1686,-3.0956,-3.1757,-3.2458,-3.3299,-5.0945,-5.018,-4.9185,-4.8878,-4.8872,-4.9629,-5.0763,-5.2278,-5.4529,-5.5428,-5.5352,-5.5169,-5.3954,-5.2986,-5.3201,-5.3042,-5.185,-5.1316,-5.1547,-5.206,-5.109,-5.0675,-5.0947,-5.2427,-5.3224,-5.355,-5.517,-5.6102,-5.6169,-5.4563,-5.3669,-5.3358,-5.1874,-5.1004,-5.0996,-5.1005,-5.1004,-5.0821,-5.0113,-4.9234,-4.8335,-4.7552,-4.6771,-4.6025,-4.5822,-4.577,-4.5783,-4.5828,-4.5763,-4.5822,-4.5841,-4.5938,-4.588,-4.5977,-4.5977,-4.5997,-4.5994,-4.5994,-4.5986,-4.5994,-4.5975,-4.5792,-4.5278,-4.4889,-4.4734,-4.4171,-4.3763,-4.3899,-4.4384,-4.4851,-4.487,-4.4764,-4.4666,-4.4732,-4.3805,-4.3284,-4.3194,-4.2747,-4.1988,-4.1404,-4.1758,-4.1883,-4.1318,-4.1163,-4.1182,-4.1026,-4.0896,-4.0824,-4.0791,-4.0674,-4.0863,-4.0707,-3.9964,-3.9502,-3.9945,-4.0207,-3.8785,-3.7692,-3.7385,-3.7033,-3.6319,-3.5292,-3.4972,-3.5262,-3.5164,-3.4853,-3.4578,-3.4199,-3.3254,-3.2382,-3.1435,-3.0877,-3.1446,-3.2203,-3.2988,-5.123,-5.0903,-5.0059,-4.9601,-4.9506,-5.0057,-5.0952,-5.2087,-5.3782,-5.4271,-5.384,-5.3188,-5.2276,-5.1454,-5.1412,-5.1785,-5.2237,-5.1842,-5.2062,-5.2717,-5.2411,-5.2449,-5.305,-5.3656,-5.432,-5.4921,-5.5589,-5.6013,-5.5821,-5.4323,-5.3488,-5.3256,-5.1826,-5.1029,-5.0998,-5.0992,-5.0978,-5.0884,-5.0608,-4.9785,-4.8527,-4.8133,-4.734,-4.6122,-4.5977,-4.5986,-4.5964,-4.5986,-4.5997,-4.5977,-4.5977,-4.5977,-4.5977,-4.5977,-4.5997,-4.5994,-4.5983,-4.5972,-4.5941,-4.5972,-4.5991,-4.5956,-4.5733,-4.5647,-4.5627,-4.5356,-4.5142,-4.5181,-4.5481,-4.5626,-4.5615,-4.5626,-4.5394,-4.489,-4.4063,-4.3616,-4.3578,-4.3316,-4.2733,-4.2101,-4.2576,-4.2674,-4.2081,-4.1827,-4.161,-4.1077,-4.1023,-4.1025,-4.0993,-4.0974,-4.0994,-4.0916,-4.0357,-4.0058,-4.0409,-4.0441,-3.9524,-3.8447,-3.7947,-3.7279,-3.6453,-3.5663,-3.5394,-3.5427,-3.5325,-3.5085,-3.4789,-3.4217,-3.3408,-3.2546,-3.1862,-3.1594,-3.1497,-3.2099,-3.3037,-5.1386,-5.1294,-5.043,-5.0143,-5.0261,-5.0836,-5.1332,-5.2001,-5.3543,-5.3474,-5.2315,-5.2039,-5.1367,-5.0628,-5.0685,-5.1563,-5.2691,-5.276,-5.3145,-5.3465,-5.2779,-5.2933,-5.3599,-5.4104,-5.4836,-5.5653,-5.5827,-5.5954,-5.599,-5.4302,-5.343,-5.3288,-5.179,-5.0937,-5.1015,-5.1037,-5.1042,-5.0953,-5.061,-4.9833,-4.8696,-4.8139,-4.7357,-4.621,-4.5977,-4.5977,-4.5977,-4.5977,-4.5977,-4.5977,-4.5977,-4.5977,-4.5977,-4.5997,-4.5986,-4.5983,-4.596,-4.5929,-4.5898,-4.5937,-4.5968,-4.596,-4.5964,-4.5944,-4.5975,-4.5975,-4.5986,-4.5964,-4.5964,-4.5991,-4.596,-4.5991,-4.575,-4.5315,-4.4831,-4.4307,-4.4132,-4.4268,-4.384,-4.3268,-4.3433,-4.3393,-4.2916,-4.2606,-4.2277,-4.1587,-4.1364,-4.1185,-4.1088,-4.096,-4.0957,-4.0914,-4.0648,-4.0595,-4.0796,-4.0544,-4.0085,-3.9349,-3.8663,-3.7819,-3.6961,-3.6017,-3.5465,-3.6153,-3.6323,-3.5842,-3.5526,-3.4929,-3.4202,-3.3306,-3.2445,-3.2405,-3.2419,-3.268,-3.3463,-5.1511,-5.1425,-5.0557,-5.0549,-5.1062,-5.1703,-5.177,-5.1855,-5.3671,-5.3071,-5.1235,-5.1522,-5.1267,-5.0587,-5.1279,-5.2146,-5.2867,-5.3684,-5.4056,-5.3733,-5.2788,-5.2273,-5.2949,-5.3887,-5.4833,-5.5628,-5.5778,-5.5865,-5.5927,-5.4263,-5.3524,-5.3553,-5.1967,-5.102,-5.1205,-5.1228,-5.1113,-5.085,-5.0286,-4.9498,-4.8475,-4.7761,-4.6929,-4.6055,-4.5977,-4.5977,-4.5977,-4.5977,-4.5977,-4.5977,-4.5977,-4.5977,-4.5977,-4.5977,-4.5986,-4.5983,-4.5949,-4.5917,-4.5905,-4.5899,-4.5899,-4.5925,-4.5917,-4.5898,-4.5917,-4.5941,-4.596,-4.591,-4.5949,-4.598,-4.5937,-4.5949,-4.5953,-4.5983,-4.5733,-4.5414,-4.4967,-4.5394,-4.5006,-4.4074,-4.4208,-4.4447,-4.3629,-4.3463,-4.2997,-4.2261,-4.195,-4.1623,-4.1061,-4.0868,-4.0888,-4.084,-4.074,-4.0807,-4.0897,-4.0837,-4.0399,-4.0041,-3.9332,-3.8447,-3.7669,-3.6763,-3.619,-3.6867,-3.7244,-3.6738,-3.614,-3.558,-3.4786,-3.3811,-3.336,-3.3328,-3.3244,-3.3272,-3.3596,-5.2713,-5.3122,-5.2289,-5.1916,-5.1909,-5.1919,-5.1663,-5.1453,-5.2573,-5.2,-5.0521,-5.0627,-5.07,-5.0256,-5.1005,-5.1799,-5.281,-5.3639,-5.3869,-5.3719,-5.3422,-5.3612,-5.4181,-5.4618,-5.5084,-5.5596,-5.5654,-5.5701,-5.5673,-5.4225,-5.3801,-5.4433,-5.225,-5.152,-5.2077,-5.1609,-5.099,-5.0452,-5.0158,-4.9216,-4.7958,-4.7501,-4.6871,-4.6094,-4.5977,-4.5977,-4.5977,-4.5977,-4.5977,-4.5977,-4.5977,-4.5977,-4.5977,-4.5997,-4.5986,-4.5983,-4.5941,-4.5905,-4.5899,-4.5899,-4.5899,-4.5906,-4.5893,-4.5886,-4.5898,-4.5917,-4.5917,-4.5905,-4.5925,-4.5919,-4.5899,-4.5919,-4.5944,-4.5991,-4.5986,-4.5705,-4.52,-4.5433,-4.555,-4.4705,-4.516,-4.5045,-4.457,-4.4208,-4.3705,-4.255,-4.2098,-4.1819,-4.1122,-4.0796,-4.0856,-4.0848,-4.082,-4.0869,-4.0917,-4.0926,-4.0799,-4.0595,-3.9954,-3.9118,-3.8505,-3.7883,-3.7667,-3.7873,-3.817,-3.7899,-3.7015,-3.6258,-3.5286,-3.4626,-3.3926,-3.3681,-3.328,-3.3177,-3.3648,-5.3138,-5.3854,-5.3354,-5.3058,-5.2875,-5.265,-5.2174,-5.1675,-5.178,-5.1093,-4.9952,-5.0028,-5.0503,-5.0972,-5.16,-5.246,-5.349,-5.3908,-5.3873,-5.3592,-5.3717,-5.4088,-5.4585,-5.4866,-5.5164,-5.5437,-5.5504,-5.5429,-5.5171,-5.4336,-5.4013,-5.3611,-5.2469,-5.1938,-5.198,-5.1693,-5.1167,-5.0637,-5.0223,-4.9283,-4.8047,-4.7531,-4.6871,-4.624,-4.6035,-4.6016,-4.5997,-4.5977,-4.5977,-4.5977,-4.5977,-4.5977,-4.5977,-4.5977,-4.5986,-4.6003,-4.5972,-4.5917,-4.5906,-4.5899,-4.5886,-4.586,-4.5854,-4.5848,-4.5848,-4.588,-4.5912,-4.5867,-4.5893,-4.5893,-4.588,-4.5893,-4.5951,-4.598,-4.5994,-4.5792,-4.5317,-4.5725,-4.5763,-4.5528,-4.5603,-4.5808,-4.52,-4.5117,-4.4227,-4.3105,-4.266,-4.1938,-4.1117,-4.0947,-4.0804,-4.0815,-4.0826,-4.0848,-4.0877,-4.0878,-4.0898,-4.0743,-4.0538,-3.9732,-3.9177,-3.8788,-3.8811,-3.881,-3.9038,-3.8955,-3.8108,-3.7386,-3.6861,-3.6055,-3.4955,-3.4225,-3.4012,-3.3623,-3.4037,-5.3251,-5.4035,-5.4037,-5.3966,-5.3825,-5.3567,-5.2785,-5.2017,-5.1526,-5.0708,-4.9908,-4.9974,-5.1008,-5.2183,-5.2598,-5.3504,-5.4393,-5.4237,-5.4018,-5.3785,-5.3851,-5.4142,-5.4392,-5.4769,-5.4931,-5.5109,-5.5235,-5.5088,-5.48,-5.461,-5.3987,-5.3299,-5.2771,-5.2172,-5.1875,-5.152,-5.1322,-5.0915,-5.0312,-4.9544,-4.8635,-4.7979,-4.7267,-4.652,-4.6134,-4.6066,-4.6007,-4.5977,-4.5977,-4.5977,-4.5977,-4.5977,-4.5977,-4.5977,-4.5986,-4.5994,-4.5983,-4.598,-4.5938,-4.5906,-4.588,-4.5847,-4.5833,-4.58,-4.5814,-4.586,-4.5841,-4.5814,-4.586,-4.586,-4.5827,-4.588,-4.5919,-4.5968,-4.5991,-4.5994,-4.5986,-4.5997,-4.5986,-4.598,-4.5937,-4.5899,-4.5866,-4.5722,-4.52,-4.375,-4.3208,-4.2389,-4.1519,-4.1009,-4.0885,-4.082,-4.0812,-4.0807,-4.0807,-4.0807,-4.0858,-4.0829,-4.083,-4.0354,-3.9742,-3.9461,-3.9636,-3.9769,-3.9867,-3.9786,-3.9417,-3.8835,-3.8238,-3.7343,-3.6113,-3.5667,-3.5377,-3.4814,-3.4818,-5.4113,-5.4933,-5.4938,-5.4902,-5.4646,-5.342,-5.2518,-5.1989,-5.1477,-5.1202,-5.1168,-5.125,-5.2053,-5.3269,-5.3159,-5.3324,-5.3779,-5.3927,-5.3855,-5.4036,-5.4015,-5.4292,-5.456,-5.4781,-5.468,-5.4541,-5.4689,-5.4779,-5.4622,-5.438,-5.4176,-5.4234,-5.3099,-5.2516,-5.2292,-5.1628,-5.102,-5.0451,-5.0132,-4.9668,-4.9014,-4.8615,-4.7982,-4.7126,-4.6484,-4.6093,-4.6017,-4.5977,-4.5977,-4.5977,-4.5977,-4.5977,-4.5977,-4.5977,-4.5997,-4.5997,-4.5986,-4.5994,-4.598,-4.5932,-4.5906,-4.586,-4.5847,-4.58,-4.58,-4.5814,-4.5814,-4.58,-4.5814,-4.5814,-4.5814,-4.586,-4.5906,-4.5932,-4.5968,-4.5991,-4.5983,-4.5986,-4.5975,-4.5941,-4.5917,-4.588,-4.5833,-4.5833,-4.5258,-4.4427,-4.3634,-4.286,-4.2028,-4.119,-4.0919,-4.0784,-4.0808,-4.0812,-4.0792,-4.0804,-4.0826,-4.0848,-4.0868,-4.0888,-4.0276,-4.0102,-4.0247,-4.0419,-4.0587,-4.0423,-4.0127,-3.9683,-3.8955,-3.8099,-3.7205,-3.6466,-3.5867,-3.5561,-3.5297,-5.4426,-5.5226,-5.5636,-5.5772,-5.5444,-5.3906,-5.3023,-5.2675,-5.201,-5.1736,-5.1812,-5.1929,-5.2824,-5.411,-5.3684,-5.3671,-5.4117,-5.3897,-5.3706,-5.3709,-5.3696,-5.3751,-5.3723,-5.4068,-5.4098,-5.4076,-5.4361,-5.4439,-5.435,-5.4617,-5.4645,-5.3993,-5.3415,-5.2741,-5.2159,-5.1629,-5.1167,-5.085,-5.0653,-5.0253,-4.9547,-4.9371,-4.8652,-4.7668,-4.6931,-4.6555,-4.6114,-4.6016,-4.5997,-4.5997,-4.5977,-4.5977,-4.5977,-4.5977,-4.5977,-4.5977,-4.5997,-4.5986,-4.5972,-4.5968,-4.5932,-4.5906,-4.588,-4.5827,-4.5814,-4.58,-4.58,-4.58,-4.58,-4.58,-4.58,-4.5833,-4.588,-4.5906,-4.5932,-4.5949,-4.5972,-4.5986,-4.5986,-4.5953,-4.5929,-4.5893,-4.5854,-4.5827,-4.5413,-4.462,-4.3788,-4.2982,-4.2099,-4.1339,-4.0913,-4.0771,-4.0784,-4.0796,-4.0808,-4.08,-4.0815,-4.0837,-4.0867,-4.0917,-4.0723,-4.0723,-4.083,-4.0877,-4.0826,-4.0837,-4.0524,-4.0084,-3.9495,-3.8438,-3.7518,-3.676,-3.6118,-3.5644,-3.5502,-5.434,-5.508,-5.6074,-5.6446,-5.6066,-5.4521,-5.3836,-5.3766,-5.262,-5.2185,-5.2389,-5.2492,-5.3417,-5.4513,-5.3997,-5.4307,-5.4371,-5.3955,-5.3196,-5.3113,-5.3309,-5.3258,-5.3091,-5.32,-5.3421,-5.3917,-5.4136,-5.407,-5.432,-5.5123,-5.4956,-5.361,-5.3787,-5.3288,-5.2015,-5.1542,-5.144,-5.1226,-5.1199,-5.1004,-5.042,-5.0245,-4.9439,-4.8074,-4.7415,-4.6898,-4.6297,-4.6066,-4.6008,-4.6027,-4.5988,-4.5988,-4.5977,-4.5977,-4.5977,-4.5977,-4.5977,-4.5986,-4.5994,-4.5991,-4.5968,-4.5906,-4.5893,-4.588,-4.5833,-4.58,-4.58,-4.58,-4.58,-4.58,-4.58,-4.5814,-4.5847,-4.586,-4.5893,-4.5932,-4.596,-4.5975,-4.5994,-4.6003,-4.5949,-4.5893,-4.5854,-4.5808,-4.5349,-4.4833,-4.3987,-4.3233,-4.2408,-4.1641,-4.1293,-4.0939,-4.0965,-4.0842,-4.0803,-4.0796,-4.08,-4.0804,-4.0846,-4.0897,-4.0956,-4.0917,-4.0868,-4.0917,-4.0908,-4.0878,-4.0868,-4.0604,-3.9816,-3.8711,-3.7896,-3.7235,-3.6516,-3.5751,-3.5646,-5.397,-5.4242,-5.584,-5.6483,-5.6193,-5.4572,-5.4225,-5.4448,-5.2545,-5.2628,-5.4138,-5.3565,-5.4021,-5.4777,-5.4124,-5.3365,-5.3101,-5.2741,-5.2547,-5.2646,-5.287,-5.2897,-5.2937,-5.2605,-5.2658,-5.2941,-5.3537,-5.393,-5.4063,-5.4726,-5.5192,-5.4847,-5.4821,-5.4025,-5.2874,-5.2357,-5.1941,-5.1531,-5.1401,-5.1187,-5.1115,-5.0951,-5.0304,-4.8681,-4.7988,-4.7168,-4.6443,-4.6137,-4.6084,-4.6076,-4.6027,-4.5988,-4.5977,-4.5977,-4.5977,-4.5977,-4.5977,-4.5997,-4.5986,-4.5994,-4.596,-4.5905,-4.5899,-4.586,-4.5833,-4.58,-4.58,-4.58,-4.58,-4.58,-4.58,-4.58,-4.58,-4.5827,-4.586,-4.5899,-4.5917,-4.5941,-4.5983,-4.5991,-4.5949,-4.5905,-4.5867,-4.5841,-4.5601,-4.5186,-4.4534,-4.4095,-4.3617,-4.2709,-4.1917,-4.1544,-4.1203,-4.1003,-4.0803,-4.0803,-4.0796,-4.08,-4.0823,-4.0843,-4.0865,-4.0837,-4.0828,-4.0916,-4.0907,-4.0877,-4.0858,-4.0858,-4.0091,-3.8935,-3.8315,-3.7723,-3.6792,-3.5908,-3.5684,-5.3502,-5.3989,-5.4827,-5.5403,-5.5491,-5.4392,-5.4305,-5.4859,-5.3802,-5.3643,-5.4223,-5.4336,-5.4626,-5.5007,-5.4587,-5.3743,-5.3123,-5.2588,-5.2396,-5.2374,-5.2416,-5.2307,-5.238,-5.1939,-5.2225,-5.2719,-5.3488,-5.3962,-5.4043,-5.5284,-5.5544,-5.5235,-5.5201,-5.4571,-5.3523,-5.2849,-5.2447,-5.196,-5.1589,-5.1355,-5.1394,-5.1386,-5.064,-4.9618,-4.8616,-4.7752,-4.6971,-4.6327,-4.6137,-4.6105,-4.608,-4.6036,-4.5998,-4.5997,-4.5997,-4.5997,-4.5997,-4.5977,-4.5997,-4.5986,-4.5983,-4.596,-4.5925,-4.5887,-4.586,-4.5833,-4.58,-4.58,-4.58,-4.58,-4.58,-4.58,-4.58,-4.58,-4.5847,-4.5874,-4.5893,-4.5917,-4.596,-4.5991,-4.5929,-4.5905,-4.5912,-4.5874,-4.5814,-4.5476,-4.4984,-4.4776,-4.4607,-4.368,-4.2632,-4.2105,-4.1674,-4.1197,-4.0938,-4.0803,-4.0803,-4.0808,-4.0808,-4.082,-4.0839,-4.0831,-4.0889,-4.0959,-4.0931,-4.0846,-4.0837,-4.0798,-3.9954,-3.9217,-3.8567,-3.7859,-3.686,-3.6142,-3.5861,-5.2995,-5.3677,-5.4009,-5.4546,-5.4935,-5.4398,-5.4578,-5.5141,-5.4894,-5.4638,-5.4552,-5.4908,-5.5148,-5.5017,-5.4518,-5.3933,-5.3588,-5.2693,-5.2194,-5.1857,-5.191,-5.1677,-5.1362,-5.138,-5.1865,-5.2734,-5.3574,-5.4091,-5.4591,-5.572,-5.5986,-5.5704,-5.5401,-5.4801,-5.3947,-5.3074,-5.2782,-5.2235,-5.1826,-5.1411,-5.1391,-5.1367,-5.0984,-5.0106,-4.9267,-4.8333,-4.7467,-4.6619,-4.6238,-4.6142,-4.6098,-4.6072,-4.6017,-4.5997,-4.5986,-4.5986,-4.5997,-4.5997,-4.5997,-4.5997,-4.5986,-4.5972,-4.5929,-4.5912,-4.5874,-4.5847,-4.58,-4.58,-4.58,-4.58,-4.58,-4.58,-4.58,-4.58,-4.5814,-4.5827,-4.588,-4.5905,-4.5937,-4.5937,-4.5917,-4.5893,-4.5899,-4.5854,-4.5814,-4.578,-4.5327,-4.522,-4.4974,-4.424,-4.3347,-4.2723,-4.2157,-4.1525,-4.1125,-4.0808,-4.0808,-4.0808,-4.0808,-4.0827,-4.0866,-4.0873,-4.0912,-4.0943,-4.0897,-4.0812,-4.0804,-4.0718,-4.0134,-3.9495,-3.8808,-3.7964,-3.6975,-3.6209,-3.5773,-5.2664,-5.2879,-5.4383,-5.5112,-5.5092,-5.4924,-5.5438,-5.5945,-5.4697,-5.4944,-5.5711,-5.5457,-5.5201,-5.4825,-5.3535,-5.2459,-5.1823,-5.1648,-5.154,-5.1395,-5.1462,-5.1452,-5.1283,-5.1349,-5.1909,-5.2734,-5.3592,-5.4415,-5.5088,-5.6064,-5.6547,-5.625,-5.5528,-5.4888,-5.4186,-5.3181,-5.2313,-5.1728,-5.1474,-5.1401,-5.1386,-5.139,-5.0926,-5.0204,-4.9345,-4.8525,-4.7748,-4.6893,-4.6342,-4.6195,-4.6138,-4.6074,-4.6005,-4.5983,-4.596,-4.5941,-4.5944,-4.5977,-4.5997,-4.5997,-4.5986,-4.5983,-4.598,-4.5963,-4.5906,-4.5847,-4.58,-4.58,-4.5819,-4.5819,-4.5838,-4.58,-4.58,-4.58,-4.58,-4.5847,-4.5887,-4.5899,-4.5925,-4.5925,-4.5893,-4.5899,-4.5893,-4.5847,-4.58,-4.5766,-4.5713,-4.5602,-4.5394,-4.4718,-4.3998,-4.3349,-4.2995,-4.2402,-4.1904,-4.1509,-4.1199,-4.1083,-4.1013,-4.0982,-4.0834,-4.0854,-4.0842,-4.0822,-4.0796,-4.0815,-4.0827,-4.0672,-4.0331,-3.9673,-3.8833,-3.797,-3.7058,-3.64,-3.5704,-5.2067,-5.2625,-5.2875,-5.3272,-5.3689,-5.3728,-5.4242,-5.4866,-5.4788,-5.4749,-5.5061,-5.5217,-5.4976,-5.4313,-5.3149,-5.248,-5.1943,-5.1515,-5.1299,-5.1271,-5.1316,-5.1372,-5.1347,-5.1421,-5.1865,-5.2712,-5.3574,-5.4451,-5.5299,-5.6087,-5.6606,-5.6469,-5.5747,-5.5181,-5.44,-5.3342,-5.2659,-5.2112,-5.1703,-5.141,-5.1394,-5.1355,-5.1219,-5.0809,-4.9969,-4.9111,-4.8259,-4.7484,-4.6718,-4.6397,-4.6128,-4.6093,-4.6042,-4.5976,-4.5949,-4.591,-4.5922,-4.5953,-4.5994,-4.5994,-4.5994,-4.5994,-4.5991,-4.5956,-4.5887,-4.5847,-4.5838,-4.5896,-4.5916,-4.593,-4.593,-4.5916,-4.5916,-4.5896,-4.5838,-4.5847,-4.586,-4.5887,-4.5899,-4.5899,-4.5899,-4.5874,-4.586,-4.5847,-4.58,-4.58,-4.5786,-4.5718,-4.5665,-4.5452,-4.4708,-4.395,-4.3692,-4.3414,-4.2974,-4.2559,-4.2125,-4.192,-4.1625,-4.1478,-4.0943,-4.0815,-4.0803,-4.0803,-4.0803,-4.0822,-4.0861,-4.0725,-4.0474,-3.9681,-3.8798,-3.8044,-3.727,-3.6284,-3.5712,-5.1373,-5.2046,-5.1658,-5.1872,-5.2503,-5.2706,-5.321,-5.3888,-5.4473,-5.4429,-5.4112,-5.432,-5.4176,-5.3601,-5.2772,-5.2222,-5.2261,-5.1698,-5.1459,-5.1385,-5.1394,-5.1394,-5.1394,-5.1453,-5.1867,-5.2702,-5.3214,-5.4199,-5.5194,-5.589,-5.6305,-5.6508,-5.5396,-5.4947,-5.4478,-5.3268,-5.2175,-5.2117,-5.1648,-5.1414,-5.1394,-5.1394,-5.1394,-5.1121,-5.0555,-4.9677,-4.886,-4.8002,-4.7139,-4.6386,-4.6156,-4.6118,-4.605,-4.5977,-4.5919,-4.5893,-4.5893,-4.5944,-4.5968,-4.598,-4.5983,-4.5994,-4.5983,-4.5956,-4.5932,-4.5872,-4.5896,-4.6007,-4.6014,-4.6053,-4.6072,-4.6046,-4.5996,-4.5951,-4.5882,-4.5872,-4.588,-4.588,-4.586,-4.586,-4.5841,-4.5841,-4.5827,-4.5814,-4.58,-4.58,-4.5805,-4.581,-4.581,-4.581,-4.5239,-4.4421,-4.4277,-4.4029,-4.3527,-4.3197,-4.2906,-4.2721,-4.2446,-4.2024,-4.1509,-4.1013,-4.0808,-4.0796,-4.0854,-4.0808,-4.082,-4.0738,-4.0597,-4.0036,-3.9379,-3.8392,-3.7483,-3.6466,-3.5797,-5.0673,-5.0803,-5.1663,-5.2017,-5.2147,-5.3022,-5.3385,-5.3394,-5.3627,-5.372,-5.3591,-5.3189,-5.2896,-5.2601,-5.206,-5.1616,-5.1531,-5.1437,-5.1405,-5.1389,-5.1394,-5.1394,-5.1394,-5.1511,-5.1785,-5.2468,-5.2931,-5.3841,-5.4863,-5.5156,-5.5829,-5.6259,-5.4947,-5.4322,-5.3678,-5.2663,-5.1765,-5.1668,-5.1453,-5.1414,-5.1394,-5.1394,-5.1394,-5.1219,-5.0575,-4.9735,-4.8915,-4.8275,-4.7403,-4.65,-4.6386,-4.617,-4.6095,-4.6028,-4.597,-4.5899,-4.5893,-4.5932,-4.5945,-4.5963,-4.5991,-4.5972,-4.5949,-4.5951,-4.5957,-4.5982,-4.6007,-4.606,-4.6096,-4.6102,-4.6099,-4.6076,-4.6065,-4.6016,-4.5968,-4.5896,-4.5872,-4.5858,-4.5838,-4.5833,-4.58,-4.58,-4.58,-4.5805,-4.58,-4.58,-4.58,-4.5805,-4.5838,-4.5794,-4.5454,-4.495,-4.4838,-4.4472,-4.3821,-4.3635,-4.3847,-4.3568,-4.319,-4.2692,-4.2164,-4.1668,-4.1122,-4.099,-4.1067,-4.0931,-4.0796,-4.0765,-4.0715,-4.0563,-3.9959,-3.8856,-3.7924,-3.7023,-3.6361,-5.0323,-5.0294,-5.0689,-5.0991,-5.1222,-5.1548,-5.1718,-5.1866,-5.2326,-5.2656,-5.2756,-5.2125,-5.1795,-5.172,-5.1648,-5.1391,-5.1394,-5.1394,-5.1387,-5.1396,-5.1402,-5.1394,-5.1394,-5.1433,-5.159,-5.198,-5.2394,-5.2843,-5.3581,-5.4237,-5.4583,-5.4607,-5.4244,-5.4147,-5.3444,-5.2355,-5.159,-5.1394,-5.1394,-5.1394,-5.1394,-5.1394,-5.1394,-5.1336,-5.1219,-5.0471,-4.9758,-4.9383,-4.8365,-4.7447,-4.7047,-4.666,-4.623,-4.6143,-4.6028,-4.5982,-4.5976,-4.5957,-4.5963,-4.5964,-4.5944,-4.5937,-4.5944,-4.5977,-4.6009,-4.603,-4.6104,-4.6143,-4.6154,-4.6169,-4.6211,-4.6172,-4.6144,-4.6111,-4.6026,-4.5932,-4.5868,-4.5834,-4.5795,-4.5776,-4.5776,-4.5781,-4.5781,-4.5776,-4.5791,-4.58,-4.58,-4.5814,-4.5847,-4.588,-4.5596,-4.5447,-4.5354,-4.5415,-4.4839,-4.4842,-4.4936,-4.4538,-4.407,-4.3772,-4.3363,-4.2194,-4.1718,-4.1526,-4.1334,-4.1256,-4.114,-4.0936,-4.071,-4.0432,-3.9913,-3.9185,-3.8317,-3.7559,-3.7109,-4.9518,-4.9561,-4.9404,-4.9763,-5.0413,-5.0451,-5.0452,-5.0606,-5.1164,-5.1527,-5.1644,-5.1237,-5.1111,-5.121,-5.1281,-5.1355,-5.139,-5.1394,-5.1386,-5.14,-5.1385,-5.1394,-5.1394,-5.1414,-5.1453,-5.155,-5.1902,-5.2413,-5.2924,-5.3355,-5.3827,-5.3988,-5.3741,-5.3588,-5.3217,-5.228,-5.1402,-5.1402,-5.1398,-5.1394,-5.1394,-5.1389,-5.1391,-5.1389,-5.1324,-5.0875,-5.0266,-4.9838,-4.9271,-4.8297,-4.7637,-4.7187,-4.6719,-4.6332,-4.6152,-4.6106,-4.6074,-4.6028,-4.6015,-4.5976,-4.5925,-4.5951,-4.6002,-4.6035,-4.606,-4.6104,-4.6158,-4.6216,-4.623,-4.625,-4.6289,-4.625,-4.6152,-4.6092,-4.6021,-4.5925,-4.5849,-4.5777,-4.5754,-4.5735,-4.5735,-4.5735,-4.575,-4.5731,-4.5761,-4.5791,-4.58,-4.5814,-4.5833,-4.586,-4.588,-4.582,-4.5878,-4.5979,-4.6063,-4.6059,-4.6098,-4.6099,-4.5675,-4.5432,-4.4822,-4.3626,-4.2925,-4.3034,-4.2694,-4.1927,-4.1684,-4.1743,-4.1042,-4.0192,-3.9731,-3.9347,-3.8897,-3.8202,-3.7912,-4.8003,-4.8572,-4.7882,-4.8555,-4.991,-5.0095,-5.0149,-5.0268,-5.0425,-5.0538,-5.0683,-5.0673,-5.0831,-5.0996,-5.1063,-5.1199,-5.1351,-5.1374,-5.1386,-5.1402,-5.1385,-5.1398,-5.1394,-5.1394,-5.1394,-5.1394,-5.1609,-5.2019,-5.2585,-5.2644,-5.3105,-5.3335,-5.2997,-5.2724,-5.2646,-5.1887,-5.1437,-5.1396,-5.1385,-5.1402,-5.1389,-5.1387,-5.1387,-5.1384,-5.1396,-5.0981,-5.0596,-5.0404,-4.986,-4.9023,-4.832,-4.7891,-4.7519,-4.6738,-4.6387,-4.6282,-4.6163,-4.6114,-4.61,-4.6022,-4.5996,-4.6002,-4.6046,-4.61,-4.6176,-4.6197,-4.6182,-4.6196,-4.6214,-4.6254,-4.6289,-4.6269,-4.6152,-4.6066,-4.5994,-4.5925,-4.5829,-4.5777,-4.575,-4.5703,-4.5687,-4.5687,-4.5684,-4.57,-4.5715,-4.5746,-4.5791,-4.5819,-4.5819,-4.5847,-4.5893,-4.5912,-4.5991,-4.6066,-4.6244,-4.6989,-4.7231,-4.7312,-4.7223,-4.6878,-4.6406,-4.5502,-4.4977,-4.4725,-4.3928,-4.3034,-4.2811,-4.2704,-4.1761,-4.0804,-4.006,-3.9598,-3.9194,-3.8903,-3.8618,-4.758,-4.7851,-4.8136,-4.8275,-4.8422,-4.8965,-4.9485,-5.0,-5.0163,-5.0264,-5.032,-5.049,-5.0638,-5.0747,-5.0887,-5.1033,-5.123,-5.1265,-5.1289,-5.1386,-5.1391,-5.1398,-5.1394,-5.1394,-5.1394,-5.1394,-5.1433,-5.1492,-5.1804,-5.1932,-5.1966,-5.209,-5.2184,-5.1874,-5.1796,-5.1483,-5.1405,-5.1386,-5.1385,-5.1384,-5.1387,-5.1387,-5.1387,-5.1387,-5.1387,-5.1211,-5.0937,-5.0894,-5.0484,-4.9844,-4.9238,-4.8926,-4.8379,-4.7558,-4.707,-4.6872,-4.6664,-4.6152,-4.6139,-4.6111,-4.6104,-4.6158,-4.6123,-4.6183,-4.6162,-4.6136,-4.6123,-4.6127,-4.6111,-4.6117,-4.6035,-4.6074,-4.6027,-4.599,-4.592,-4.5887,-4.5827,-4.58,-4.5761,-4.5651,-4.562,-4.5603,-4.5584,-4.5599,-4.5616,-4.5651,-4.568,-4.5746,-4.5795,-4.581,-4.5844,-4.5841,-4.5898,-4.5969,-4.6263,-4.6929,-4.7501,-4.7605,-4.7917,-4.8145,-4.7622,-4.7174,-4.6552,-4.6066,-4.5113,-4.4199,-4.3685,-4.3112,-4.2352,-4.1532,-4.0858,-4.0275,-3.9947,-3.9667,-3.9384,-4.6708,-4.7036,-4.7593,-4.7858,-4.7908,-4.845,-4.9045,-4.9508,-4.9905,-5.0089,-5.012,-5.0252,-5.041,-5.0528,-5.0654,-5.0895,-5.1135,-5.116,-5.1269,-5.1367,-5.14,-5.1389,-5.1398,-5.1394,-5.1394,-5.1394,-5.1394,-5.1433,-5.1492,-5.1433,-5.1498,-5.1541,-5.1384,-5.1482,-5.1445,-5.1406,-5.1387,-5.1387,-5.1387,-5.1387,-5.1387,-5.1387,-5.1387,-5.1387,-5.1387,-5.1348,-5.1387,-5.1308,-5.1172,-5.0683,-5.0293,-4.998,-4.9217,-4.8376,-4.7752,-4.7347,-4.7127,-4.6699,-4.6722,-4.6709,-4.6867,-4.7167,-4.6616,-4.6358,-4.6338,-4.6269,-4.6351,-4.63,-4.6057,-4.5953,-4.5925,-4.5949,-4.5938,-4.5891,-4.588,-4.5831,-4.5777,-4.5715,-4.568,-4.5584,-4.5568,-4.5513,-4.5476,-4.5495,-4.5512,-4.5547,-4.5582,-4.5651,-4.5719,-4.5719,-4.5735,-4.5742,-4.578,-4.5835,-4.6158,-4.6745,-4.7298,-4.7807,-4.8429,-4.909,-4.9284,-4.8895,-4.8147,-4.7349,-4.6474,-4.5502,-4.4296,-4.3518,-4.3098,-4.2524,-4.1815,-4.1272,-4.0777,-4.0298,-3.9856,-4.5407,-4.6089,-4.6196,-4.7125,-4.8351,-4.8446,-4.8674,-4.8837,-4.9546,-4.9868,-4.9906,-4.991,-5.0059,-5.0344,-5.0451,-5.0687,-5.0981,-5.105,-5.1183,-5.1302,-5.1324,-5.1347,-5.1377,-5.1385,-5.1398,-5.1394,-5.1394,-5.1398,-5.1398,-5.1394,-5.1387,-5.1394,-5.1385,-5.1396,-5.1387,-5.1387,-5.1387,-5.1387,-5.1387,-5.1387,-5.1387,-5.1387,-5.1387,-5.1387,-5.1387,-5.1387,-5.1387,-5.1367,-5.1348,-5.1055,-5.0683,-5.0404,-4.9709,-4.8607,-4.8018,-4.7654,-4.7654,-4.7631,-4.7624,-4.7622,-4.7798,-4.7951,-4.7196,-4.6991,-4.6809,-4.6582,-4.6486,-4.6372,-4.6136,-4.5976,-4.5883,-4.5861,-4.5819,-4.5822,-4.5803,-4.5736,-4.5659,-4.5603,-4.5566,-4.5531,-4.5495,-4.5457,-4.538,-4.54,-4.5419,-4.54,-4.5438,-4.5476,-4.555,-4.5584,-4.5601,-4.5599,-4.5629,-4.5658,-4.6095,-4.6752,-4.7481,-4.8132,-4.9284,-5.0009,-5.0254,-5.0284,-4.9496,-4.8638,-4.7878,-4.6799,-4.5304,-4.4525,-4.4211,-4.3544,-4.2646,-4.1888,-4.1285,-4.0513,-4.0101,-4.5047,-4.5331,-4.5949,-4.6139,-4.6165,-4.7283,-4.842,-4.9443,-4.9273,-4.9292,-4.986,-4.9299,-4.941,-5.0174,-5.0245,-5.0445,-5.0622,-5.084,-5.0975,-5.107,-5.1113,-5.1216,-5.1313,-5.1365,-5.1389,-5.1394,-5.1398,-5.1389,-5.1385,-5.1387,-5.1402,-5.1398,-5.1394,-5.1385,-5.1391,-5.14,-5.1385,-5.1387,-5.1387,-5.1387,-5.1387,-5.1387,-5.1385,-5.14,-5.1385,-5.1387,-5.1387,-5.1387,-5.1387,-5.1269,-5.1172,-5.1031,-5.093,-5.0028,-4.9319,-4.8593,-4.8514,-4.8508,-4.8523,-4.8529,-4.8665,-4.8766,-4.8154,-4.7642,-4.7347,-4.7004,-4.668,-4.6521,-4.6087,-4.5781,-4.5722,-4.572,-4.5701,-4.5701,-4.5699,-4.568,-4.5586,-4.5549,-4.5532,-4.5706,-4.5669,-4.563,-4.5512,-4.53,-4.5341,-4.5281,-4.5301,-4.538,-4.5438,-4.5495,-4.5513,-4.5512,-4.5586,-4.5654,-4.6252,-4.6897,-4.7701,-4.8561,-4.9625,-5.0499,-5.0732,-5.0673,-5.0428,-4.9698,-4.858,-4.7345,-4.6019,-4.5475,-4.5131,-4.4214,-4.3332,-4.2532,-4.1754,-4.0966,-4.0386,-4.4895,-4.5009,-4.5835,-4.6044,-4.6152,-4.7334,-4.837,-4.8837,-4.8723,-4.8856,-4.8837,-4.8401,-4.8536,-4.8966,-4.9077,-4.9255,-4.9547,-4.9572,-4.986,-5.051,-5.0704,-5.0966,-5.1144,-5.1346,-5.1379,-5.1389,-5.1385,-5.1391,-5.1387,-5.1387,-5.1394,-5.1394,-5.1394,-5.1394,-5.1398,-5.1389,-5.1394,-5.14,-5.1387,-5.1386,-5.1386,-5.1386,-5.1396,-5.1385,-5.1398,-5.1384,-5.1387,-5.1387,-5.1387,-5.1387,-5.1387,-5.1385,-5.1246,-5.0582,-4.9719,-4.9055,-4.9207,-4.9283,-4.9361,-4.935,-4.9454,-4.9488,-4.931,-4.8871,-4.815,-4.7622,-4.7243,-4.6892,-4.6108,-4.5534,-4.5514,-4.5531,-4.555,-4.5568,-4.5605,-4.5622,-4.5586,-4.5513,-4.5668,-4.5918,-4.5936,-4.5915,-4.5759,-4.5489,-4.536,-4.5457,-4.5475,-4.5457,-4.5495,-4.5512,-4.5494,-4.5475,-4.5569,-4.5682,-4.6362,-4.7079,-4.7898,-4.871,-4.9555,-5.0338,-5.0869,-5.0946,-5.0622,-4.9905,-4.9032,-4.785,-4.6758,-4.6358,-4.5896,-4.5027,-4.4163,-4.328,-4.2364,-4.1357,-4.0898,-4.4857,-4.4838,-4.5759,-4.6366,-4.7239,-4.7954,-4.7909,-4.7359,-4.7984,-4.8098,-4.7548,-4.746,-4.7631,-4.8014,-4.8191,-4.8264,-4.8452,-4.8523,-4.9126,-4.9839,-5.0082,-5.0482,-5.1147,-5.1385,-5.1386,-5.14,-5.1396,-5.1387,-5.1387,-5.1387,-5.14,-5.1398,-5.1394,-5.1394,-5.1394,-5.1398,-5.1402,-5.1385,-5.1394,-5.14,-5.1384,-5.14,-5.1391,-5.1398,-5.1402,-5.1389,-5.1385,-5.1387,-5.1387,-5.1387,-5.1385,-5.14,-5.1137,-5.0796,-4.9915,-4.968,-4.9954,-5.011,-5.0214,-5.02,-5.0518,-5.0614,-5.0547,-5.0072,-4.9341,-4.8507,-4.806,-4.7405,-4.6681,-4.6089,-4.5974,-4.5647,-4.5495,-4.555,-4.5605,-4.5586,-4.5531,-4.5667,-4.6033,-4.6244,-4.632,-4.6281,-4.6225,-4.5976,-4.5457,-4.5616,-4.5668,-4.5584,-4.5582,-4.5616,-4.5582,-4.553,-4.5586,-4.5832,-4.6544,-4.7284,-4.8102,-4.889,-4.9737,-5.0306,-5.0927,-5.094,-5.0797,-4.9937,-4.9074,-4.8526,-4.7714,-4.7213,-4.6702,-4.6157,-4.5211,-4.4106,-4.3012,-4.1844,-4.1179,-4.4535,-4.4061,-4.4881,-4.5355,-4.5621,-4.6448,-4.6328,-4.5596,-4.6411,-4.7018,-4.7346,-4.741,-4.7485,-4.7538,-4.81,-4.8204,-4.7871,-4.7758,-4.8615,-4.9238,-4.9598,-5.0129,-5.1043,-5.1102,-5.1296,-5.1385,-5.1387,-5.1387,-5.1387,-5.1387,-5.1386,-5.1394,-5.1385,-5.1394,-5.1394,-5.1394,-5.1394,-5.1394,-5.1402,-5.1385,-5.1389,-5.1389,-5.1398,-5.1394,-5.1398,-5.1398,-5.1396,-5.1387,-5.1387,-5.1387,-5.1387,-5.1402,-5.1363,-5.1164,-5.0984,-5.0848,-5.0828,-5.0906,-5.0945,-5.091,-5.1079,-5.1154,-5.1039,-5.0938,-5.0459,-4.9627,-4.8803,-4.8079,-4.7306,-4.6737,-4.6224,-4.5764,-4.5457,-4.5513,-4.5605,-4.555,-4.5532,-4.5956,-4.6378,-4.6532,-4.6647,-4.6647,-4.6587,-4.6257,-4.5772,-4.5613,-4.5665,-4.5668,-4.5715,-4.5727,-4.5727,-4.5696,-4.5668,-4.5976,-4.6788,-4.7542,-4.8378,-4.9311,-5.019,-5.0649,-5.0985,-5.086,-5.0681,-4.9877,-4.9096,-4.8764,-4.839,-4.7837,-4.7345,-4.6903,-4.5796,-4.4477,-4.3303,-4.2134,-4.1487,-4.4635,-4.4345,-4.5109,-4.5242,-4.5085,-4.5835,-4.5721,-4.5133,-4.5475,-4.5935,-4.6391,-4.6757,-4.6991,-4.7082,-4.7686,-4.7859,-4.7315,-4.6992,-4.7519,-4.8225,-4.8934,-4.9596,-5.0131,-5.053,-5.0918,-5.1074,-5.1328,-5.1387,-5.1387,-5.1387,-5.1386,-5.1402,-5.1391,-5.1394,-5.1394,-5.1394,-5.1394,-5.1394,-5.1394,-5.1394,-5.1394,-5.1394,-5.1389,-5.1389,-5.1385,-5.1402,-5.1389,-5.1387,-5.1387,-5.1387,-5.1387,-5.1387,-5.1398,-5.1327,-5.1355,-5.1316,-5.1316,-5.1394,-5.1394,-5.139,-5.1362,-5.1336,-5.133,-5.1154,-5.1154,-5.0313,-4.9431,-4.8587,-4.6834,-4.6047,-4.5896,-4.5515,-4.5476,-4.5513,-4.5568,-4.5586,-4.5796,-4.618,-4.6509,-4.6738,-4.6814,-4.6829,-4.6651,-4.6188,-4.5793,-4.5775,-4.578,-4.5786,-4.5814,-4.5847,-4.5847,-4.5918,-4.5916,-4.6549,-4.7545,-4.815,-4.869,-4.964,-5.061,-5.0765,-5.0937,-5.0819,-5.0522,-4.995,-4.9543,-4.9401,-4.8982,-4.8502,-4.7952,-4.745,-4.6147,-4.4692,-4.3509,-4.2295,-4.1513,-4.4887,-4.5009,-4.5702,-4.5626,-4.509,-4.5708,-4.5656,-4.5086,-4.5052,-4.5095,-4.5346,-4.6083,-4.6297,-4.6268,-4.6533,-4.6568,-4.651,-4.6301,-4.659,-4.7187,-4.7495,-4.8611,-4.9223,-4.9412,-5.0084,-5.0578,-5.082,-5.1172,-5.1387,-5.125,-5.1133,-5.1308,-5.1398,-5.1398,-5.1394,-5.1394,-5.1394,-5.1394,-5.1394,-5.1394,-5.1394,-5.1398,-5.1396,-5.14,-5.1398,-5.1382,-5.1391,-5.1387,-5.1387,-5.1387,-5.1387,-5.1387,-5.1387,-5.1398,-5.1389,-5.1385,-5.1394,-5.1394,-5.1394,-5.1394,-5.139,-5.139,-5.1394,-5.1394,-5.1371,-5.0834,-4.9934,-4.869,-4.6938,-4.6071,-4.5902,-4.5532,-4.5549,-4.553,-4.5601,-4.5635,-4.5976,-4.6359,-4.6629,-4.6896,-4.6928,-4.6955,-4.668,-4.6182,-4.5949,-4.5937,-4.5933,-4.5941,-4.5929,-4.5917,-4.5925,-4.6123,-4.6298,-4.712,-4.815,-4.8759,-4.9169,-4.9984,-5.0811,-5.0874,-5.0898,-5.0839,-5.0665,-5.0298,-4.9982,-4.9834,-4.9662,-4.9286,-4.8691,-4.7762,-4.6162,-4.4546,-4.3182,-4.2057,-4.1282,-4.4876,-4.4933,-4.5166,-4.5133,-4.5024,-4.5228,-4.5213,-4.508,-4.508,-4.5084,-4.5316,-4.5948,-4.6161,-4.5497,-4.6416,-4.6568,-4.6157,-4.5849,-4.639,-4.7134,-4.7192,-4.8059,-4.8723,-4.8938,-4.9469,-4.9766,-4.9963,-5.0234,-5.0644,-5.0586,-5.0781,-5.125,-5.1324,-5.1349,-5.1394,-5.1394,-5.1394,-5.1394,-5.1375,-5.1355,-5.134,-5.1349,-5.1382,-5.1385,-5.1386,-5.1386,-5.1386,-5.1386,-5.1387,-5.1387,-5.1387,-5.1387,-5.1387,-5.1387,-5.1402,-5.1394,-5.1389,-5.1402,-5.1402,-5.1398,-5.1398,-5.1398,-5.1398,-5.1398,-5.1222,-5.0809,-4.997,-4.9159,-4.7809,-4.7212,-4.6829,-4.595,-4.5673,-4.5677,-4.5692,-4.5723,-4.5907,-4.6341,-4.6712,-4.6854,-4.6917,-4.6952,-4.6957,-4.646,-4.5987,-4.5986,-4.5997,-4.5986,-4.5986,-4.5986,-4.5994,-4.6307,-4.6581,-4.7425,-4.8363,-4.9174,-4.9744,-5.0494,-5.0953,-5.0908,-5.0883,-5.0902,-5.0685,-5.03,-5.0273,-5.0215,-5.0033,-4.9476,-4.8538,-4.7411,-4.5874,-4.4342,-4.2974,-4.1975,-4.1353]}]]